<?xml version="1.0" encoding="UTF-8" standalone="no" ?>
<gpx xmlns="http://www.topografix.com/GPX/1/1" xmlns:xsi="http://www.w3.org/2001/XMLSchema-instance" xsi:schemaLocation="http://www.topografix.com/GPX/1/1 http://www.topografix.com/GPX/1/1/gpx.xsd" version="1.1" creator="VisuGPX - https://www.visugpx.com">
  <metadata>
    <name>Entrainement trail roulant 30km 1500m d </name>
    <desc><![CDATA[Circuit sur piste jeepable, single track.
Bien roulant dans l\'ensemble.]]></desc>
  </metadata>
  <trk>
    <name><![CDATA[Entrainement trail roulant 30km 1500m d _1]]></name>
    <trkseg>
      <trkpt lat="46.07868" lon="6.62209">
        <ele>1333</ele>
        <time>2014-08-24T12:23:50.000Z</time>
      </trkpt>
      <trkpt lat="46.07865" lon="6.62227">
        <ele>1334</ele>
        <time>2014-08-24T12:24:02.000Z</time>
      </trkpt>
      <trkpt lat="46.07869" lon="6.62245">
        <ele>1335</ele>
        <time>2014-08-24T12:24:08.000Z</time>
      </trkpt>
      <trkpt lat="46.07872" lon="6.62266">
        <ele>1335</ele>
        <time>2014-08-24T12:24:14.000Z</time>
      </trkpt>
      <trkpt lat="46.07867" lon="6.62285">
        <ele>1335</ele>
        <time>2014-08-24T12:24:20.000Z</time>
      </trkpt>
      <trkpt lat="46.07862" lon="6.62301">
        <ele>1335</ele>
        <time>2014-08-24T12:24:26.000Z</time>
      </trkpt>
      <trkpt lat="46.07859" lon="6.62321">
        <ele>1335</ele>
        <time>2014-08-24T12:24:32.000Z</time>
      </trkpt>
      <trkpt lat="46.07853" lon="6.62348">
        <ele>1334</ele>
        <time>2014-08-24T12:24:41.000Z</time>
      </trkpt>
      <trkpt lat="46.07849" lon="6.62374">
        <ele>1335</ele>
        <time>2014-08-24T12:24:50.000Z</time>
      </trkpt>
      <trkpt lat="46.07846" lon="6.62393">
        <ele>1335</ele>
        <time>2014-08-24T12:24:56.000Z</time>
      </trkpt>
      <trkpt lat="46.07837" lon="6.62416">
        <ele>1336</ele>
        <time>2014-08-24T12:25:05.000Z</time>
      </trkpt>
      <trkpt lat="46.07836" lon="6.62443">
        <ele>1337</ele>
        <time>2014-08-24T12:25:14.000Z</time>
      </trkpt>
      <trkpt lat="46.07832" lon="6.62463">
        <ele>1338</ele>
        <time>2014-08-24T12:25:20.000Z</time>
      </trkpt>
      <trkpt lat="46.07829" lon="6.62488">
        <ele>1339</ele>
        <time>2014-08-24T12:25:29.000Z</time>
      </trkpt>
      <trkpt lat="46.07824" lon="6.62515">
        <ele>1341</ele>
        <time>2014-08-24T12:25:38.000Z</time>
      </trkpt>
      <trkpt lat="46.07821" lon="6.62536">
        <ele>1343</ele>
        <time>2014-08-24T12:25:47.000Z</time>
      </trkpt>
      <trkpt lat="46.07814" lon="6.62552">
        <ele>1345</ele>
        <time>2014-08-24T12:25:53.000Z</time>
      </trkpt>
      <trkpt lat="46.07809" lon="6.62568">
        <ele>1346</ele>
        <time>2014-08-24T12:25:59.000Z</time>
      </trkpt>
      <trkpt lat="46.07803" lon="6.62584">
        <ele>1347</ele>
        <time>2014-08-24T12:26:05.000Z</time>
      </trkpt>
      <trkpt lat="46.07796" lon="6.626">
        <ele>1348</ele>
        <time>2014-08-24T12:26:11.000Z</time>
      </trkpt>
      <trkpt lat="46.07787" lon="6.62623">
        <ele>1350</ele>
        <time>2014-08-24T12:26:20.000Z</time>
      </trkpt>
      <trkpt lat="46.07792" lon="6.62647">
        <ele>1350</ele>
        <time>2014-08-24T12:26:26.000Z</time>
      </trkpt>
      <trkpt lat="46.07792" lon="6.62656">
        <ele>1351</ele>
        <time>2014-08-24T12:26:32.000Z</time>
      </trkpt>
      <trkpt lat="46.07792" lon="6.62666">
        <ele>1351</ele>
        <time>2014-08-24T12:26:35.000Z</time>
      </trkpt>
      <trkpt lat="46.07791" lon="6.62676">
        <ele>1351</ele>
        <time>2014-08-24T12:26:38.000Z</time>
      </trkpt>
      <trkpt lat="46.0779" lon="6.62688">
        <ele>1352</ele>
        <time>2014-08-24T12:26:44.000Z</time>
      </trkpt>
      <trkpt lat="46.0779" lon="6.62699">
        <ele>1353</ele>
        <time>2014-08-24T12:26:47.000Z</time>
      </trkpt>
      <trkpt lat="46.0779" lon="6.62708">
        <ele>1353</ele>
        <time>2014-08-24T12:26:50.000Z</time>
      </trkpt>
      <trkpt lat="46.07789" lon="6.6272">
        <ele>1354</ele>
        <time>2014-08-24T12:26:56.000Z</time>
      </trkpt>
      <trkpt lat="46.07781" lon="6.62729">
        <ele>1354</ele>
        <time>2014-08-24T12:26:59.000Z</time>
      </trkpt>
      <trkpt lat="46.07775" lon="6.62737">
        <ele>1354</ele>
        <time>2014-08-24T12:27:02.000Z</time>
      </trkpt>
      <trkpt lat="46.07771" lon="6.62744">
        <ele>1354</ele>
        <time>2014-08-24T12:27:05.000Z</time>
      </trkpt>
      <trkpt lat="46.07766" lon="6.6275">
        <ele>1354</ele>
        <time>2014-08-24T12:27:08.000Z</time>
      </trkpt>
      <trkpt lat="46.07757" lon="6.62764">
        <ele>1355</ele>
        <time>2014-08-24T12:27:11.000Z</time>
      </trkpt>
      <trkpt lat="46.07752" lon="6.62782">
        <ele>1356</ele>
        <time>2014-08-24T12:27:17.000Z</time>
      </trkpt>
      <trkpt lat="46.07743" lon="6.62826">
        <ele>1358</ele>
        <time>2014-08-24T12:27:32.000Z</time>
      </trkpt>
      <trkpt lat="46.07735" lon="6.62839">
        <ele>1358</ele>
        <time>2014-08-24T12:27:38.000Z</time>
      </trkpt>
      <trkpt lat="46.0772" lon="6.62852">
        <ele>1359</ele>
        <time>2014-08-24T12:27:47.000Z</time>
      </trkpt>
      <trkpt lat="46.07706" lon="6.62865">
        <ele>1360</ele>
        <time>2014-08-24T12:27:56.000Z</time>
      </trkpt>
      <trkpt lat="46.07693" lon="6.62875">
        <ele>1362</ele>
        <time>2014-08-24T12:28:05.000Z</time>
      </trkpt>
      <trkpt lat="46.07681" lon="6.62885">
        <ele>1363</ele>
        <time>2014-08-24T12:28:14.000Z</time>
      </trkpt>
      <trkpt lat="46.07667" lon="6.62894">
        <ele>1363</ele>
        <time>2014-08-24T12:28:23.000Z</time>
      </trkpt>
      <trkpt lat="46.07653" lon="6.62904">
        <ele>1365</ele>
        <time>2014-08-24T12:28:32.000Z</time>
      </trkpt>
      <trkpt lat="46.07639" lon="6.62919">
        <ele>1366</ele>
        <time>2014-08-24T12:28:41.000Z</time>
      </trkpt>
      <trkpt lat="46.07629" lon="6.62931">
        <ele>1367</ele>
        <time>2014-08-24T12:28:47.000Z</time>
      </trkpt>
      <trkpt lat="46.07607" lon="6.62959">
        <ele>1369</ele>
        <time>2014-08-24T12:29:02.000Z</time>
      </trkpt>
      <trkpt lat="46.07598" lon="6.62976">
        <ele>1371</ele>
        <time>2014-08-24T12:29:08.000Z</time>
      </trkpt>
      <trkpt lat="46.07591" lon="6.62991">
        <ele>1372</ele>
        <time>2014-08-24T12:29:14.000Z</time>
      </trkpt>
      <trkpt lat="46.07584" lon="6.63008">
        <ele>1374</ele>
        <time>2014-08-24T12:29:20.000Z</time>
      </trkpt>
      <trkpt lat="46.0758" lon="6.63026">
        <ele>1375</ele>
        <time>2014-08-24T12:29:26.000Z</time>
      </trkpt>
      <trkpt lat="46.07579" lon="6.63037">
        <ele>1376</ele>
        <time>2014-08-24T12:29:32.000Z</time>
      </trkpt>
      <trkpt lat="46.07578" lon="6.63046">
        <ele>1376</ele>
        <time>2014-08-24T12:29:35.000Z</time>
      </trkpt>
      <trkpt lat="46.07575" lon="6.63056">
        <ele>1377</ele>
        <time>2014-08-24T12:29:38.000Z</time>
      </trkpt>
      <trkpt lat="46.07573" lon="6.63065">
        <ele>1377</ele>
        <time>2014-08-24T12:29:41.000Z</time>
      </trkpt>
      <trkpt lat="46.0757" lon="6.63074">
        <ele>1378</ele>
        <time>2014-08-24T12:29:44.000Z</time>
      </trkpt>
      <trkpt lat="46.07563" lon="6.63091">
        <ele>1379</ele>
        <time>2014-08-24T12:29:47.000Z</time>
      </trkpt>
      <trkpt lat="46.07557" lon="6.63107">
        <ele>1380</ele>
        <time>2014-08-24T12:29:53.000Z</time>
      </trkpt>
      <trkpt lat="46.07551" lon="6.63124">
        <ele>1380</ele>
        <time>2014-08-24T12:29:59.000Z</time>
      </trkpt>
      <trkpt lat="46.07545" lon="6.63142">
        <ele>1381</ele>
        <time>2014-08-24T12:30:05.000Z</time>
      </trkpt>
      <trkpt lat="46.07537" lon="6.63162">
        <ele>1382</ele>
        <time>2014-08-24T12:30:14.000Z</time>
      </trkpt>
      <trkpt lat="46.07539" lon="6.6319">
        <ele>1383</ele>
        <time>2014-08-24T12:30:20.000Z</time>
      </trkpt>
      <trkpt lat="46.07535" lon="6.63208">
        <ele>1383</ele>
        <time>2014-08-24T12:30:26.000Z</time>
      </trkpt>
      <trkpt lat="46.07529" lon="6.63226">
        <ele>1383</ele>
        <time>2014-08-24T12:30:32.000Z</time>
      </trkpt>
      <trkpt lat="46.07522" lon="6.63245">
        <ele>1383</ele>
        <time>2014-08-24T12:30:38.000Z</time>
      </trkpt>
      <trkpt lat="46.07515" lon="6.63262">
        <ele>1384</ele>
        <time>2014-08-24T12:30:44.000Z</time>
      </trkpt>
      <trkpt lat="46.07509" lon="6.63285">
        <ele>1385</ele>
        <time>2014-08-24T12:30:50.000Z</time>
      </trkpt>
      <trkpt lat="46.07506" lon="6.63306">
        <ele>1386</ele>
        <time>2014-08-24T12:30:56.000Z</time>
      </trkpt>
      <trkpt lat="46.07499" lon="6.63325">
        <ele>1386</ele>
        <time>2014-08-24T12:31:02.000Z</time>
      </trkpt>
      <trkpt lat="46.07488" lon="6.63342">
        <ele>1387</ele>
        <time>2014-08-24T12:31:08.000Z</time>
      </trkpt>
      <trkpt lat="46.07478" lon="6.63357">
        <ele>1388</ele>
        <time>2014-08-24T12:31:14.000Z</time>
      </trkpt>
      <trkpt lat="46.0747" lon="6.63371">
        <ele>1388</ele>
        <time>2014-08-24T12:31:20.000Z</time>
      </trkpt>
      <trkpt lat="46.07475" lon="6.63393">
        <ele>1388</ele>
        <time>2014-08-24T12:31:23.000Z</time>
      </trkpt>
      <trkpt lat="46.07472" lon="6.63414">
        <ele>1388</ele>
        <time>2014-08-24T12:31:29.000Z</time>
      </trkpt>
      <trkpt lat="46.07468" lon="6.63435">
        <ele>1388</ele>
        <time>2014-08-24T12:31:35.000Z</time>
      </trkpt>
      <trkpt lat="46.07461" lon="6.63455">
        <ele>1388</ele>
        <time>2014-08-24T12:31:41.000Z</time>
      </trkpt>
      <trkpt lat="46.07455" lon="6.63481">
        <ele>1388</ele>
        <time>2014-08-24T12:31:50.000Z</time>
      </trkpt>
      <trkpt lat="46.07447" lon="6.63494">
        <ele>1388</ele>
        <time>2014-08-24T12:31:56.000Z</time>
      </trkpt>
      <trkpt lat="46.07436" lon="6.63508">
        <ele>1389</ele>
        <time>2014-08-24T12:32:02.000Z</time>
      </trkpt>
      <trkpt lat="46.07424" lon="6.63516">
        <ele>1390</ele>
        <time>2014-08-24T12:32:08.000Z</time>
      </trkpt>
      <trkpt lat="46.07411" lon="6.63525">
        <ele>1391</ele>
        <time>2014-08-24T12:32:14.000Z</time>
      </trkpt>
      <trkpt lat="46.07399" lon="6.63534">
        <ele>1392</ele>
        <time>2014-08-24T12:32:20.000Z</time>
      </trkpt>
      <trkpt lat="46.07393" lon="6.63559">
        <ele>1393</ele>
        <time>2014-08-24T12:32:26.000Z</time>
      </trkpt>
      <trkpt lat="46.07385" lon="6.63575">
        <ele>1393</ele>
        <time>2014-08-24T12:32:32.000Z</time>
      </trkpt>
      <trkpt lat="46.07374" lon="6.63592">
        <ele>1393</ele>
        <time>2014-08-24T12:32:38.000Z</time>
      </trkpt>
      <trkpt lat="46.0737" lon="6.63599">
        <ele>1393</ele>
        <time>2014-08-24T12:32:44.000Z</time>
      </trkpt>
      <trkpt lat="46.07366" lon="6.63605">
        <ele>1393</ele>
        <time>2014-08-24T12:32:47.000Z</time>
      </trkpt>
      <trkpt lat="46.07359" lon="6.63615">
        <ele>1393</ele>
        <time>2014-08-24T12:32:53.000Z</time>
      </trkpt>
      <trkpt lat="46.07354" lon="6.63624">
        <ele>1393</ele>
        <time>2014-08-24T12:32:56.000Z</time>
      </trkpt>
      <trkpt lat="46.07349" lon="6.63632">
        <ele>1393</ele>
        <time>2014-08-24T12:32:59.000Z</time>
      </trkpt>
      <trkpt lat="46.07344" lon="6.6364">
        <ele>1394</ele>
        <time>2014-08-24T12:33:02.000Z</time>
      </trkpt>
      <trkpt lat="46.07339" lon="6.63646">
        <ele>1394</ele>
        <time>2014-08-24T12:33:05.000Z</time>
      </trkpt>
      <trkpt lat="46.07331" lon="6.63661">
        <ele>1394</ele>
        <time>2014-08-24T12:33:08.000Z</time>
      </trkpt>
      <trkpt lat="46.07322" lon="6.63677">
        <ele>1395</ele>
        <time>2014-08-24T12:33:14.000Z</time>
      </trkpt>
      <trkpt lat="46.07314" lon="6.63691">
        <ele>1395</ele>
        <time>2014-08-24T12:33:20.000Z</time>
      </trkpt>
      <trkpt lat="46.07306" lon="6.63707">
        <ele>1396</ele>
        <time>2014-08-24T12:33:26.000Z</time>
      </trkpt>
      <trkpt lat="46.07297" lon="6.63724">
        <ele>1396</ele>
        <time>2014-08-24T12:33:32.000Z</time>
      </trkpt>
      <trkpt lat="46.0729" lon="6.63739">
        <ele>1396</ele>
        <time>2014-08-24T12:33:38.000Z</time>
      </trkpt>
      <trkpt lat="46.07281" lon="6.63756">
        <ele>1396</ele>
        <time>2014-08-24T12:33:44.000Z</time>
      </trkpt>
      <trkpt lat="46.07271" lon="6.63772">
        <ele>1396</ele>
        <time>2014-08-24T12:33:50.000Z</time>
      </trkpt>
      <trkpt lat="46.07261" lon="6.63786">
        <ele>1396</ele>
        <time>2014-08-24T12:33:56.000Z</time>
      </trkpt>
      <trkpt lat="46.07251" lon="6.63798">
        <ele>1396</ele>
        <time>2014-08-24T12:34:02.000Z</time>
      </trkpt>
      <trkpt lat="46.07237" lon="6.63814">
        <ele>1397</ele>
        <time>2014-08-24T12:34:11.000Z</time>
      </trkpt>
      <trkpt lat="46.07226" lon="6.63827">
        <ele>1398</ele>
        <time>2014-08-24T12:34:20.000Z</time>
      </trkpt>
      <trkpt lat="46.07225" lon="6.63859">
        <ele>1399</ele>
        <time>2014-08-24T12:34:29.000Z</time>
      </trkpt>
      <trkpt lat="46.07214" lon="6.63879">
        <ele>1400</ele>
        <time>2014-08-24T12:34:38.000Z</time>
      </trkpt>
      <trkpt lat="46.07204" lon="6.63899">
        <ele>1401</ele>
        <time>2014-08-24T12:34:47.000Z</time>
      </trkpt>
      <trkpt lat="46.07193" lon="6.63913">
        <ele>1401</ele>
        <time>2014-08-24T12:34:53.000Z</time>
      </trkpt>
      <trkpt lat="46.07183" lon="6.63926">
        <ele>1402</ele>
        <time>2014-08-24T12:34:59.000Z</time>
      </trkpt>
      <trkpt lat="46.0717" lon="6.63942">
        <ele>1403</ele>
        <time>2014-08-24T12:35:08.000Z</time>
      </trkpt>
      <trkpt lat="46.07158" lon="6.63963">
        <ele>1405</ele>
        <time>2014-08-24T12:35:17.000Z</time>
      </trkpt>
      <trkpt lat="46.07148" lon="6.63976">
        <ele>1406</ele>
        <time>2014-08-24T12:35:23.000Z</time>
      </trkpt>
      <trkpt lat="46.07137" lon="6.63987">
        <ele>1406</ele>
        <time>2014-08-24T12:35:29.000Z</time>
      </trkpt>
      <trkpt lat="46.07126" lon="6.64002">
        <ele>1407</ele>
        <time>2014-08-24T12:35:35.000Z</time>
      </trkpt>
      <trkpt lat="46.07115" lon="6.64015">
        <ele>1408</ele>
        <time>2014-08-24T12:35:41.000Z</time>
      </trkpt>
      <trkpt lat="46.0711" lon="6.64022">
        <ele>1409</ele>
        <time>2014-08-24T12:35:47.000Z</time>
      </trkpt>
      <trkpt lat="46.07105" lon="6.6403">
        <ele>1410</ele>
        <time>2014-08-24T12:35:50.000Z</time>
      </trkpt>
      <trkpt lat="46.071" lon="6.64037">
        <ele>1410</ele>
        <time>2014-08-24T12:35:53.000Z</time>
      </trkpt>
      <trkpt lat="46.07095" lon="6.64044">
        <ele>1410</ele>
        <time>2014-08-24T12:35:56.000Z</time>
      </trkpt>
      <trkpt lat="46.0709" lon="6.64052">
        <ele>1410</ele>
        <time>2014-08-24T12:35:59.000Z</time>
      </trkpt>
      <trkpt lat="46.0708" lon="6.64065">
        <ele>1410</ele>
        <time>2014-08-24T12:36:02.000Z</time>
      </trkpt>
      <trkpt lat="46.0707" lon="6.64079">
        <ele>1410</ele>
        <time>2014-08-24T12:36:08.000Z</time>
      </trkpt>
      <trkpt lat="46.07059" lon="6.64094">
        <ele>1411</ele>
        <time>2014-08-24T12:36:14.000Z</time>
      </trkpt>
      <trkpt lat="46.0705" lon="6.64107">
        <ele>1411</ele>
        <time>2014-08-24T12:36:20.000Z</time>
      </trkpt>
      <trkpt lat="46.0704" lon="6.64121">
        <ele>1412</ele>
        <time>2014-08-24T12:36:26.000Z</time>
      </trkpt>
      <trkpt lat="46.07028" lon="6.6414">
        <ele>1413</ele>
        <time>2014-08-24T12:36:35.000Z</time>
      </trkpt>
      <trkpt lat="46.07021" lon="6.64159">
        <ele>1414</ele>
        <time>2014-08-24T12:36:44.000Z</time>
      </trkpt>
      <trkpt lat="46.07015" lon="6.64178">
        <ele>1414</ele>
        <time>2014-08-24T12:36:53.000Z</time>
      </trkpt>
      <trkpt lat="46.07001" lon="6.64192">
        <ele>1416</ele>
        <time>2014-08-24T12:37:02.000Z</time>
      </trkpt>
      <trkpt lat="46.06983" lon="6.64215">
        <ele>1417</ele>
        <time>2014-08-24T12:37:14.000Z</time>
      </trkpt>
      <trkpt lat="46.06974" lon="6.6423">
        <ele>1418</ele>
        <time>2014-08-24T12:37:20.000Z</time>
      </trkpt>
      <trkpt lat="46.06968" lon="6.6425">
        <ele>1419</ele>
        <time>2014-08-24T12:37:26.000Z</time>
      </trkpt>
      <trkpt lat="46.0696" lon="6.64265">
        <ele>1420</ele>
        <time>2014-08-24T12:37:32.000Z</time>
      </trkpt>
      <trkpt lat="46.06952" lon="6.64284">
        <ele>1420</ele>
        <time>2014-08-24T12:37:38.000Z</time>
      </trkpt>
      <trkpt lat="46.06945" lon="6.64303">
        <ele>1421</ele>
        <time>2014-08-24T12:37:44.000Z</time>
      </trkpt>
      <trkpt lat="46.06939" lon="6.64322">
        <ele>1422</ele>
        <time>2014-08-24T12:37:50.000Z</time>
      </trkpt>
      <trkpt lat="46.06932" lon="6.6434">
        <ele>1422</ele>
        <time>2014-08-24T12:37:56.000Z</time>
      </trkpt>
      <trkpt lat="46.06926" lon="6.64356">
        <ele>1423</ele>
        <time>2014-08-24T12:38:02.000Z</time>
      </trkpt>
      <trkpt lat="46.0692" lon="6.64372">
        <ele>1424</ele>
        <time>2014-08-24T12:38:08.000Z</time>
      </trkpt>
      <trkpt lat="46.06906" lon="6.64388">
        <ele>1425</ele>
        <time>2014-08-24T12:38:14.000Z</time>
      </trkpt>
      <trkpt lat="46.06895" lon="6.64407">
        <ele>1425</ele>
        <time>2014-08-24T12:38:20.000Z</time>
      </trkpt>
      <trkpt lat="46.06886" lon="6.64426">
        <ele>1425</ele>
        <time>2014-08-24T12:38:26.000Z</time>
      </trkpt>
      <trkpt lat="46.06874" lon="6.64443">
        <ele>1424</ele>
        <time>2014-08-24T12:38:32.000Z</time>
      </trkpt>
      <trkpt lat="46.06865" lon="6.64461">
        <ele>1424</ele>
        <time>2014-08-24T12:38:38.000Z</time>
      </trkpt>
      <trkpt lat="46.0686" lon="6.6447">
        <ele>1424</ele>
        <time>2014-08-24T12:38:44.000Z</time>
      </trkpt>
      <trkpt lat="46.06854" lon="6.6448">
        <ele>1423</ele>
        <time>2014-08-24T12:38:47.000Z</time>
      </trkpt>
      <trkpt lat="46.06848" lon="6.64489">
        <ele>1423</ele>
        <time>2014-08-24T12:38:50.000Z</time>
      </trkpt>
      <trkpt lat="46.06842" lon="6.64498">
        <ele>1423</ele>
        <time>2014-08-24T12:38:53.000Z</time>
      </trkpt>
      <trkpt lat="46.06837" lon="6.64506">
        <ele>1423</ele>
        <time>2014-08-24T12:38:56.000Z</time>
      </trkpt>
      <trkpt lat="46.06827" lon="6.64521">
        <ele>1424</ele>
        <time>2014-08-24T12:38:59.000Z</time>
      </trkpt>
      <trkpt lat="46.06817" lon="6.64536">
        <ele>1424</ele>
        <time>2014-08-24T12:39:05.000Z</time>
      </trkpt>
      <trkpt lat="46.06808" lon="6.64549">
        <ele>1424</ele>
        <time>2014-08-24T12:39:11.000Z</time>
      </trkpt>
      <trkpt lat="46.06796" lon="6.64568">
        <ele>1423</ele>
        <time>2014-08-24T12:39:20.000Z</time>
      </trkpt>
      <trkpt lat="46.06784" lon="6.64586">
        <ele>1423</ele>
        <time>2014-08-24T12:39:29.000Z</time>
      </trkpt>
      <trkpt lat="46.06749" lon="6.64549">
        <ele>1423</ele>
        <time>2014-08-24T12:39:32.000Z</time>
      </trkpt>
      <trkpt lat="46.06738" lon="6.64556">
        <ele>1422</ele>
        <time>2014-08-24T12:39:38.000Z</time>
      </trkpt>
      <trkpt lat="46.06721" lon="6.64567">
        <ele>1422</ele>
        <time>2014-08-24T12:39:44.000Z</time>
      </trkpt>
      <trkpt lat="46.06706" lon="6.64575">
        <ele>1421</ele>
        <time>2014-08-24T12:39:50.000Z</time>
      </trkpt>
      <trkpt lat="46.06692" lon="6.64585">
        <ele>1421</ele>
        <time>2014-08-24T12:39:56.000Z</time>
      </trkpt>
      <trkpt lat="46.06678" lon="6.64598">
        <ele>1421</ele>
        <time>2014-08-24T12:40:02.000Z</time>
      </trkpt>
      <trkpt lat="46.06667" lon="6.6461">
        <ele>1421</ele>
        <time>2014-08-24T12:40:08.000Z</time>
      </trkpt>
      <trkpt lat="46.06655" lon="6.64623">
        <ele>1421</ele>
        <time>2014-08-24T12:40:14.000Z</time>
      </trkpt>
      <trkpt lat="46.06644" lon="6.64634">
        <ele>1422</ele>
        <time>2014-08-24T12:40:20.000Z</time>
      </trkpt>
      <trkpt lat="46.06631" lon="6.64647">
        <ele>1423</ele>
        <time>2014-08-24T12:40:29.000Z</time>
      </trkpt>
      <trkpt lat="46.06616" lon="6.64662">
        <ele>1425</ele>
        <time>2014-08-24T12:40:38.000Z</time>
      </trkpt>
      <trkpt lat="46.06594" lon="6.64636">
        <ele>1425</ele>
        <time>2014-08-24T12:40:41.000Z</time>
      </trkpt>
      <trkpt lat="46.0658" lon="6.64635">
        <ele>1424</ele>
        <time>2014-08-24T12:40:47.000Z</time>
      </trkpt>
      <trkpt lat="46.06565" lon="6.64633">
        <ele>1425</ele>
        <time>2014-08-24T12:40:56.000Z</time>
      </trkpt>
      <trkpt lat="46.06552" lon="6.64625">
        <ele>1425</ele>
        <time>2014-08-24T12:41:02.000Z</time>
      </trkpt>
      <trkpt lat="46.06536" lon="6.64623">
        <ele>1424</ele>
        <time>2014-08-24T12:41:11.000Z</time>
      </trkpt>
      <trkpt lat="46.06522" lon="6.6462">
        <ele>1425</ele>
        <time>2014-08-24T12:41:17.000Z</time>
      </trkpt>
      <trkpt lat="46.06506" lon="6.64617">
        <ele>1427</ele>
        <time>2014-08-24T12:41:23.000Z</time>
      </trkpt>
      <trkpt lat="46.0649" lon="6.64613">
        <ele>1430</ele>
        <time>2014-08-24T12:41:32.000Z</time>
      </trkpt>
      <trkpt lat="46.06473" lon="6.64628">
        <ele>1431</ele>
        <time>2014-08-24T12:41:38.000Z</time>
      </trkpt>
      <trkpt lat="46.06466" lon="6.64632">
        <ele>1432</ele>
        <time>2014-08-24T12:41:44.000Z</time>
      </trkpt>
      <trkpt lat="46.0646" lon="6.64636">
        <ele>1432</ele>
        <time>2014-08-24T12:41:47.000Z</time>
      </trkpt>
      <trkpt lat="46.06454" lon="6.6464">
        <ele>1433</ele>
        <time>2014-08-24T12:41:50.000Z</time>
      </trkpt>
      <trkpt lat="46.06448" lon="6.64643">
        <ele>1433</ele>
        <time>2014-08-24T12:41:53.000Z</time>
      </trkpt>
      <trkpt lat="46.06441" lon="6.64645">
        <ele>1434</ele>
        <time>2014-08-24T12:41:56.000Z</time>
      </trkpt>
      <trkpt lat="46.06427" lon="6.64648">
        <ele>1434</ele>
        <time>2014-08-24T12:41:59.000Z</time>
      </trkpt>
      <trkpt lat="46.06414" lon="6.64653">
        <ele>1436</ele>
        <time>2014-08-24T12:42:05.000Z</time>
      </trkpt>
      <trkpt lat="46.06401" lon="6.64663">
        <ele>1436</ele>
        <time>2014-08-24T12:42:11.000Z</time>
      </trkpt>
      <trkpt lat="46.06389" lon="6.64678">
        <ele>1437</ele>
        <time>2014-08-24T12:42:17.000Z</time>
      </trkpt>
      <trkpt lat="46.06377" lon="6.64688">
        <ele>1437</ele>
        <time>2014-08-24T12:42:23.000Z</time>
      </trkpt>
      <trkpt lat="46.06365" lon="6.647">
        <ele>1437</ele>
        <time>2014-08-24T12:42:29.000Z</time>
      </trkpt>
      <trkpt lat="46.06353" lon="6.6471">
        <ele>1437</ele>
        <time>2014-08-24T12:42:35.000Z</time>
      </trkpt>
      <trkpt lat="46.06336" lon="6.64717">
        <ele>1437</ele>
        <time>2014-08-24T12:42:41.000Z</time>
      </trkpt>
      <trkpt lat="46.06323" lon="6.64722">
        <ele>1437</ele>
        <time>2014-08-24T12:42:47.000Z</time>
      </trkpt>
      <trkpt lat="46.0631" lon="6.64727">
        <ele>1438</ele>
        <time>2014-08-24T12:42:53.000Z</time>
      </trkpt>
      <trkpt lat="46.06298" lon="6.64747">
        <ele>1439</ele>
        <time>2014-08-24T12:42:59.000Z</time>
      </trkpt>
      <trkpt lat="46.06287" lon="6.64766">
        <ele>1440</ele>
        <time>2014-08-24T12:43:05.000Z</time>
      </trkpt>
      <trkpt lat="46.06276" lon="6.64778">
        <ele>1441</ele>
        <time>2014-08-24T12:43:11.000Z</time>
      </trkpt>
      <trkpt lat="46.06265" lon="6.64789">
        <ele>1441</ele>
        <time>2014-08-24T12:43:17.000Z</time>
      </trkpt>
      <trkpt lat="46.0625" lon="6.64804">
        <ele>1442</ele>
        <time>2014-08-24T12:43:26.000Z</time>
      </trkpt>
      <trkpt lat="46.06234" lon="6.64811">
        <ele>1443</ele>
        <time>2014-08-24T12:43:32.000Z</time>
      </trkpt>
      <trkpt lat="46.06223" lon="6.64819">
        <ele>1444</ele>
        <time>2014-08-24T12:43:38.000Z</time>
      </trkpt>
      <trkpt lat="46.06208" lon="6.64825">
        <ele>1444</ele>
        <time>2014-08-24T12:43:44.000Z</time>
      </trkpt>
      <trkpt lat="46.06195" lon="6.64829">
        <ele>1444</ele>
        <time>2014-08-24T12:43:50.000Z</time>
      </trkpt>
      <trkpt lat="46.06183" lon="6.64834">
        <ele>1445</ele>
        <time>2014-08-24T12:43:56.000Z</time>
      </trkpt>
      <trkpt lat="46.06169" lon="6.64847">
        <ele>1446</ele>
        <time>2014-08-24T12:44:02.000Z</time>
      </trkpt>
      <trkpt lat="46.06157" lon="6.6486">
        <ele>1447</ele>
        <time>2014-08-24T12:44:08.000Z</time>
      </trkpt>
      <trkpt lat="46.06145" lon="6.64874">
        <ele>1448</ele>
        <time>2014-08-24T12:44:17.000Z</time>
      </trkpt>
      <trkpt lat="46.0613" lon="6.64873">
        <ele>1448</ele>
        <time>2014-08-24T12:44:23.000Z</time>
      </trkpt>
      <trkpt lat="46.06111" lon="6.64882">
        <ele>1449</ele>
        <time>2014-08-24T12:44:32.000Z</time>
      </trkpt>
      <trkpt lat="46.06094" lon="6.64881">
        <ele>1450</ele>
        <time>2014-08-24T12:44:38.000Z</time>
      </trkpt>
      <trkpt lat="46.06076" lon="6.64876">
        <ele>1450</ele>
        <time>2014-08-24T12:44:44.000Z</time>
      </trkpt>
      <trkpt lat="46.0607" lon="6.64874">
        <ele>1450</ele>
        <time>2014-08-24T12:44:50.000Z</time>
      </trkpt>
      <trkpt lat="46.06063" lon="6.64872">
        <ele>1451</ele>
        <time>2014-08-24T12:44:53.000Z</time>
      </trkpt>
      <trkpt lat="46.06054" lon="6.6487">
        <ele>1451</ele>
        <time>2014-08-24T12:44:59.000Z</time>
      </trkpt>
      <trkpt lat="46.06047" lon="6.64868">
        <ele>1451</ele>
        <time>2014-08-24T12:45:02.000Z</time>
      </trkpt>
      <trkpt lat="46.06039" lon="6.64883">
        <ele>1452</ele>
        <time>2014-08-24T12:45:05.000Z</time>
      </trkpt>
      <trkpt lat="46.06031" lon="6.64893">
        <ele>1452</ele>
        <time>2014-08-24T12:45:08.000Z</time>
      </trkpt>
      <trkpt lat="46.06025" lon="6.64901">
        <ele>1452</ele>
        <time>2014-08-24T12:45:11.000Z</time>
      </trkpt>
      <trkpt lat="46.06015" lon="6.64914">
        <ele>1452</ele>
        <time>2014-08-24T12:45:14.000Z</time>
      </trkpt>
      <trkpt lat="46.06003" lon="6.6493">
        <ele>1451</ele>
        <time>2014-08-24T12:45:23.000Z</time>
      </trkpt>
      <trkpt lat="46.0597" lon="6.64918">
        <ele>1451</ele>
        <time>2014-08-24T12:45:32.000Z</time>
      </trkpt>
      <trkpt lat="46.05931" lon="6.64924">
        <ele>1451</ele>
        <time>2014-08-24T12:45:50.000Z</time>
      </trkpt>
      <trkpt lat="46.05917" lon="6.64927">
        <ele>1452</ele>
        <time>2014-08-24T12:45:56.000Z</time>
      </trkpt>
      <trkpt lat="46.05898" lon="6.64933">
        <ele>1453</ele>
        <time>2014-08-24T12:46:05.000Z</time>
      </trkpt>
      <trkpt lat="46.05882" lon="6.64939">
        <ele>1453</ele>
        <time>2014-08-24T12:46:11.000Z</time>
      </trkpt>
      <trkpt lat="46.05868" lon="6.64945">
        <ele>1453</ele>
        <time>2014-08-24T12:46:17.000Z</time>
      </trkpt>
      <trkpt lat="46.05852" lon="6.64951">
        <ele>1452</ele>
        <time>2014-08-24T12:46:26.000Z</time>
      </trkpt>
      <trkpt lat="46.05836" lon="6.64957">
        <ele>1452</ele>
        <time>2014-08-24T12:46:35.000Z</time>
      </trkpt>
      <trkpt lat="46.05819" lon="6.64963">
        <ele>1452</ele>
        <time>2014-08-24T12:46:44.000Z</time>
      </trkpt>
      <trkpt lat="46.05806" lon="6.64968">
        <ele>1453</ele>
        <time>2014-08-24T12:46:50.000Z</time>
      </trkpt>
      <trkpt lat="46.0579" lon="6.6497">
        <ele>1453</ele>
        <time>2014-08-24T12:46:56.000Z</time>
      </trkpt>
      <trkpt lat="46.05772" lon="6.64977">
        <ele>1454</ele>
        <time>2014-08-24T12:47:02.000Z</time>
      </trkpt>
      <trkpt lat="46.05755" lon="6.64984">
        <ele>1456</ele>
        <time>2014-08-24T12:47:11.000Z</time>
      </trkpt>
      <trkpt lat="46.05747" lon="6.65002">
        <ele>1457</ele>
        <time>2014-08-24T12:47:17.000Z</time>
      </trkpt>
      <trkpt lat="46.05736" lon="6.65012">
        <ele>1458</ele>
        <time>2014-08-24T12:47:23.000Z</time>
      </trkpt>
      <trkpt lat="46.05726" lon="6.65024">
        <ele>1457</ele>
        <time>2014-08-24T12:47:29.000Z</time>
      </trkpt>
      <trkpt lat="46.05716" lon="6.65036">
        <ele>1457</ele>
        <time>2014-08-24T12:47:35.000Z</time>
      </trkpt>
      <trkpt lat="46.05709" lon="6.65039">
        <ele>1458</ele>
        <time>2014-08-24T12:47:41.000Z</time>
      </trkpt>
      <trkpt lat="46.05703" lon="6.65042">
        <ele>1458</ele>
        <time>2014-08-24T12:47:44.000Z</time>
      </trkpt>
      <trkpt lat="46.05697" lon="6.65046">
        <ele>1458</ele>
        <time>2014-08-24T12:47:47.000Z</time>
      </trkpt>
      <trkpt lat="46.05691" lon="6.6505">
        <ele>1459</ele>
        <time>2014-08-24T12:47:50.000Z</time>
      </trkpt>
      <trkpt lat="46.05685" lon="6.65054">
        <ele>1459</ele>
        <time>2014-08-24T12:47:53.000Z</time>
      </trkpt>
      <trkpt lat="46.05674" lon="6.65061">
        <ele>1459</ele>
        <time>2014-08-24T12:47:56.000Z</time>
      </trkpt>
      <trkpt lat="46.05661" lon="6.65069">
        <ele>1460</ele>
        <time>2014-08-24T12:48:02.000Z</time>
      </trkpt>
      <trkpt lat="46.0566" lon="6.65091">
        <ele>1461</ele>
        <time>2014-08-24T12:48:05.000Z</time>
      </trkpt>
      <trkpt lat="46.05647" lon="6.65103">
        <ele>1461</ele>
        <time>2014-08-24T12:48:11.000Z</time>
      </trkpt>
      <trkpt lat="46.05635" lon="6.65115">
        <ele>1462</ele>
        <time>2014-08-24T12:48:17.000Z</time>
      </trkpt>
      <trkpt lat="46.05622" lon="6.65128">
        <ele>1463</ele>
        <time>2014-08-24T12:48:23.000Z</time>
      </trkpt>
      <trkpt lat="46.05602" lon="6.65129">
        <ele>1463</ele>
        <time>2014-08-24T12:48:29.000Z</time>
      </trkpt>
      <trkpt lat="46.05589" lon="6.65142">
        <ele>1462</ele>
        <time>2014-08-24T12:48:35.000Z</time>
      </trkpt>
      <trkpt lat="46.05576" lon="6.65151">
        <ele>1462</ele>
        <time>2014-08-24T12:48:41.000Z</time>
      </trkpt>
      <trkpt lat="46.05561" lon="6.65164">
        <ele>1462</ele>
        <time>2014-08-24T12:48:47.000Z</time>
      </trkpt>
      <trkpt lat="46.05549" lon="6.65174">
        <ele>1462</ele>
        <time>2014-08-24T12:48:53.000Z</time>
      </trkpt>
      <trkpt lat="46.05536" lon="6.65185">
        <ele>1461</ele>
        <time>2014-08-24T12:48:59.000Z</time>
      </trkpt>
      <trkpt lat="46.05522" lon="6.65194">
        <ele>1460</ele>
        <time>2014-08-24T12:49:05.000Z</time>
      </trkpt>
      <trkpt lat="46.05508" lon="6.65204">
        <ele>1459</ele>
        <time>2014-08-24T12:49:11.000Z</time>
      </trkpt>
      <trkpt lat="46.05498" lon="6.65213">
        <ele>1458</ele>
        <time>2014-08-24T12:49:17.000Z</time>
      </trkpt>
      <trkpt lat="46.05486" lon="6.65223">
        <ele>1457</ele>
        <time>2014-08-24T12:49:23.000Z</time>
      </trkpt>
      <trkpt lat="46.05473" lon="6.65233">
        <ele>1456</ele>
        <time>2014-08-24T12:49:29.000Z</time>
      </trkpt>
      <trkpt lat="46.0546" lon="6.65245">
        <ele>1456</ele>
        <time>2014-08-24T12:49:35.000Z</time>
      </trkpt>
      <trkpt lat="46.05449" lon="6.65255">
        <ele>1455</ele>
        <time>2014-08-24T12:49:41.000Z</time>
      </trkpt>
      <trkpt lat="46.05434" lon="6.65271">
        <ele>1454</ele>
        <time>2014-08-24T12:49:50.000Z</time>
      </trkpt>
      <trkpt lat="46.05423" lon="6.65282">
        <ele>1453</ele>
        <time>2014-08-24T12:49:56.000Z</time>
      </trkpt>
      <trkpt lat="46.05411" lon="6.65291">
        <ele>1452</ele>
        <time>2014-08-24T12:50:02.000Z</time>
      </trkpt>
      <trkpt lat="46.05399" lon="6.65303">
        <ele>1452</ele>
        <time>2014-08-24T12:50:08.000Z</time>
      </trkpt>
      <trkpt lat="46.05389" lon="6.65316">
        <ele>1452</ele>
        <time>2014-08-24T12:50:14.000Z</time>
      </trkpt>
      <trkpt lat="46.05378" lon="6.6533">
        <ele>1451</ele>
        <time>2014-08-24T12:50:20.000Z</time>
      </trkpt>
      <trkpt lat="46.05369" lon="6.65342">
        <ele>1452</ele>
        <time>2014-08-24T12:50:26.000Z</time>
      </trkpt>
      <trkpt lat="46.05359" lon="6.65357">
        <ele>1452</ele>
        <time>2014-08-24T12:50:32.000Z</time>
      </trkpt>
      <trkpt lat="46.0535" lon="6.6537">
        <ele>1452</ele>
        <time>2014-08-24T12:50:38.000Z</time>
      </trkpt>
      <trkpt lat="46.05339" lon="6.65387">
        <ele>1453</ele>
        <time>2014-08-24T12:50:47.000Z</time>
      </trkpt>
      <trkpt lat="46.05333" lon="6.65395">
        <ele>1454</ele>
        <time>2014-08-24T12:50:59.000Z</time>
      </trkpt>
      <trkpt lat="46.05328" lon="6.65404">
        <ele>1455</ele>
        <time>2014-08-24T12:51:05.000Z</time>
      </trkpt>
      <trkpt lat="46.0533" lon="6.6542">
        <ele>1455</ele>
        <time>2014-08-24T12:51:08.000Z</time>
      </trkpt>
      <trkpt lat="46.05331" lon="6.65431">
        <ele>1456</ele>
        <time>2014-08-24T12:51:11.000Z</time>
      </trkpt>
      <trkpt lat="46.05331" lon="6.65441">
        <ele>1456</ele>
        <time>2014-08-24T12:51:17.000Z</time>
      </trkpt>
      <trkpt lat="46.05332" lon="6.65452">
        <ele>1458</ele>
        <time>2014-08-24T12:51:29.000Z</time>
      </trkpt>
      <trkpt lat="46.0532" lon="6.6546">
        <ele>1459</ele>
        <time>2014-08-24T12:51:35.000Z</time>
      </trkpt>
      <trkpt lat="46.05312" lon="6.65466">
        <ele>1459</ele>
        <time>2014-08-24T12:51:38.000Z</time>
      </trkpt>
      <trkpt lat="46.05305" lon="6.65472">
        <ele>1460</ele>
        <time>2014-08-24T12:51:44.000Z</time>
      </trkpt>
      <trkpt lat="46.05299" lon="6.65478">
        <ele>1461</ele>
        <time>2014-08-24T12:51:50.000Z</time>
      </trkpt>
      <trkpt lat="46.05294" lon="6.65483">
        <ele>1461</ele>
        <time>2014-08-24T12:51:53.000Z</time>
      </trkpt>
      <trkpt lat="46.05289" lon="6.65491">
        <ele>1464</ele>
        <time>2014-08-24T12:52:02.000Z</time>
      </trkpt>
      <trkpt lat="46.05284" lon="6.65498">
        <ele>1466</ele>
        <time>2014-08-24T12:52:08.000Z</time>
      </trkpt>
      <trkpt lat="46.0528" lon="6.65504">
        <ele>1468</ele>
        <time>2014-08-24T12:52:14.000Z</time>
      </trkpt>
      <trkpt lat="46.05275" lon="6.65511">
        <ele>1470</ele>
        <time>2014-08-24T12:52:23.000Z</time>
      </trkpt>
      <trkpt lat="46.05273" lon="6.65522">
        <ele>1471</ele>
        <time>2014-08-24T12:52:29.000Z</time>
      </trkpt>
      <trkpt lat="46.0527" lon="6.65536">
        <ele>1474</ele>
        <time>2014-08-24T12:52:41.000Z</time>
      </trkpt>
      <trkpt lat="46.05267" lon="6.65546">
        <ele>1475</ele>
        <time>2014-08-24T12:52:44.000Z</time>
      </trkpt>
      <trkpt lat="46.05267" lon="6.65556">
        <ele>1478</ele>
        <time>2014-08-24T12:52:53.000Z</time>
      </trkpt>
      <trkpt lat="46.05267" lon="6.65566">
        <ele>1480</ele>
        <time>2014-08-24T12:52:59.000Z</time>
      </trkpt>
      <trkpt lat="46.05265" lon="6.65577">
        <ele>1481</ele>
        <time>2014-08-24T12:53:05.000Z</time>
      </trkpt>
      <trkpt lat="46.05264" lon="6.65586">
        <ele>1483</ele>
        <time>2014-08-24T12:53:11.000Z</time>
      </trkpt>
      <trkpt lat="46.05261" lon="6.65597">
        <ele>1486</ele>
        <time>2014-08-24T12:53:20.000Z</time>
      </trkpt>
      <trkpt lat="46.05257" lon="6.65607">
        <ele>1488</ele>
        <time>2014-08-24T12:53:26.000Z</time>
      </trkpt>
      <trkpt lat="46.05254" lon="6.65615">
        <ele>1489</ele>
        <time>2014-08-24T12:53:29.000Z</time>
      </trkpt>
      <trkpt lat="46.05251" lon="6.65623">
        <ele>1492</ele>
        <time>2014-08-24T12:53:35.000Z</time>
      </trkpt>
      <trkpt lat="46.05247" lon="6.65631">
        <ele>1494</ele>
        <time>2014-08-24T12:53:41.000Z</time>
      </trkpt>
      <trkpt lat="46.05242" lon="6.65639">
        <ele>1497</ele>
        <time>2014-08-24T12:53:47.000Z</time>
      </trkpt>
      <trkpt lat="46.05238" lon="6.65648">
        <ele>1500</ele>
        <time>2014-08-24T12:53:53.000Z</time>
      </trkpt>
      <trkpt lat="46.05234" lon="6.65657">
        <ele>1502</ele>
        <time>2014-08-24T12:53:59.000Z</time>
      </trkpt>
      <trkpt lat="46.0523" lon="6.65667">
        <ele>1504</ele>
        <time>2014-08-24T12:54:05.000Z</time>
      </trkpt>
      <trkpt lat="46.05227" lon="6.65676">
        <ele>1506</ele>
        <time>2014-08-24T12:54:11.000Z</time>
      </trkpt>
      <trkpt lat="46.05224" lon="6.65686">
        <ele>1507</ele>
        <time>2014-08-24T12:54:17.000Z</time>
      </trkpt>
      <trkpt lat="46.05221" lon="6.65696">
        <ele>1509</ele>
        <time>2014-08-24T12:54:23.000Z</time>
      </trkpt>
      <trkpt lat="46.05218" lon="6.65705">
        <ele>1510</ele>
        <time>2014-08-24T12:54:29.000Z</time>
      </trkpt>
      <trkpt lat="46.05215" lon="6.65713">
        <ele>1511</ele>
        <time>2014-08-24T12:54:32.000Z</time>
      </trkpt>
      <trkpt lat="46.05211" lon="6.65722">
        <ele>1513</ele>
        <time>2014-08-24T12:54:38.000Z</time>
      </trkpt>
      <trkpt lat="46.05207" lon="6.6573">
        <ele>1516</ele>
        <time>2014-08-24T12:54:44.000Z</time>
      </trkpt>
      <trkpt lat="46.05203" lon="6.65739">
        <ele>1517</ele>
        <time>2014-08-24T12:54:50.000Z</time>
      </trkpt>
      <trkpt lat="46.05199" lon="6.65748">
        <ele>1518</ele>
        <time>2014-08-24T12:54:56.000Z</time>
      </trkpt>
      <trkpt lat="46.05203" lon="6.65761">
        <ele>1518</ele>
        <time>2014-08-24T12:54:59.000Z</time>
      </trkpt>
      <trkpt lat="46.05201" lon="6.6578">
        <ele>1519</ele>
        <time>2014-08-24T12:55:14.000Z</time>
      </trkpt>
      <trkpt lat="46.052" lon="6.65792">
        <ele>1519</ele>
        <time>2014-08-24T12:55:17.000Z</time>
      </trkpt>
      <trkpt lat="46.05197" lon="6.65802">
        <ele>1520</ele>
        <time>2014-08-24T12:55:23.000Z</time>
      </trkpt>
      <trkpt lat="46.05194" lon="6.65812">
        <ele>1521</ele>
        <time>2014-08-24T12:55:29.000Z</time>
      </trkpt>
      <trkpt lat="46.05191" lon="6.65825">
        <ele>1522</ele>
        <time>2014-08-24T12:55:35.000Z</time>
      </trkpt>
      <trkpt lat="46.0519" lon="6.65836">
        <ele>1523</ele>
        <time>2014-08-24T12:55:38.000Z</time>
      </trkpt>
      <trkpt lat="46.05186" lon="6.65845">
        <ele>1524</ele>
        <time>2014-08-24T12:55:44.000Z</time>
      </trkpt>
      <trkpt lat="46.05183" lon="6.65855">
        <ele>1527</ele>
        <time>2014-08-24T12:55:53.000Z</time>
      </trkpt>
      <trkpt lat="46.05178" lon="6.65865">
        <ele>1529</ele>
        <time>2014-08-24T12:55:59.000Z</time>
      </trkpt>
      <trkpt lat="46.05175" lon="6.65873">
        <ele>1531</ele>
        <time>2014-08-24T12:56:05.000Z</time>
      </trkpt>
      <trkpt lat="46.05174" lon="6.65883">
        <ele>1533</ele>
        <time>2014-08-24T12:56:11.000Z</time>
      </trkpt>
      <trkpt lat="46.05173" lon="6.65894">
        <ele>1535</ele>
        <time>2014-08-24T12:56:17.000Z</time>
      </trkpt>
      <trkpt lat="46.05171" lon="6.65905">
        <ele>1536</ele>
        <time>2014-08-24T12:56:23.000Z</time>
      </trkpt>
      <trkpt lat="46.0517" lon="6.65915">
        <ele>1536</ele>
        <time>2014-08-24T12:56:26.000Z</time>
      </trkpt>
      <trkpt lat="46.05167" lon="6.65927">
        <ele>1537</ele>
        <time>2014-08-24T12:56:32.000Z</time>
      </trkpt>
      <trkpt lat="46.05165" lon="6.65937">
        <ele>1537</ele>
        <time>2014-08-24T12:56:35.000Z</time>
      </trkpt>
      <trkpt lat="46.05162" lon="6.65948">
        <ele>1537</ele>
        <time>2014-08-24T12:56:41.000Z</time>
      </trkpt>
      <trkpt lat="46.05159" lon="6.65959">
        <ele>1538</ele>
        <time>2014-08-24T12:56:47.000Z</time>
      </trkpt>
      <trkpt lat="46.05156" lon="6.65969">
        <ele>1538</ele>
        <time>2014-08-24T12:56:53.000Z</time>
      </trkpt>
      <trkpt lat="46.05151" lon="6.65979">
        <ele>1539</ele>
        <time>2014-08-24T12:56:59.000Z</time>
      </trkpt>
      <trkpt lat="46.05148" lon="6.65986">
        <ele>1539</ele>
        <time>2014-08-24T12:57:02.000Z</time>
      </trkpt>
      <trkpt lat="46.05143" lon="6.65994">
        <ele>1540</ele>
        <time>2014-08-24T12:57:08.000Z</time>
      </trkpt>
      <trkpt lat="46.05138" lon="6.66001">
        <ele>1542</ele>
        <time>2014-08-24T12:57:14.000Z</time>
      </trkpt>
      <trkpt lat="46.05131" lon="6.66008">
        <ele>1543</ele>
        <time>2014-08-24T12:57:20.000Z</time>
      </trkpt>
      <trkpt lat="46.05126" lon="6.66016">
        <ele>1544</ele>
        <time>2014-08-24T12:57:26.000Z</time>
      </trkpt>
      <trkpt lat="46.05122" lon="6.66024">
        <ele>1545</ele>
        <time>2014-08-24T12:57:32.000Z</time>
      </trkpt>
      <trkpt lat="46.05118" lon="6.66034">
        <ele>1545</ele>
        <time>2014-08-24T12:57:38.000Z</time>
      </trkpt>
      <trkpt lat="46.05116" lon="6.66042">
        <ele>1546</ele>
        <time>2014-08-24T12:57:41.000Z</time>
      </trkpt>
      <trkpt lat="46.05111" lon="6.66053">
        <ele>1547</ele>
        <time>2014-08-24T12:57:47.000Z</time>
      </trkpt>
      <trkpt lat="46.05106" lon="6.66061">
        <ele>1548</ele>
        <time>2014-08-24T12:57:50.000Z</time>
      </trkpt>
      <trkpt lat="46.05099" lon="6.66069">
        <ele>1548</ele>
        <time>2014-08-24T12:57:53.000Z</time>
      </trkpt>
      <trkpt lat="46.05093" lon="6.66075">
        <ele>1549</ele>
        <time>2014-08-24T12:57:56.000Z</time>
      </trkpt>
      <trkpt lat="46.05087" lon="6.6608">
        <ele>1549</ele>
        <time>2014-08-24T12:57:59.000Z</time>
      </trkpt>
      <trkpt lat="46.05074" lon="6.6609">
        <ele>1550</ele>
        <time>2014-08-24T12:58:05.000Z</time>
      </trkpt>
      <trkpt lat="46.05053" lon="6.66078">
        <ele>1551</ele>
        <time>2014-08-24T12:58:14.000Z</time>
      </trkpt>
      <trkpt lat="46.05034" lon="6.66071">
        <ele>1553</ele>
        <time>2014-08-24T12:58:23.000Z</time>
      </trkpt>
      <trkpt lat="46.0502" lon="6.66064">
        <ele>1553</ele>
        <time>2014-08-24T12:58:29.000Z</time>
      </trkpt>
      <trkpt lat="46.05006" lon="6.66058">
        <ele>1553</ele>
        <time>2014-08-24T12:58:38.000Z</time>
      </trkpt>
      <trkpt lat="46.04992" lon="6.66051">
        <ele>1554</ele>
        <time>2014-08-24T12:58:47.000Z</time>
      </trkpt>
      <trkpt lat="46.04977" lon="6.66076">
        <ele>1555</ele>
        <time>2014-08-24T12:58:53.000Z</time>
      </trkpt>
      <trkpt lat="46.04966" lon="6.66084">
        <ele>1556</ele>
        <time>2014-08-24T12:59:02.000Z</time>
      </trkpt>
      <trkpt lat="46.04952" lon="6.66098">
        <ele>1559</ele>
        <time>2014-08-24T12:59:11.000Z</time>
      </trkpt>
      <trkpt lat="46.04945" lon="6.66112">
        <ele>1561</ele>
        <time>2014-08-24T12:59:17.000Z</time>
      </trkpt>
      <trkpt lat="46.04937" lon="6.66096">
        <ele>1564</ele>
        <time>2014-08-24T12:59:29.000Z</time>
      </trkpt>
      <trkpt lat="46.04952" lon="6.66028">
        <ele>1573</ele>
        <time>2014-08-24T12:59:59.000Z</time>
      </trkpt>
      <trkpt lat="46.04956" lon="6.66018">
        <ele>1577</ele>
        <time>2014-08-24T13:00:08.000Z</time>
      </trkpt>
      <trkpt lat="46.04959" lon="6.66009">
        <ele>1578</ele>
        <time>2014-08-24T13:00:11.000Z</time>
      </trkpt>
      <trkpt lat="46.04963" lon="6.66001">
        <ele>1579</ele>
        <time>2014-08-24T13:00:17.000Z</time>
      </trkpt>
      <trkpt lat="46.04957" lon="6.65994">
        <ele>1580</ele>
        <time>2014-08-24T13:00:26.000Z</time>
      </trkpt>
      <trkpt lat="46.04952" lon="6.65988">
        <ele>1581</ele>
        <time>2014-08-24T13:00:35.000Z</time>
      </trkpt>
      <trkpt lat="46.04942" lon="6.65993">
        <ele>1581</ele>
        <time>2014-08-24T13:00:38.000Z</time>
      </trkpt>
      <trkpt lat="46.04935" lon="6.65998">
        <ele>1581</ele>
        <time>2014-08-24T13:00:41.000Z</time>
      </trkpt>
      <trkpt lat="46.04929" lon="6.66004">
        <ele>1581</ele>
        <time>2014-08-24T13:00:44.000Z</time>
      </trkpt>
      <trkpt lat="46.04923" lon="6.6601">
        <ele>1582</ele>
        <time>2014-08-24T13:00:47.000Z</time>
      </trkpt>
      <trkpt lat="46.04913" lon="6.66023">
        <ele>1583</ele>
        <time>2014-08-24T13:00:50.000Z</time>
      </trkpt>
      <trkpt lat="46.04904" lon="6.66035">
        <ele>1586</ele>
        <time>2014-08-24T13:00:56.000Z</time>
      </trkpt>
      <trkpt lat="46.04894" lon="6.66048">
        <ele>1590</ele>
        <time>2014-08-24T13:01:05.000Z</time>
      </trkpt>
      <trkpt lat="46.04886" lon="6.66067">
        <ele>1595</ele>
        <time>2014-08-24T13:01:14.000Z</time>
      </trkpt>
      <trkpt lat="46.04873" lon="6.66083">
        <ele>1598</ele>
        <time>2014-08-24T13:01:20.000Z</time>
      </trkpt>
      <trkpt lat="46.0486" lon="6.66099">
        <ele>1601</ele>
        <time>2014-08-24T13:01:29.000Z</time>
      </trkpt>
      <trkpt lat="46.04844" lon="6.66111">
        <ele>1604</ele>
        <time>2014-08-24T13:01:38.000Z</time>
      </trkpt>
      <trkpt lat="46.04831" lon="6.66126">
        <ele>1606</ele>
        <time>2014-08-24T13:01:47.000Z</time>
      </trkpt>
      <trkpt lat="46.04823" lon="6.66145">
        <ele>1608</ele>
        <time>2014-08-24T13:01:56.000Z</time>
      </trkpt>
      <trkpt lat="46.04816" lon="6.66166">
        <ele>1610</ele>
        <time>2014-08-24T13:02:04.000Z</time>
      </trkpt>
      <trkpt lat="46.04791" lon="6.66219">
        <ele>1616</ele>
        <time>2014-08-24T13:02:31.000Z</time>
      </trkpt>
      <trkpt lat="46.04779" lon="6.66235">
        <ele>1623</ele>
        <time>2014-08-24T13:02:55.000Z</time>
      </trkpt>
      <trkpt lat="46.04771" lon="6.66246">
        <ele>1624</ele>
        <time>2014-08-24T13:02:58.000Z</time>
      </trkpt>
      <trkpt lat="46.04765" lon="6.66253">
        <ele>1624</ele>
        <time>2014-08-24T13:03:01.000Z</time>
      </trkpt>
      <trkpt lat="46.04759" lon="6.6626">
        <ele>1626</ele>
        <time>2014-08-24T13:03:07.000Z</time>
      </trkpt>
      <trkpt lat="46.04755" lon="6.66268">
        <ele>1627</ele>
        <time>2014-08-24T13:03:10.000Z</time>
      </trkpt>
      <trkpt lat="46.04749" lon="6.66276">
        <ele>1630</ele>
        <time>2014-08-24T13:03:16.000Z</time>
      </trkpt>
      <trkpt lat="46.04742" lon="6.66284">
        <ele>1632</ele>
        <time>2014-08-24T13:03:22.000Z</time>
      </trkpt>
      <trkpt lat="46.04736" lon="6.6629">
        <ele>1633</ele>
        <time>2014-08-24T13:03:25.000Z</time>
      </trkpt>
      <trkpt lat="46.04729" lon="6.66297">
        <ele>1634</ele>
        <time>2014-08-24T13:03:31.000Z</time>
      </trkpt>
      <trkpt lat="46.04725" lon="6.66304">
        <ele>1635</ele>
        <time>2014-08-24T13:03:34.000Z</time>
      </trkpt>
      <trkpt lat="46.04718" lon="6.66311">
        <ele>1636</ele>
        <time>2014-08-24T13:03:40.000Z</time>
      </trkpt>
      <trkpt lat="46.04712" lon="6.66315">
        <ele>1637</ele>
        <time>2014-08-24T13:03:43.000Z</time>
      </trkpt>
      <trkpt lat="46.04705" lon="6.6632">
        <ele>1638</ele>
        <time>2014-08-24T13:03:49.000Z</time>
      </trkpt>
      <trkpt lat="46.04699" lon="6.66325">
        <ele>1638</ele>
        <time>2014-08-24T13:03:52.000Z</time>
      </trkpt>
      <trkpt lat="46.04692" lon="6.66329">
        <ele>1638</ele>
        <time>2014-08-24T13:03:55.000Z</time>
      </trkpt>
      <trkpt lat="46.04687" lon="6.66333">
        <ele>1639</ele>
        <time>2014-08-24T13:03:58.000Z</time>
      </trkpt>
      <trkpt lat="46.04678" lon="6.66336">
        <ele>1639</ele>
        <time>2014-08-24T13:04:04.000Z</time>
      </trkpt>
      <trkpt lat="46.04671" lon="6.66338">
        <ele>1639</ele>
        <time>2014-08-24T13:04:07.000Z</time>
      </trkpt>
      <trkpt lat="46.04665" lon="6.66339">
        <ele>1639</ele>
        <time>2014-08-24T13:04:10.000Z</time>
      </trkpt>
      <trkpt lat="46.04659" lon="6.66339">
        <ele>1639</ele>
        <time>2014-08-24T13:04:13.000Z</time>
      </trkpt>
      <trkpt lat="46.04649" lon="6.66337">
        <ele>1640</ele>
        <time>2014-08-24T13:04:19.000Z</time>
      </trkpt>
      <trkpt lat="46.04642" lon="6.66335">
        <ele>1640</ele>
        <time>2014-08-24T13:04:22.000Z</time>
      </trkpt>
      <trkpt lat="46.04636" lon="6.66334">
        <ele>1640</ele>
        <time>2014-08-24T13:04:25.000Z</time>
      </trkpt>
      <trkpt lat="46.04627" lon="6.66332">
        <ele>1640</ele>
        <time>2014-08-24T13:04:31.000Z</time>
      </trkpt>
      <trkpt lat="46.0462" lon="6.66331">
        <ele>1640</ele>
        <time>2014-08-24T13:04:34.000Z</time>
      </trkpt>
      <trkpt lat="46.04613" lon="6.66329">
        <ele>1640</ele>
        <time>2014-08-24T13:04:37.000Z</time>
      </trkpt>
      <trkpt lat="46.04607" lon="6.66326">
        <ele>1640</ele>
        <time>2014-08-24T13:04:40.000Z</time>
      </trkpt>
      <trkpt lat="46.04599" lon="6.66321">
        <ele>1641</ele>
        <time>2014-08-24T13:04:46.000Z</time>
      </trkpt>
      <trkpt lat="46.04592" lon="6.66317">
        <ele>1641</ele>
        <time>2014-08-24T13:04:49.000Z</time>
      </trkpt>
      <trkpt lat="46.04583" lon="6.66311">
        <ele>1641</ele>
        <time>2014-08-24T13:04:55.000Z</time>
      </trkpt>
      <trkpt lat="46.04576" lon="6.66306">
        <ele>1641</ele>
        <time>2014-08-24T13:04:58.000Z</time>
      </trkpt>
      <trkpt lat="46.04569" lon="6.66302">
        <ele>1641</ele>
        <time>2014-08-24T13:05:01.000Z</time>
      </trkpt>
      <trkpt lat="46.04562" lon="6.66298">
        <ele>1641</ele>
        <time>2014-08-24T13:05:04.000Z</time>
      </trkpt>
      <trkpt lat="46.04556" lon="6.66294">
        <ele>1641</ele>
        <time>2014-08-24T13:05:07.000Z</time>
      </trkpt>
      <trkpt lat="46.04542" lon="6.66286">
        <ele>1641</ele>
        <time>2014-08-24T13:05:10.000Z</time>
      </trkpt>
      <trkpt lat="46.04527" lon="6.66278">
        <ele>1641</ele>
        <time>2014-08-24T13:05:19.000Z</time>
      </trkpt>
      <trkpt lat="46.045" lon="6.66274">
        <ele>1643</ele>
        <time>2014-08-24T13:05:40.000Z</time>
      </trkpt>
      <trkpt lat="46.0448" lon="6.66274">
        <ele>1645</ele>
        <time>2014-08-24T13:05:58.000Z</time>
      </trkpt>
      <trkpt lat="46.04467" lon="6.66279">
        <ele>1647</ele>
        <time>2014-08-24T13:06:07.000Z</time>
      </trkpt>
      <trkpt lat="46.04454" lon="6.66284">
        <ele>1651</ele>
        <time>2014-08-24T13:06:16.000Z</time>
      </trkpt>
      <trkpt lat="46.04437" lon="6.66282">
        <ele>1657</ele>
        <time>2014-08-24T13:06:28.000Z</time>
      </trkpt>
      <trkpt lat="46.04424" lon="6.66277">
        <ele>1662</ele>
        <time>2014-08-24T13:06:40.000Z</time>
      </trkpt>
      <trkpt lat="46.04409" lon="6.6628">
        <ele>1668</ele>
        <time>2014-08-24T13:06:52.000Z</time>
      </trkpt>
      <trkpt lat="46.04393" lon="6.66281">
        <ele>1674</ele>
        <time>2014-08-24T13:07:04.000Z</time>
      </trkpt>
      <trkpt lat="46.04382" lon="6.66282">
        <ele>1686</ele>
        <time>2014-08-24T13:07:25.000Z</time>
      </trkpt>
      <trkpt lat="46.04373" lon="6.66282">
        <ele>1687</ele>
        <time>2014-08-24T13:07:28.000Z</time>
      </trkpt>
      <trkpt lat="46.04365" lon="6.66283">
        <ele>1690</ele>
        <time>2014-08-24T13:07:34.000Z</time>
      </trkpt>
      <trkpt lat="46.04358" lon="6.66283">
        <ele>1690</ele>
        <time>2014-08-24T13:07:37.000Z</time>
      </trkpt>
      <trkpt lat="46.04351" lon="6.66284">
        <ele>1691</ele>
        <time>2014-08-24T13:07:43.000Z</time>
      </trkpt>
      <trkpt lat="46.04344" lon="6.66284">
        <ele>1692</ele>
        <time>2014-08-24T13:07:49.000Z</time>
      </trkpt>
      <trkpt lat="46.04337" lon="6.66284">
        <ele>1693</ele>
        <time>2014-08-24T13:07:55.000Z</time>
      </trkpt>
      <trkpt lat="46.04329" lon="6.66286">
        <ele>1694</ele>
        <time>2014-08-24T13:08:01.000Z</time>
      </trkpt>
      <trkpt lat="46.04322" lon="6.66289">
        <ele>1695</ele>
        <time>2014-08-24T13:08:04.000Z</time>
      </trkpt>
      <trkpt lat="46.04314" lon="6.66291">
        <ele>1697</ele>
        <time>2014-08-24T13:08:10.000Z</time>
      </trkpt>
      <trkpt lat="46.04306" lon="6.66293">
        <ele>1699</ele>
        <time>2014-08-24T13:08:16.000Z</time>
      </trkpt>
      <trkpt lat="46.04286" lon="6.66295">
        <ele>1706</ele>
        <time>2014-08-24T13:08:37.000Z</time>
      </trkpt>
      <trkpt lat="46.04272" lon="6.66297">
        <ele>1708</ele>
        <time>2014-08-24T13:08:40.000Z</time>
      </trkpt>
      <trkpt lat="46.04263" lon="6.66298">
        <ele>1709</ele>
        <time>2014-08-24T13:08:43.000Z</time>
      </trkpt>
      <trkpt lat="46.04255" lon="6.663">
        <ele>1710</ele>
        <time>2014-08-24T13:08:46.000Z</time>
      </trkpt>
      <trkpt lat="46.04248" lon="6.66303">
        <ele>1710</ele>
        <time>2014-08-24T13:08:49.000Z</time>
      </trkpt>
      <trkpt lat="46.04231" lon="6.66308">
        <ele>1712</ele>
        <time>2014-08-24T13:08:55.000Z</time>
      </trkpt>
      <trkpt lat="46.04212" lon="6.66319">
        <ele>1716</ele>
        <time>2014-08-24T13:09:13.000Z</time>
      </trkpt>
      <trkpt lat="46.042" lon="6.66329">
        <ele>1717</ele>
        <time>2014-08-24T13:09:22.000Z</time>
      </trkpt>
      <trkpt lat="46.04178" lon="6.66355">
        <ele>1718</ele>
        <time>2014-08-24T13:09:46.000Z</time>
      </trkpt>
      <trkpt lat="46.04171" lon="6.66372">
        <ele>1718</ele>
        <time>2014-08-24T13:09:58.000Z</time>
      </trkpt>
      <trkpt lat="46.04163" lon="6.66388">
        <ele>1719</ele>
        <time>2014-08-24T13:10:10.000Z</time>
      </trkpt>
      <trkpt lat="46.04155" lon="6.66406">
        <ele>1719</ele>
        <time>2014-08-24T13:10:22.000Z</time>
      </trkpt>
      <trkpt lat="46.0416" lon="6.66425">
        <ele>1720</ele>
        <time>2014-08-24T13:10:40.000Z</time>
      </trkpt>
      <trkpt lat="46.04155" lon="6.66417">
        <ele>1721</ele>
        <time>2014-08-24T13:10:58.000Z</time>
      </trkpt>
      <trkpt lat="46.04152" lon="6.66408">
        <ele>1722</ele>
        <time>2014-08-24T13:11:01.000Z</time>
      </trkpt>
      <trkpt lat="46.04146" lon="6.66399">
        <ele>1721</ele>
        <time>2014-08-24T13:11:10.000Z</time>
      </trkpt>
      <trkpt lat="46.0414" lon="6.66392">
        <ele>1721</ele>
        <time>2014-08-24T13:11:13.000Z</time>
      </trkpt>
      <trkpt lat="46.04135" lon="6.66385">
        <ele>1720</ele>
        <time>2014-08-24T13:11:16.000Z</time>
      </trkpt>
      <trkpt lat="46.04129" lon="6.66377">
        <ele>1720</ele>
        <time>2014-08-24T13:11:19.000Z</time>
      </trkpt>
      <trkpt lat="46.04123" lon="6.66367">
        <ele>1720</ele>
        <time>2014-08-24T13:11:22.000Z</time>
      </trkpt>
      <trkpt lat="46.0411" lon="6.66346">
        <ele>1719</ele>
        <time>2014-08-24T13:11:25.000Z</time>
      </trkpt>
      <trkpt lat="46.041" lon="6.66331">
        <ele>1718</ele>
        <time>2014-08-24T13:11:31.000Z</time>
      </trkpt>
      <trkpt lat="46.04089" lon="6.66313">
        <ele>1717</ele>
        <time>2014-08-24T13:11:37.000Z</time>
      </trkpt>
      <trkpt lat="46.04079" lon="6.66298">
        <ele>1715</ele>
        <time>2014-08-24T13:11:43.000Z</time>
      </trkpt>
      <trkpt lat="46.0407" lon="6.66284">
        <ele>1711</ele>
        <time>2014-08-24T13:11:49.000Z</time>
      </trkpt>
      <trkpt lat="46.04051" lon="6.66295">
        <ele>1710</ele>
        <time>2014-08-24T13:11:52.000Z</time>
      </trkpt>
      <trkpt lat="46.04033" lon="6.66281">
        <ele>1708</ele>
        <time>2014-08-24T13:11:58.000Z</time>
      </trkpt>
      <trkpt lat="46.04018" lon="6.66269">
        <ele>1706</ele>
        <time>2014-08-24T13:12:04.000Z</time>
      </trkpt>
      <trkpt lat="46.04002" lon="6.66254">
        <ele>1705</ele>
        <time>2014-08-24T13:12:10.000Z</time>
      </trkpt>
      <trkpt lat="46.03968" lon="6.66203">
        <ele>1702</ele>
        <time>2014-08-24T13:12:28.000Z</time>
      </trkpt>
      <trkpt lat="46.03961" lon="6.66185">
        <ele>1700</ele>
        <time>2014-08-24T13:12:34.000Z</time>
      </trkpt>
      <trkpt lat="46.03952" lon="6.66166">
        <ele>1699</ele>
        <time>2014-08-24T13:12:40.000Z</time>
      </trkpt>
      <trkpt lat="46.03945" lon="6.66149">
        <ele>1697</ele>
        <time>2014-08-24T13:12:46.000Z</time>
      </trkpt>
      <trkpt lat="46.03937" lon="6.66133">
        <ele>1695</ele>
        <time>2014-08-24T13:12:52.000Z</time>
      </trkpt>
      <trkpt lat="46.03929" lon="6.66112">
        <ele>1692</ele>
        <time>2014-08-24T13:12:58.000Z</time>
      </trkpt>
      <trkpt lat="46.03926" lon="6.66087">
        <ele>1689</ele>
        <time>2014-08-24T13:13:04.000Z</time>
      </trkpt>
      <trkpt lat="46.03907" lon="6.66055">
        <ele>1682</ele>
        <time>2014-08-24T13:13:16.000Z</time>
      </trkpt>
      <trkpt lat="46.03896" lon="6.66035">
        <ele>1678</ele>
        <time>2014-08-24T13:13:22.000Z</time>
      </trkpt>
      <trkpt lat="46.03887" lon="6.66019">
        <ele>1676</ele>
        <time>2014-08-24T13:13:28.000Z</time>
      </trkpt>
      <trkpt lat="46.03883" lon="6.65997">
        <ele>1673</ele>
        <time>2014-08-24T13:13:34.000Z</time>
      </trkpt>
      <trkpt lat="46.03874" lon="6.65976">
        <ele>1669</ele>
        <time>2014-08-24T13:13:40.000Z</time>
      </trkpt>
      <trkpt lat="46.03859" lon="6.65956">
        <ele>1666</ele>
        <time>2014-08-24T13:13:46.000Z</time>
      </trkpt>
      <trkpt lat="46.03846" lon="6.65938">
        <ele>1663</ele>
        <time>2014-08-24T13:13:52.000Z</time>
      </trkpt>
      <trkpt lat="46.03833" lon="6.65921">
        <ele>1659</ele>
        <time>2014-08-24T13:14:01.000Z</time>
      </trkpt>
      <trkpt lat="46.03827" lon="6.65912">
        <ele>1656</ele>
        <time>2014-08-24T13:14:10.000Z</time>
      </trkpt>
      <trkpt lat="46.03821" lon="6.65905">
        <ele>1655</ele>
        <time>2014-08-24T13:14:13.000Z</time>
      </trkpt>
      <trkpt lat="46.03815" lon="6.65898">
        <ele>1653</ele>
        <time>2014-08-24T13:14:16.000Z</time>
      </trkpt>
      <trkpt lat="46.03809" lon="6.65883">
        <ele>1636</ele>
        <time>2014-08-24T13:14:49.000Z</time>
      </trkpt>
      <trkpt lat="46.03802" lon="6.65869">
        <ele>1634</ele>
        <time>2014-08-24T13:14:52.000Z</time>
      </trkpt>
      <trkpt lat="46.03797" lon="6.65857">
        <ele>1632</ele>
        <time>2014-08-24T13:14:55.000Z</time>
      </trkpt>
      <trkpt lat="46.03792" lon="6.65846">
        <ele>1631</ele>
        <time>2014-08-24T13:14:58.000Z</time>
      </trkpt>
      <trkpt lat="46.03787" lon="6.65836">
        <ele>1629</ele>
        <time>2014-08-24T13:15:01.000Z</time>
      </trkpt>
      <trkpt lat="46.03778" lon="6.65818">
        <ele>1628</ele>
        <time>2014-08-24T13:15:04.000Z</time>
      </trkpt>
      <trkpt lat="46.03773" lon="6.65835">
        <ele>1624</ele>
        <time>2014-08-24T13:15:10.000Z</time>
      </trkpt>
      <trkpt lat="46.03771" lon="6.65862">
        <ele>1619</ele>
        <time>2014-08-24T13:15:16.000Z</time>
      </trkpt>
      <trkpt lat="46.0377" lon="6.65888">
        <ele>1615</ele>
        <time>2014-08-24T13:15:22.000Z</time>
      </trkpt>
      <trkpt lat="46.03769" lon="6.65914">
        <ele>1612</ele>
        <time>2014-08-24T13:15:28.000Z</time>
      </trkpt>
      <trkpt lat="46.03758" lon="6.65931">
        <ele>1608</ele>
        <time>2014-08-24T13:15:34.000Z</time>
      </trkpt>
      <trkpt lat="46.03748" lon="6.65948">
        <ele>1604</ele>
        <time>2014-08-24T13:15:40.000Z</time>
      </trkpt>
      <trkpt lat="46.03735" lon="6.65968">
        <ele>1600</ele>
        <time>2014-08-24T13:15:46.000Z</time>
      </trkpt>
      <trkpt lat="46.03731" lon="6.65998">
        <ele>1596</ele>
        <time>2014-08-24T13:15:52.000Z</time>
      </trkpt>
      <trkpt lat="46.03701" lon="6.66034">
        <ele>1577</ele>
        <time>2014-08-24T13:16:25.000Z</time>
      </trkpt>
      <trkpt lat="46.0368" lon="6.65978">
        <ele>1567</ele>
        <time>2014-08-24T13:16:43.000Z</time>
      </trkpt>
      <trkpt lat="46.03674" lon="6.6596">
        <ele>1564</ele>
        <time>2014-08-24T13:16:49.000Z</time>
      </trkpt>
      <trkpt lat="46.03666" lon="6.65942">
        <ele>1560</ele>
        <time>2014-08-24T13:16:55.000Z</time>
      </trkpt>
      <trkpt lat="46.03659" lon="6.65923">
        <ele>1555</ele>
        <time>2014-08-24T13:17:01.000Z</time>
      </trkpt>
      <trkpt lat="46.03652" lon="6.659">
        <ele>1551</ele>
        <time>2014-08-24T13:17:07.000Z</time>
      </trkpt>
      <trkpt lat="46.03645" lon="6.65875">
        <ele>1548</ele>
        <time>2014-08-24T13:17:13.000Z</time>
      </trkpt>
      <trkpt lat="46.03641" lon="6.65857">
        <ele>1545</ele>
        <time>2014-08-24T13:17:19.000Z</time>
      </trkpt>
      <trkpt lat="46.03638" lon="6.65846">
        <ele>1541</ele>
        <time>2014-08-24T13:17:28.000Z</time>
      </trkpt>
      <trkpt lat="46.03635" lon="6.65836">
        <ele>1539</ele>
        <time>2014-08-24T13:17:31.000Z</time>
      </trkpt>
      <trkpt lat="46.03631" lon="6.65827">
        <ele>1537</ele>
        <time>2014-08-24T13:17:34.000Z</time>
      </trkpt>
      <trkpt lat="46.03627" lon="6.65818">
        <ele>1536</ele>
        <time>2014-08-24T13:17:37.000Z</time>
      </trkpt>
      <trkpt lat="46.03623" lon="6.65807">
        <ele>1532</ele>
        <time>2014-08-24T13:17:43.000Z</time>
      </trkpt>
      <trkpt lat="46.03619" lon="6.65798">
        <ele>1530</ele>
        <time>2014-08-24T13:17:46.000Z</time>
      </trkpt>
      <trkpt lat="46.03616" lon="6.6579">
        <ele>1528</ele>
        <time>2014-08-24T13:17:49.000Z</time>
      </trkpt>
      <trkpt lat="46.03613" lon="6.65781">
        <ele>1526</ele>
        <time>2014-08-24T13:17:52.000Z</time>
      </trkpt>
      <trkpt lat="46.0361" lon="6.65771">
        <ele>1524</ele>
        <time>2014-08-24T13:17:55.000Z</time>
      </trkpt>
      <trkpt lat="46.03605" lon="6.65749">
        <ele>1522</ele>
        <time>2014-08-24T13:17:58.000Z</time>
      </trkpt>
      <trkpt lat="46.03596" lon="6.65725">
        <ele>1519</ele>
        <time>2014-08-24T13:18:04.000Z</time>
      </trkpt>
      <trkpt lat="46.03587" lon="6.65701">
        <ele>1515</ele>
        <time>2014-08-24T13:18:10.000Z</time>
      </trkpt>
      <trkpt lat="46.03582" lon="6.65679">
        <ele>1510</ele>
        <time>2014-08-24T13:18:16.000Z</time>
      </trkpt>
      <trkpt lat="46.03584" lon="6.65653">
        <ele>1506</ele>
        <time>2014-08-24T13:18:22.000Z</time>
      </trkpt>
      <trkpt lat="46.03586" lon="6.6563">
        <ele>1501</ele>
        <time>2014-08-24T13:18:28.000Z</time>
      </trkpt>
      <trkpt lat="46.03588" lon="6.65607">
        <ele>1498</ele>
        <time>2014-08-24T13:18:34.000Z</time>
      </trkpt>
      <trkpt lat="46.03596" lon="6.65578">
        <ele>1495</ele>
        <time>2014-08-24T13:18:40.000Z</time>
      </trkpt>
      <trkpt lat="46.03603" lon="6.65549">
        <ele>1492</ele>
        <time>2014-08-24T13:18:46.000Z</time>
      </trkpt>
      <trkpt lat="46.03608" lon="6.6553">
        <ele>1489</ele>
        <time>2014-08-24T13:18:52.000Z</time>
      </trkpt>
      <trkpt lat="46.03612" lon="6.65512">
        <ele>1485</ele>
        <time>2014-08-24T13:18:58.000Z</time>
      </trkpt>
      <trkpt lat="46.03606" lon="6.6549">
        <ele>1482</ele>
        <time>2014-08-24T13:19:04.000Z</time>
      </trkpt>
      <trkpt lat="46.036" lon="6.65467">
        <ele>1478</ele>
        <time>2014-08-24T13:19:10.000Z</time>
      </trkpt>
      <trkpt lat="46.03595" lon="6.65443">
        <ele>1475</ele>
        <time>2014-08-24T13:19:16.000Z</time>
      </trkpt>
      <trkpt lat="46.0359" lon="6.6542">
        <ele>1472</ele>
        <time>2014-08-24T13:19:22.000Z</time>
      </trkpt>
      <trkpt lat="46.03585" lon="6.65399">
        <ele>1470</ele>
        <time>2014-08-24T13:19:28.000Z</time>
      </trkpt>
      <trkpt lat="46.03581" lon="6.65378">
        <ele>1467</ele>
        <time>2014-08-24T13:19:34.000Z</time>
      </trkpt>
      <trkpt lat="46.03576" lon="6.65357">
        <ele>1464</ele>
        <time>2014-08-24T13:19:40.000Z</time>
      </trkpt>
      <trkpt lat="46.03572" lon="6.65339">
        <ele>1461</ele>
        <time>2014-08-24T13:19:46.000Z</time>
      </trkpt>
      <trkpt lat="46.03593" lon="6.65322">
        <ele>1460</ele>
        <time>2014-08-24T13:19:49.000Z</time>
      </trkpt>
      <trkpt lat="46.03608" lon="6.65307">
        <ele>1457</ele>
        <time>2014-08-24T13:19:55.000Z</time>
      </trkpt>
      <trkpt lat="46.03601" lon="6.65286">
        <ele>1448</ele>
        <time>2014-08-24T13:20:13.000Z</time>
      </trkpt>
      <trkpt lat="46.03584" lon="6.65281">
        <ele>1445</ele>
        <time>2014-08-24T13:20:19.000Z</time>
      </trkpt>
      <trkpt lat="46.03568" lon="6.6528">
        <ele>1442</ele>
        <time>2014-08-24T13:20:25.000Z</time>
      </trkpt>
      <trkpt lat="46.03551" lon="6.65282">
        <ele>1439</ele>
        <time>2014-08-24T13:20:31.000Z</time>
      </trkpt>
      <trkpt lat="46.0353" lon="6.65283">
        <ele>1432</ele>
        <time>2014-08-24T13:20:37.000Z</time>
      </trkpt>
      <trkpt lat="46.03537" lon="6.65283">
        <ele>1424</ele>
        <time>2014-08-24T13:20:55.000Z</time>
      </trkpt>
      <trkpt lat="46.03545" lon="6.65283">
        <ele>1422</ele>
        <time>2014-08-24T13:20:58.000Z</time>
      </trkpt>
      <trkpt lat="46.03552" lon="6.65282">
        <ele>1421</ele>
        <time>2014-08-24T13:21:01.000Z</time>
      </trkpt>
      <trkpt lat="46.03559" lon="6.65247">
        <ele>1417</ele>
        <time>2014-08-24T13:21:04.000Z</time>
      </trkpt>
      <trkpt lat="46.03567" lon="6.65226">
        <ele>1416</ele>
        <time>2014-08-24T13:21:07.000Z</time>
      </trkpt>
      <trkpt lat="46.03577" lon="6.65195">
        <ele>1415</ele>
        <time>2014-08-24T13:21:10.000Z</time>
      </trkpt>
      <trkpt lat="46.03572" lon="6.65211">
        <ele>1413</ele>
        <time>2014-08-24T13:21:19.000Z</time>
      </trkpt>
      <trkpt lat="46.03535" lon="6.65199">
        <ele>1411</ele>
        <time>2014-08-24T13:21:25.000Z</time>
      </trkpt>
      <trkpt lat="46.03511" lon="6.65195">
        <ele>1409</ele>
        <time>2014-08-24T13:21:31.000Z</time>
      </trkpt>
      <trkpt lat="46.03493" lon="6.65199">
        <ele>1408</ele>
        <time>2014-08-24T13:21:37.000Z</time>
      </trkpt>
      <trkpt lat="46.03473" lon="6.65206">
        <ele>1406</ele>
        <time>2014-08-24T13:21:43.000Z</time>
      </trkpt>
      <trkpt lat="46.03456" lon="6.65214">
        <ele>1405</ele>
        <time>2014-08-24T13:21:49.000Z</time>
      </trkpt>
      <trkpt lat="46.03442" lon="6.6522">
        <ele>1403</ele>
        <time>2014-08-24T13:21:55.000Z</time>
      </trkpt>
      <trkpt lat="46.03428" lon="6.65227">
        <ele>1401</ele>
        <time>2014-08-24T13:22:01.000Z</time>
      </trkpt>
      <trkpt lat="46.0341" lon="6.65214">
        <ele>1400</ele>
        <time>2014-08-24T13:22:07.000Z</time>
      </trkpt>
      <trkpt lat="46.03365" lon="6.65198">
        <ele>1393</ele>
        <time>2014-08-24T13:22:31.000Z</time>
      </trkpt>
      <trkpt lat="46.03379" lon="6.65219">
        <ele>1391</ele>
        <time>2014-08-24T13:22:40.000Z</time>
      </trkpt>
      <trkpt lat="46.03399" lon="6.65236">
        <ele>1389</ele>
        <time>2014-08-24T13:22:49.000Z</time>
      </trkpt>
      <trkpt lat="46.03414" lon="6.65264">
        <ele>1388</ele>
        <time>2014-08-24T13:22:55.000Z</time>
      </trkpt>
      <trkpt lat="46.03406" lon="6.65287">
        <ele>1390</ele>
        <time>2014-08-24T13:23:10.000Z</time>
      </trkpt>
      <trkpt lat="46.03391" lon="6.65283">
        <ele>1391</ele>
        <time>2014-08-24T13:23:16.000Z</time>
      </trkpt>
      <trkpt lat="46.03372" lon="6.65279">
        <ele>1389</ele>
        <time>2014-08-24T13:23:22.000Z</time>
      </trkpt>
      <trkpt lat="46.03356" lon="6.65275">
        <ele>1386</ele>
        <time>2014-08-24T13:23:31.000Z</time>
      </trkpt>
      <trkpt lat="46.03349" lon="6.65273">
        <ele>1385</ele>
        <time>2014-08-24T13:23:40.000Z</time>
      </trkpt>
      <trkpt lat="46.03341" lon="6.65287">
        <ele>1384</ele>
        <time>2014-08-24T13:23:43.000Z</time>
      </trkpt>
      <trkpt lat="46.03335" lon="6.65296">
        <ele>1384</ele>
        <time>2014-08-24T13:23:46.000Z</time>
      </trkpt>
      <trkpt lat="46.03329" lon="6.65303">
        <ele>1384</ele>
        <time>2014-08-24T13:23:49.000Z</time>
      </trkpt>
      <trkpt lat="46.03324" lon="6.65309">
        <ele>1383</ele>
        <time>2014-08-24T13:23:52.000Z</time>
      </trkpt>
      <trkpt lat="46.03315" lon="6.65322">
        <ele>1383</ele>
        <time>2014-08-24T13:23:55.000Z</time>
      </trkpt>
      <trkpt lat="46.03307" lon="6.65336">
        <ele>1382</ele>
        <time>2014-08-24T13:24:01.000Z</time>
      </trkpt>
      <trkpt lat="46.03299" lon="6.65353">
        <ele>1380</ele>
        <time>2014-08-24T13:24:10.000Z</time>
      </trkpt>
      <trkpt lat="46.03284" lon="6.65356">
        <ele>1381</ele>
        <time>2014-08-24T13:24:22.000Z</time>
      </trkpt>
      <trkpt lat="46.03296" lon="6.65371">
        <ele>1388</ele>
        <time>2014-08-24T13:24:49.000Z</time>
      </trkpt>
      <trkpt lat="46.03324" lon="6.65375">
        <ele>1389</ele>
        <time>2014-08-24T13:25:13.000Z</time>
      </trkpt>
      <trkpt lat="46.03312" lon="6.6539">
        <ele>1396</ele>
        <time>2014-08-24T13:25:43.000Z</time>
      </trkpt>
      <trkpt lat="46.03303" lon="6.65399">
        <ele>1398</ele>
        <time>2014-08-24T13:25:46.000Z</time>
      </trkpt>
      <trkpt lat="46.03298" lon="6.65405">
        <ele>1399</ele>
        <time>2014-08-24T13:25:49.000Z</time>
      </trkpt>
      <trkpt lat="46.03292" lon="6.65411">
        <ele>1403</ele>
        <time>2014-08-24T13:25:58.000Z</time>
      </trkpt>
      <trkpt lat="46.03285" lon="6.65411">
        <ele>1404</ele>
        <time>2014-08-24T13:26:01.000Z</time>
      </trkpt>
      <trkpt lat="46.03278" lon="6.65412">
        <ele>1405</ele>
        <time>2014-08-24T13:26:07.000Z</time>
      </trkpt>
      <trkpt lat="46.03269" lon="6.65413">
        <ele>1406</ele>
        <time>2014-08-24T13:26:13.000Z</time>
      </trkpt>
      <trkpt lat="46.03262" lon="6.65415">
        <ele>1406</ele>
        <time>2014-08-24T13:26:16.000Z</time>
      </trkpt>
      <trkpt lat="46.03254" lon="6.65416">
        <ele>1408</ele>
        <time>2014-08-24T13:26:22.000Z</time>
      </trkpt>
      <trkpt lat="46.03243" lon="6.65419">
        <ele>1411</ele>
        <time>2014-08-24T13:26:31.000Z</time>
      </trkpt>
      <trkpt lat="46.03236" lon="6.65422">
        <ele>1411</ele>
        <time>2014-08-24T13:26:34.000Z</time>
      </trkpt>
      <trkpt lat="46.03229" lon="6.65425">
        <ele>1414</ele>
        <time>2014-08-24T13:26:40.000Z</time>
      </trkpt>
      <trkpt lat="46.03221" lon="6.65429">
        <ele>1417</ele>
        <time>2014-08-24T13:26:46.000Z</time>
      </trkpt>
      <trkpt lat="46.03211" lon="6.65435">
        <ele>1423</ele>
        <time>2014-08-24T13:27:01.000Z</time>
      </trkpt>
      <trkpt lat="46.03217" lon="6.65439">
        <ele>1429</ele>
        <time>2014-08-24T13:27:22.000Z</time>
      </trkpt>
      <trkpt lat="46.03225" lon="6.65443">
        <ele>1430</ele>
        <time>2014-08-24T13:27:28.000Z</time>
      </trkpt>
      <trkpt lat="46.03233" lon="6.65446">
        <ele>1432</ele>
        <time>2014-08-24T13:27:34.000Z</time>
      </trkpt>
      <trkpt lat="46.0324" lon="6.6545">
        <ele>1432</ele>
        <time>2014-08-24T13:27:40.000Z</time>
      </trkpt>
      <trkpt lat="46.03247" lon="6.65454">
        <ele>1434</ele>
        <time>2014-08-24T13:27:49.000Z</time>
      </trkpt>
      <trkpt lat="46.03253" lon="6.65462">
        <ele>1436</ele>
        <time>2014-08-24T13:27:55.000Z</time>
      </trkpt>
      <trkpt lat="46.0326" lon="6.65468">
        <ele>1438</ele>
        <time>2014-08-24T13:28:01.000Z</time>
      </trkpt>
      <trkpt lat="46.03267" lon="6.65473">
        <ele>1440</ele>
        <time>2014-08-24T13:28:07.000Z</time>
      </trkpt>
      <trkpt lat="46.03273" lon="6.65478">
        <ele>1443</ele>
        <time>2014-08-24T13:28:13.000Z</time>
      </trkpt>
      <trkpt lat="46.0328" lon="6.65482">
        <ele>1445</ele>
        <time>2014-08-24T13:28:19.000Z</time>
      </trkpt>
      <trkpt lat="46.03287" lon="6.65487">
        <ele>1447</ele>
        <time>2014-08-24T13:28:25.000Z</time>
      </trkpt>
      <trkpt lat="46.03293" lon="6.65492">
        <ele>1449</ele>
        <time>2014-08-24T13:28:31.000Z</time>
      </trkpt>
      <trkpt lat="46.03305" lon="6.65503">
        <ele>1454</ele>
        <time>2014-08-24T13:28:49.000Z</time>
      </trkpt>
      <trkpt lat="46.03314" lon="6.6551">
        <ele>1455</ele>
        <time>2014-08-24T13:28:52.000Z</time>
      </trkpt>
      <trkpt lat="46.03321" lon="6.65514">
        <ele>1456</ele>
        <time>2014-08-24T13:28:55.000Z</time>
      </trkpt>
      <trkpt lat="46.03328" lon="6.65519">
        <ele>1457</ele>
        <time>2014-08-24T13:29:01.000Z</time>
      </trkpt>
      <trkpt lat="46.03335" lon="6.65523">
        <ele>1458</ele>
        <time>2014-08-24T13:29:07.000Z</time>
      </trkpt>
      <trkpt lat="46.03344" lon="6.65527">
        <ele>1460</ele>
        <time>2014-08-24T13:29:13.000Z</time>
      </trkpt>
      <trkpt lat="46.03351" lon="6.65531">
        <ele>1460</ele>
        <time>2014-08-24T13:29:19.000Z</time>
      </trkpt>
      <trkpt lat="46.03357" lon="6.65534">
        <ele>1460</ele>
        <time>2014-08-24T13:29:22.000Z</time>
      </trkpt>
      <trkpt lat="46.03363" lon="6.65542">
        <ele>1460</ele>
        <time>2014-08-24T13:29:28.000Z</time>
      </trkpt>
      <trkpt lat="46.03369" lon="6.65549">
        <ele>1460</ele>
        <time>2014-08-24T13:29:31.000Z</time>
      </trkpt>
      <trkpt lat="46.03374" lon="6.65555">
        <ele>1459</ele>
        <time>2014-08-24T13:29:37.000Z</time>
      </trkpt>
      <trkpt lat="46.03379" lon="6.65562">
        <ele>1458</ele>
        <time>2014-08-24T13:29:43.000Z</time>
      </trkpt>
      <trkpt lat="46.03385" lon="6.6557">
        <ele>1457</ele>
        <time>2014-08-24T13:29:49.000Z</time>
      </trkpt>
      <trkpt lat="46.03391" lon="6.65578">
        <ele>1456</ele>
        <time>2014-08-24T13:30:01.000Z</time>
      </trkpt>
      <trkpt lat="46.03396" lon="6.65588">
        <ele>1457</ele>
        <time>2014-08-24T13:30:10.000Z</time>
      </trkpt>
      <trkpt lat="46.03402" lon="6.65595">
        <ele>1457</ele>
        <time>2014-08-24T13:30:16.000Z</time>
      </trkpt>
      <trkpt lat="46.03407" lon="6.65601">
        <ele>1457</ele>
        <time>2014-08-24T13:30:22.000Z</time>
      </trkpt>
      <trkpt lat="46.03415" lon="6.6561">
        <ele>1459</ele>
        <time>2014-08-24T13:30:37.000Z</time>
      </trkpt>
      <trkpt lat="46.03421" lon="6.65616">
        <ele>1460</ele>
        <time>2014-08-24T13:30:43.000Z</time>
      </trkpt>
      <trkpt lat="46.03421" lon="6.65625">
        <ele>1462</ele>
        <time>2014-08-24T13:30:52.000Z</time>
      </trkpt>
      <trkpt lat="46.03418" lon="6.65635">
        <ele>1463</ele>
        <time>2014-08-24T13:31:01.000Z</time>
      </trkpt>
      <trkpt lat="46.03414" lon="6.65643">
        <ele>1464</ele>
        <time>2014-08-24T13:31:07.000Z</time>
      </trkpt>
      <trkpt lat="46.03411" lon="6.65651">
        <ele>1465</ele>
        <time>2014-08-24T13:31:13.000Z</time>
      </trkpt>
      <trkpt lat="46.0341" lon="6.65661">
        <ele>1467</ele>
        <time>2014-08-24T13:31:22.000Z</time>
      </trkpt>
      <trkpt lat="46.03413" lon="6.65674">
        <ele>1470</ele>
        <time>2014-08-24T13:31:34.000Z</time>
      </trkpt>
      <trkpt lat="46.03413" lon="6.65684">
        <ele>1471</ele>
        <time>2014-08-24T13:31:37.000Z</time>
      </trkpt>
      <trkpt lat="46.03412" lon="6.65694">
        <ele>1472</ele>
        <time>2014-08-24T13:31:43.000Z</time>
      </trkpt>
      <trkpt lat="46.03408" lon="6.65706">
        <ele>1476</ele>
        <time>2014-08-24T13:31:58.000Z</time>
      </trkpt>
      <trkpt lat="46.03407" lon="6.65715">
        <ele>1477</ele>
        <time>2014-08-24T13:32:01.000Z</time>
      </trkpt>
      <trkpt lat="46.03406" lon="6.65725">
        <ele>1478</ele>
        <time>2014-08-24T13:32:07.000Z</time>
      </trkpt>
      <trkpt lat="46.03403" lon="6.65733">
        <ele>1479</ele>
        <time>2014-08-24T13:32:13.000Z</time>
      </trkpt>
      <trkpt lat="46.03396" lon="6.65737">
        <ele>1479</ele>
        <time>2014-08-24T13:32:19.000Z</time>
      </trkpt>
      <trkpt lat="46.03389" lon="6.6574">
        <ele>1480</ele>
        <time>2014-08-24T13:32:25.000Z</time>
      </trkpt>
      <trkpt lat="46.0338" lon="6.65744">
        <ele>1481</ele>
        <time>2014-08-24T13:32:31.000Z</time>
      </trkpt>
      <trkpt lat="46.03373" lon="6.65746">
        <ele>1482</ele>
        <time>2014-08-24T13:32:37.000Z</time>
      </trkpt>
      <trkpt lat="46.03366" lon="6.65749">
        <ele>1483</ele>
        <time>2014-08-24T13:32:43.000Z</time>
      </trkpt>
      <trkpt lat="46.0336" lon="6.65751">
        <ele>1484</ele>
        <time>2014-08-24T13:32:52.000Z</time>
      </trkpt>
      <trkpt lat="46.03356" lon="6.65767">
        <ele>1486</ele>
        <time>2014-08-24T13:33:01.000Z</time>
      </trkpt>
      <trkpt lat="46.03354" lon="6.65778">
        <ele>1487</ele>
        <time>2014-08-24T13:33:04.000Z</time>
      </trkpt>
      <trkpt lat="46.03351" lon="6.65787">
        <ele>1488</ele>
        <time>2014-08-24T13:33:10.000Z</time>
      </trkpt>
      <trkpt lat="46.03349" lon="6.65796">
        <ele>1490</ele>
        <time>2014-08-24T13:33:16.000Z</time>
      </trkpt>
      <trkpt lat="46.03346" lon="6.65805">
        <ele>1493</ele>
        <time>2014-08-24T13:33:25.000Z</time>
      </trkpt>
      <trkpt lat="46.03344" lon="6.65814">
        <ele>1495</ele>
        <time>2014-08-24T13:33:31.000Z</time>
      </trkpt>
      <trkpt lat="46.03337" lon="6.65819">
        <ele>1496</ele>
        <time>2014-08-24T13:33:37.000Z</time>
      </trkpt>
      <trkpt lat="46.03333" lon="6.65825">
        <ele>1499</ele>
        <time>2014-08-24T13:33:43.000Z</time>
      </trkpt>
      <trkpt lat="46.03329" lon="6.65835">
        <ele>1501</ele>
        <time>2014-08-24T13:33:52.000Z</time>
      </trkpt>
      <trkpt lat="46.03326" lon="6.65843">
        <ele>1504</ele>
        <time>2014-08-24T13:33:58.000Z</time>
      </trkpt>
      <trkpt lat="46.03323" lon="6.65852">
        <ele>1505</ele>
        <time>2014-08-24T13:34:04.000Z</time>
      </trkpt>
      <trkpt lat="46.0332" lon="6.65862">
        <ele>1507</ele>
        <time>2014-08-24T13:34:10.000Z</time>
      </trkpt>
      <trkpt lat="46.03316" lon="6.65872">
        <ele>1508</ele>
        <time>2014-08-24T13:34:16.000Z</time>
      </trkpt>
      <trkpt lat="46.03312" lon="6.65881">
        <ele>1510</ele>
        <time>2014-08-24T13:34:22.000Z</time>
      </trkpt>
      <trkpt lat="46.03308" lon="6.65891">
        <ele>1511</ele>
        <time>2014-08-24T13:34:28.000Z</time>
      </trkpt>
      <trkpt lat="46.03305" lon="6.65899">
        <ele>1511</ele>
        <time>2014-08-24T13:34:31.000Z</time>
      </trkpt>
      <trkpt lat="46.03302" lon="6.6591">
        <ele>1512</ele>
        <time>2014-08-24T13:34:37.000Z</time>
      </trkpt>
      <trkpt lat="46.03302" lon="6.65922">
        <ele>1514</ele>
        <time>2014-08-24T13:34:43.000Z</time>
      </trkpt>
      <trkpt lat="46.03303" lon="6.65932">
        <ele>1515</ele>
        <time>2014-08-24T13:34:46.000Z</time>
      </trkpt>
      <trkpt lat="46.03303" lon="6.65942">
        <ele>1517</ele>
        <time>2014-08-24T13:34:52.000Z</time>
      </trkpt>
      <trkpt lat="46.03304" lon="6.65952">
        <ele>1519</ele>
        <time>2014-08-24T13:35:01.000Z</time>
      </trkpt>
      <trkpt lat="46.03303" lon="6.65963">
        <ele>1520</ele>
        <time>2014-08-24T13:35:07.000Z</time>
      </trkpt>
      <trkpt lat="46.03302" lon="6.65972">
        <ele>1521</ele>
        <time>2014-08-24T13:35:13.000Z</time>
      </trkpt>
      <trkpt lat="46.03299" lon="6.65997">
        <ele>1531</ele>
        <time>2014-08-24T13:35:49.000Z</time>
      </trkpt>
      <trkpt lat="46.03297" lon="6.66012">
        <ele>1532</ele>
        <time>2014-08-24T13:35:52.000Z</time>
      </trkpt>
      <trkpt lat="46.03296" lon="6.66022">
        <ele>1533</ele>
        <time>2014-08-24T13:35:55.000Z</time>
      </trkpt>
      <trkpt lat="46.03295" lon="6.66032">
        <ele>1535</ele>
        <time>2014-08-24T13:36:04.000Z</time>
      </trkpt>
      <trkpt lat="46.03294" lon="6.66042">
        <ele>1536</ele>
        <time>2014-08-24T13:36:10.000Z</time>
      </trkpt>
      <trkpt lat="46.03294" lon="6.66052">
        <ele>1538</ele>
        <time>2014-08-24T13:36:16.000Z</time>
      </trkpt>
      <trkpt lat="46.03296" lon="6.66062">
        <ele>1539</ele>
        <time>2014-08-24T13:36:22.000Z</time>
      </trkpt>
      <trkpt lat="46.03298" lon="6.66072">
        <ele>1540</ele>
        <time>2014-08-24T13:36:28.000Z</time>
      </trkpt>
      <trkpt lat="46.03301" lon="6.66083">
        <ele>1541</ele>
        <time>2014-08-24T13:36:34.000Z</time>
      </trkpt>
      <trkpt lat="46.03303" lon="6.66095">
        <ele>1543</ele>
        <time>2014-08-24T13:36:40.000Z</time>
      </trkpt>
      <trkpt lat="46.03303" lon="6.66105">
        <ele>1544</ele>
        <time>2014-08-24T13:36:46.000Z</time>
      </trkpt>
      <trkpt lat="46.03304" lon="6.66115">
        <ele>1546</ele>
        <time>2014-08-24T13:36:52.000Z</time>
      </trkpt>
      <trkpt lat="46.03302" lon="6.66124">
        <ele>1547</ele>
        <time>2014-08-24T13:36:58.000Z</time>
      </trkpt>
      <trkpt lat="46.033" lon="6.66135">
        <ele>1548</ele>
        <time>2014-08-24T13:37:04.000Z</time>
      </trkpt>
      <trkpt lat="46.03299" lon="6.66145">
        <ele>1549</ele>
        <time>2014-08-24T13:37:10.000Z</time>
      </trkpt>
      <trkpt lat="46.03298" lon="6.66155">
        <ele>1550</ele>
        <time>2014-08-24T13:37:16.000Z</time>
      </trkpt>
      <trkpt lat="46.033" lon="6.66164">
        <ele>1551</ele>
        <time>2014-08-24T13:37:19.000Z</time>
      </trkpt>
      <trkpt lat="46.03302" lon="6.66175">
        <ele>1553</ele>
        <time>2014-08-24T13:37:28.000Z</time>
      </trkpt>
      <trkpt lat="46.03304" lon="6.66185">
        <ele>1555</ele>
        <time>2014-08-24T13:37:34.000Z</time>
      </trkpt>
      <trkpt lat="46.03305" lon="6.66195">
        <ele>1556</ele>
        <time>2014-08-24T13:37:40.000Z</time>
      </trkpt>
      <trkpt lat="46.03307" lon="6.66205">
        <ele>1558</ele>
        <time>2014-08-24T13:37:46.000Z</time>
      </trkpt>
      <trkpt lat="46.03309" lon="6.66215">
        <ele>1561</ele>
        <time>2014-08-24T13:37:55.000Z</time>
      </trkpt>
      <trkpt lat="46.0331" lon="6.66225">
        <ele>1562</ele>
        <time>2014-08-24T13:38:01.000Z</time>
      </trkpt>
      <trkpt lat="46.03314" lon="6.66234">
        <ele>1564</ele>
        <time>2014-08-24T13:38:07.000Z</time>
      </trkpt>
      <trkpt lat="46.03317" lon="6.66243">
        <ele>1566</ele>
        <time>2014-08-24T13:38:13.000Z</time>
      </trkpt>
      <trkpt lat="46.0332" lon="6.66252">
        <ele>1567</ele>
        <time>2014-08-24T13:38:19.000Z</time>
      </trkpt>
      <trkpt lat="46.03325" lon="6.66262">
        <ele>1569</ele>
        <time>2014-08-24T13:38:25.000Z</time>
      </trkpt>
      <trkpt lat="46.0333" lon="6.66271">
        <ele>1570</ele>
        <time>2014-08-24T13:38:31.000Z</time>
      </trkpt>
      <trkpt lat="46.03335" lon="6.6628">
        <ele>1571</ele>
        <time>2014-08-24T13:38:37.000Z</time>
      </trkpt>
      <trkpt lat="46.03339" lon="6.66289">
        <ele>1575</ele>
        <time>2014-08-24T13:38:55.000Z</time>
      </trkpt>
      <trkpt lat="46.03342" lon="6.66299">
        <ele>1577</ele>
        <time>2014-08-24T13:39:01.000Z</time>
      </trkpt>
      <trkpt lat="46.03343" lon="6.66309">
        <ele>1578</ele>
        <time>2014-08-24T13:39:07.000Z</time>
      </trkpt>
      <trkpt lat="46.03346" lon="6.66322">
        <ele>1579</ele>
        <time>2014-08-24T13:39:13.000Z</time>
      </trkpt>
      <trkpt lat="46.03348" lon="6.66331">
        <ele>1580</ele>
        <time>2014-08-24T13:39:16.000Z</time>
      </trkpt>
      <trkpt lat="46.03351" lon="6.66342">
        <ele>1581</ele>
        <time>2014-08-24T13:39:22.000Z</time>
      </trkpt>
      <trkpt lat="46.03354" lon="6.66353">
        <ele>1582</ele>
        <time>2014-08-24T13:39:28.000Z</time>
      </trkpt>
      <trkpt lat="46.03357" lon="6.66363">
        <ele>1583</ele>
        <time>2014-08-24T13:39:34.000Z</time>
      </trkpt>
      <trkpt lat="46.03359" lon="6.66374">
        <ele>1584</ele>
        <time>2014-08-24T13:39:40.000Z</time>
      </trkpt>
      <trkpt lat="46.03362" lon="6.66385">
        <ele>1585</ele>
        <time>2014-08-24T13:39:46.000Z</time>
      </trkpt>
      <trkpt lat="46.03365" lon="6.66396">
        <ele>1587</ele>
        <time>2014-08-24T13:39:52.000Z</time>
      </trkpt>
      <trkpt lat="46.03367" lon="6.66406">
        <ele>1588</ele>
        <time>2014-08-24T13:39:58.000Z</time>
      </trkpt>
      <trkpt lat="46.03374" lon="6.66411">
        <ele>1588</ele>
        <time>2014-08-24T13:40:01.000Z</time>
      </trkpt>
      <trkpt lat="46.03379" lon="6.66418">
        <ele>1589</ele>
        <time>2014-08-24T13:40:07.000Z</time>
      </trkpt>
      <trkpt lat="46.03386" lon="6.66424">
        <ele>1591</ele>
        <time>2014-08-24T13:40:13.000Z</time>
      </trkpt>
      <trkpt lat="46.03392" lon="6.66431">
        <ele>1592</ele>
        <time>2014-08-24T13:40:19.000Z</time>
      </trkpt>
      <trkpt lat="46.03399" lon="6.66439">
        <ele>1594</ele>
        <time>2014-08-24T13:40:25.000Z</time>
      </trkpt>
      <trkpt lat="46.03404" lon="6.66446">
        <ele>1594</ele>
        <time>2014-08-24T13:40:28.000Z</time>
      </trkpt>
      <trkpt lat="46.03408" lon="6.66456">
        <ele>1596</ele>
        <time>2014-08-24T13:40:34.000Z</time>
      </trkpt>
      <trkpt lat="46.03412" lon="6.66464">
        <ele>1597</ele>
        <time>2014-08-24T13:40:37.000Z</time>
      </trkpt>
      <trkpt lat="46.03416" lon="6.66474">
        <ele>1598</ele>
        <time>2014-08-24T13:40:43.000Z</time>
      </trkpt>
      <trkpt lat="46.03421" lon="6.66485">
        <ele>1599</ele>
        <time>2014-08-24T13:40:49.000Z</time>
      </trkpt>
      <trkpt lat="46.03425" lon="6.66493">
        <ele>1600</ele>
        <time>2014-08-24T13:40:52.000Z</time>
      </trkpt>
      <trkpt lat="46.03429" lon="6.66503">
        <ele>1601</ele>
        <time>2014-08-24T13:40:58.000Z</time>
      </trkpt>
      <trkpt lat="46.03433" lon="6.66511">
        <ele>1602</ele>
        <time>2014-08-24T13:41:01.000Z</time>
      </trkpt>
      <trkpt lat="46.03437" lon="6.6652">
        <ele>1603</ele>
        <time>2014-08-24T13:41:07.000Z</time>
      </trkpt>
      <trkpt lat="46.03443" lon="6.66528">
        <ele>1604</ele>
        <time>2014-08-24T13:41:13.000Z</time>
      </trkpt>
      <trkpt lat="46.03447" lon="6.66536">
        <ele>1605</ele>
        <time>2014-08-24T13:41:19.000Z</time>
      </trkpt>
      <trkpt lat="46.03452" lon="6.66545">
        <ele>1606</ele>
        <time>2014-08-24T13:41:25.000Z</time>
      </trkpt>
      <trkpt lat="46.03456" lon="6.66554">
        <ele>1608</ele>
        <time>2014-08-24T13:41:34.000Z</time>
      </trkpt>
      <trkpt lat="46.03464" lon="6.66558">
        <ele>1609</ele>
        <time>2014-08-24T13:41:43.000Z</time>
      </trkpt>
      <trkpt lat="46.0347" lon="6.66562">
        <ele>1610</ele>
        <time>2014-08-24T13:41:46.000Z</time>
      </trkpt>
      <trkpt lat="46.03476" lon="6.66565">
        <ele>1611</ele>
        <time>2014-08-24T13:41:52.000Z</time>
      </trkpt>
      <trkpt lat="46.0348" lon="6.66573">
        <ele>1613</ele>
        <time>2014-08-24T13:42:04.000Z</time>
      </trkpt>
      <trkpt lat="46.03495" lon="6.66599">
        <ele>1627</ele>
        <time>2014-08-24T13:42:58.000Z</time>
      </trkpt>
      <trkpt lat="46.03503" lon="6.66614">
        <ele>1628</ele>
        <time>2014-08-24T13:43:01.000Z</time>
      </trkpt>
      <trkpt lat="46.03507" lon="6.66625">
        <ele>1629</ele>
        <time>2014-08-24T13:43:04.000Z</time>
      </trkpt>
      <trkpt lat="46.03507" lon="6.66636">
        <ele>1631</ele>
        <time>2014-08-24T13:43:10.000Z</time>
      </trkpt>
      <trkpt lat="46.03506" lon="6.66647">
        <ele>1633</ele>
        <time>2014-08-24T13:43:16.000Z</time>
      </trkpt>
      <trkpt lat="46.03503" lon="6.66658">
        <ele>1635</ele>
        <time>2014-08-24T13:43:22.000Z</time>
      </trkpt>
      <trkpt lat="46.03499" lon="6.66666">
        <ele>1636</ele>
        <time>2014-08-24T13:43:28.000Z</time>
      </trkpt>
      <trkpt lat="46.03493" lon="6.66674">
        <ele>1637</ele>
        <time>2014-08-24T13:43:34.000Z</time>
      </trkpt>
      <trkpt lat="46.03489" lon="6.66679">
        <ele>1638</ele>
        <time>2014-08-24T13:43:37.000Z</time>
      </trkpt>
      <trkpt lat="46.03482" lon="6.66685">
        <ele>1639</ele>
        <time>2014-08-24T13:43:43.000Z</time>
      </trkpt>
      <trkpt lat="46.03476" lon="6.6669">
        <ele>1641</ele>
        <time>2014-08-24T13:43:49.000Z</time>
      </trkpt>
      <trkpt lat="46.03469" lon="6.66693">
        <ele>1642</ele>
        <time>2014-08-24T13:43:55.000Z</time>
      </trkpt>
      <trkpt lat="46.0345" lon="6.66695">
        <ele>1647</ele>
        <time>2014-08-24T13:44:22.000Z</time>
      </trkpt>
      <trkpt lat="46.03439" lon="6.66696">
        <ele>1648</ele>
        <time>2014-08-24T13:44:25.000Z</time>
      </trkpt>
      <trkpt lat="46.03431" lon="6.66696">
        <ele>1649</ele>
        <time>2014-08-24T13:44:28.000Z</time>
      </trkpt>
      <trkpt lat="46.03422" lon="6.66696">
        <ele>1651</ele>
        <time>2014-08-24T13:44:34.000Z</time>
      </trkpt>
      <trkpt lat="46.03414" lon="6.66695">
        <ele>1652</ele>
        <time>2014-08-24T13:44:40.000Z</time>
      </trkpt>
      <trkpt lat="46.03405" lon="6.66694">
        <ele>1654</ele>
        <time>2014-08-24T13:44:46.000Z</time>
      </trkpt>
      <trkpt lat="46.03397" lon="6.66692">
        <ele>1656</ele>
        <time>2014-08-24T13:44:52.000Z</time>
      </trkpt>
      <trkpt lat="46.03391" lon="6.6669">
        <ele>1656</ele>
        <time>2014-08-24T13:44:55.000Z</time>
      </trkpt>
      <trkpt lat="46.03382" lon="6.66686">
        <ele>1657</ele>
        <time>2014-08-24T13:45:01.000Z</time>
      </trkpt>
      <trkpt lat="46.03374" lon="6.66683">
        <ele>1658</ele>
        <time>2014-08-24T13:45:04.000Z</time>
      </trkpt>
      <trkpt lat="46.03367" lon="6.6668">
        <ele>1659</ele>
        <time>2014-08-24T13:45:07.000Z</time>
      </trkpt>
      <trkpt lat="46.0336" lon="6.66676">
        <ele>1660</ele>
        <time>2014-08-24T13:45:10.000Z</time>
      </trkpt>
      <trkpt lat="46.03352" lon="6.66672">
        <ele>1660</ele>
        <time>2014-08-24T13:45:13.000Z</time>
      </trkpt>
      <trkpt lat="46.03337" lon="6.66663">
        <ele>1661</ele>
        <time>2014-08-24T13:45:16.000Z</time>
      </trkpt>
      <trkpt lat="46.03321" lon="6.66652">
        <ele>1662</ele>
        <time>2014-08-24T13:45:22.000Z</time>
      </trkpt>
      <trkpt lat="46.03305" lon="6.66643">
        <ele>1663</ele>
        <time>2014-08-24T13:45:28.000Z</time>
      </trkpt>
      <trkpt lat="46.03292" lon="6.66636">
        <ele>1664</ele>
        <time>2014-08-24T13:45:34.000Z</time>
      </trkpt>
      <trkpt lat="46.03279" lon="6.66629">
        <ele>1664</ele>
        <time>2014-08-24T13:45:40.000Z</time>
      </trkpt>
      <trkpt lat="46.03269" lon="6.66646">
        <ele>1665</ele>
        <time>2014-08-24T13:45:49.000Z</time>
      </trkpt>
      <trkpt lat="46.0326" lon="6.66661">
        <ele>1667</ele>
        <time>2014-08-24T13:46:04.000Z</time>
      </trkpt>
      <trkpt lat="46.03237" lon="6.66656">
        <ele>1672</ele>
        <time>2014-08-24T13:46:25.000Z</time>
      </trkpt>
      <trkpt lat="46.0321" lon="6.66662">
        <ele>1677</ele>
        <time>2014-08-24T13:46:55.000Z</time>
      </trkpt>
      <trkpt lat="46.03196" lon="6.66658">
        <ele>1680</ele>
        <time>2014-08-24T13:47:10.000Z</time>
      </trkpt>
      <trkpt lat="46.03189" lon="6.66654">
        <ele>1682</ele>
        <time>2014-08-24T13:47:19.000Z</time>
      </trkpt>
      <trkpt lat="46.03182" lon="6.66649">
        <ele>1683</ele>
        <time>2014-08-24T13:47:25.000Z</time>
      </trkpt>
      <trkpt lat="46.03174" lon="6.66643">
        <ele>1685</ele>
        <time>2014-08-24T13:47:31.000Z</time>
      </trkpt>
      <trkpt lat="46.03167" lon="6.66639">
        <ele>1686</ele>
        <time>2014-08-24T13:47:34.000Z</time>
      </trkpt>
      <trkpt lat="46.0316" lon="6.66635">
        <ele>1687</ele>
        <time>2014-08-24T13:47:40.000Z</time>
      </trkpt>
      <trkpt lat="46.03152" lon="6.66632">
        <ele>1689</ele>
        <time>2014-08-24T13:47:46.000Z</time>
      </trkpt>
      <trkpt lat="46.03143" lon="6.66629">
        <ele>1690</ele>
        <time>2014-08-24T13:47:52.000Z</time>
      </trkpt>
      <trkpt lat="46.03136" lon="6.66627">
        <ele>1691</ele>
        <time>2014-08-24T13:47:55.000Z</time>
      </trkpt>
      <trkpt lat="46.03128" lon="6.66624">
        <ele>1692</ele>
        <time>2014-08-24T13:48:01.000Z</time>
      </trkpt>
      <trkpt lat="46.03121" lon="6.66621">
        <ele>1693</ele>
        <time>2014-08-24T13:48:07.000Z</time>
      </trkpt>
      <trkpt lat="46.03114" lon="6.66618">
        <ele>1694</ele>
        <time>2014-08-24T13:48:13.000Z</time>
      </trkpt>
      <trkpt lat="46.03108" lon="6.66615">
        <ele>1695</ele>
        <time>2014-08-24T13:48:19.000Z</time>
      </trkpt>
      <trkpt lat="46.03101" lon="6.66612">
        <ele>1697</ele>
        <time>2014-08-24T13:48:25.000Z</time>
      </trkpt>
      <trkpt lat="46.03094" lon="6.66611">
        <ele>1698</ele>
        <time>2014-08-24T13:48:31.000Z</time>
      </trkpt>
      <trkpt lat="46.03082" lon="6.66598">
        <ele>1705</ele>
        <time>2014-08-24T13:48:58.000Z</time>
      </trkpt>
      <trkpt lat="46.03073" lon="6.66589">
        <ele>1706</ele>
        <time>2014-08-24T13:49:01.000Z</time>
      </trkpt>
      <trkpt lat="46.03067" lon="6.66583">
        <ele>1707</ele>
        <time>2014-08-24T13:49:04.000Z</time>
      </trkpt>
      <trkpt lat="46.0306" lon="6.66578">
        <ele>1708</ele>
        <time>2014-08-24T13:49:10.000Z</time>
      </trkpt>
      <trkpt lat="46.03053" lon="6.66572">
        <ele>1709</ele>
        <time>2014-08-24T13:49:16.000Z</time>
      </trkpt>
      <trkpt lat="46.03046" lon="6.66565">
        <ele>1710</ele>
        <time>2014-08-24T13:49:22.000Z</time>
      </trkpt>
      <trkpt lat="46.0304" lon="6.6656">
        <ele>1711</ele>
        <time>2014-08-24T13:49:28.000Z</time>
      </trkpt>
      <trkpt lat="46.03033" lon="6.66553">
        <ele>1712</ele>
        <time>2014-08-24T13:49:37.000Z</time>
      </trkpt>
      <trkpt lat="46.03028" lon="6.66545">
        <ele>1713</ele>
        <time>2014-08-24T13:49:40.000Z</time>
      </trkpt>
      <trkpt lat="46.03024" lon="6.66537">
        <ele>1714</ele>
        <time>2014-08-24T13:49:46.000Z</time>
      </trkpt>
      <trkpt lat="46.03017" lon="6.66528">
        <ele>1715</ele>
        <time>2014-08-24T13:49:52.000Z</time>
      </trkpt>
      <trkpt lat="46.03012" lon="6.66521">
        <ele>1715</ele>
        <time>2014-08-24T13:49:55.000Z</time>
      </trkpt>
      <trkpt lat="46.03006" lon="6.66515">
        <ele>1716</ele>
        <time>2014-08-24T13:50:01.000Z</time>
      </trkpt>
      <trkpt lat="46.02999" lon="6.66508">
        <ele>1718</ele>
        <time>2014-08-24T13:50:07.000Z</time>
      </trkpt>
      <trkpt lat="46.02992" lon="6.66501">
        <ele>1719</ele>
        <time>2014-08-24T13:50:13.000Z</time>
      </trkpt>
      <trkpt lat="46.02984" lon="6.66495">
        <ele>1720</ele>
        <time>2014-08-24T13:50:19.000Z</time>
      </trkpt>
      <trkpt lat="46.02977" lon="6.66489">
        <ele>1720</ele>
        <time>2014-08-24T13:50:22.000Z</time>
      </trkpt>
      <trkpt lat="46.02971" lon="6.66483">
        <ele>1721</ele>
        <time>2014-08-24T13:50:28.000Z</time>
      </trkpt>
      <trkpt lat="46.02964" lon="6.66478">
        <ele>1721</ele>
        <time>2014-08-24T13:50:34.000Z</time>
      </trkpt>
      <trkpt lat="46.02961" lon="6.66469">
        <ele>1722</ele>
        <time>2014-08-24T13:50:37.000Z</time>
      </trkpt>
      <trkpt lat="46.02959" lon="6.66459">
        <ele>1722</ele>
        <time>2014-08-24T13:50:43.000Z</time>
      </trkpt>
      <trkpt lat="46.02957" lon="6.66448">
        <ele>1723</ele>
        <time>2014-08-24T13:50:49.000Z</time>
      </trkpt>
      <trkpt lat="46.02955" lon="6.66436">
        <ele>1724</ele>
        <time>2014-08-24T13:50:55.000Z</time>
      </trkpt>
      <trkpt lat="46.02954" lon="6.66427">
        <ele>1725</ele>
        <time>2014-08-24T13:50:58.000Z</time>
      </trkpt>
      <trkpt lat="46.02954" lon="6.66416">
        <ele>1727</ele>
        <time>2014-08-24T13:51:07.000Z</time>
      </trkpt>
      <trkpt lat="46.02954" lon="6.66406">
        <ele>1729</ele>
        <time>2014-08-24T13:51:13.000Z</time>
      </trkpt>
      <trkpt lat="46.02952" lon="6.66395">
        <ele>1730</ele>
        <time>2014-08-24T13:51:19.000Z</time>
      </trkpt>
      <trkpt lat="46.02949" lon="6.66386">
        <ele>1732</ele>
        <time>2014-08-24T13:51:25.000Z</time>
      </trkpt>
      <trkpt lat="46.02943" lon="6.66379">
        <ele>1733</ele>
        <time>2014-08-24T13:51:31.000Z</time>
      </trkpt>
      <trkpt lat="46.02935" lon="6.66374">
        <ele>1735</ele>
        <time>2014-08-24T13:51:37.000Z</time>
      </trkpt>
      <trkpt lat="46.02929" lon="6.66371">
        <ele>1735</ele>
        <time>2014-08-24T13:51:40.000Z</time>
      </trkpt>
      <trkpt lat="46.02922" lon="6.66368">
        <ele>1737</ele>
        <time>2014-08-24T13:51:46.000Z</time>
      </trkpt>
      <trkpt lat="46.02914" lon="6.6637">
        <ele>1739</ele>
        <time>2014-08-24T13:51:52.000Z</time>
      </trkpt>
      <trkpt lat="46.02907" lon="6.66371">
        <ele>1739</ele>
        <time>2014-08-24T13:51:55.000Z</time>
      </trkpt>
      <trkpt lat="46.02898" lon="6.66371">
        <ele>1741</ele>
        <time>2014-08-24T13:52:01.000Z</time>
      </trkpt>
      <trkpt lat="46.0289" lon="6.66372">
        <ele>1741</ele>
        <time>2014-08-24T13:52:04.000Z</time>
      </trkpt>
      <trkpt lat="46.02883" lon="6.66373">
        <ele>1742</ele>
        <time>2014-08-24T13:52:07.000Z</time>
      </trkpt>
      <trkpt lat="46.02877" lon="6.66374">
        <ele>1743</ele>
        <time>2014-08-24T13:52:10.000Z</time>
      </trkpt>
      <trkpt lat="46.02871" lon="6.66376">
        <ele>1744</ele>
        <time>2014-08-24T13:52:13.000Z</time>
      </trkpt>
      <trkpt lat="46.02858" lon="6.66381">
        <ele>1744</ele>
        <time>2014-08-24T13:52:16.000Z</time>
      </trkpt>
      <trkpt lat="46.02843" lon="6.66386">
        <ele>1746</ele>
        <time>2014-08-24T13:52:25.000Z</time>
      </trkpt>
      <trkpt lat="46.02831" lon="6.66392">
        <ele>1749</ele>
        <time>2014-08-24T13:52:34.000Z</time>
      </trkpt>
      <trkpt lat="46.02819" lon="6.66396">
        <ele>1752</ele>
        <time>2014-08-24T13:52:43.000Z</time>
      </trkpt>
      <trkpt lat="46.02805" lon="6.66412">
        <ele>1755</ele>
        <time>2014-08-24T13:52:52.000Z</time>
      </trkpt>
      <trkpt lat="46.02794" lon="6.66424">
        <ele>1757</ele>
        <time>2014-08-24T13:53:01.000Z</time>
      </trkpt>
      <trkpt lat="46.02784" lon="6.66434">
        <ele>1758</ele>
        <time>2014-08-24T13:53:10.000Z</time>
      </trkpt>
      <trkpt lat="46.02771" lon="6.66438">
        <ele>1759</ele>
        <time>2014-08-24T13:53:19.000Z</time>
      </trkpt>
      <trkpt lat="46.02756" lon="6.66439">
        <ele>1761</ele>
        <time>2014-08-24T13:53:31.000Z</time>
      </trkpt>
      <trkpt lat="46.02742" lon="6.66441">
        <ele>1764</ele>
        <time>2014-08-24T13:53:43.000Z</time>
      </trkpt>
      <trkpt lat="46.0273" lon="6.66456">
        <ele>1767</ele>
        <time>2014-08-24T13:53:52.000Z</time>
      </trkpt>
      <trkpt lat="46.02723" lon="6.6648">
        <ele>1774</ele>
        <time>2014-08-24T13:54:16.000Z</time>
      </trkpt>
      <trkpt lat="46.02713" lon="6.66503">
        <ele>1787</ele>
        <time>2014-08-24T13:55:13.000Z</time>
      </trkpt>
      <trkpt lat="46.02707" lon="6.66516">
        <ele>1788</ele>
        <time>2014-08-24T13:55:16.000Z</time>
      </trkpt>
      <trkpt lat="46.02699" lon="6.66536">
        <ele>1797</ele>
        <time>2014-08-24T13:55:49.000Z</time>
      </trkpt>
      <trkpt lat="46.02694" lon="6.66548">
        <ele>1797</ele>
        <time>2014-08-24T13:55:52.000Z</time>
      </trkpt>
      <trkpt lat="46.02691" lon="6.66556">
        <ele>1798</ele>
        <time>2014-08-24T13:55:55.000Z</time>
      </trkpt>
      <trkpt lat="46.02685" lon="6.66559">
        <ele>1799</ele>
        <time>2014-08-24T13:56:01.000Z</time>
      </trkpt>
      <trkpt lat="46.02678" lon="6.6656">
        <ele>1801</ele>
        <time>2014-08-24T13:56:07.000Z</time>
      </trkpt>
      <trkpt lat="46.0267" lon="6.6656">
        <ele>1802</ele>
        <time>2014-08-24T13:56:13.000Z</time>
      </trkpt>
      <trkpt lat="46.02664" lon="6.66571">
        <ele>1804</ele>
        <time>2014-08-24T13:57:03.000Z</time>
      </trkpt>
      <trkpt lat="46.02662" lon="6.6658">
        <ele>1804</ele>
        <time>2014-08-24T13:57:06.000Z</time>
      </trkpt>
      <trkpt lat="46.02665" lon="6.66593">
        <ele>1804</ele>
        <time>2014-08-24T13:57:12.000Z</time>
      </trkpt>
      <trkpt lat="46.02668" lon="6.66604">
        <ele>1804</ele>
        <time>2014-08-24T13:57:15.000Z</time>
      </trkpt>
      <trkpt lat="46.02673" lon="6.66613">
        <ele>1804</ele>
        <time>2014-08-24T13:57:18.000Z</time>
      </trkpt>
      <trkpt lat="46.02679" lon="6.66622">
        <ele>1804</ele>
        <time>2014-08-24T13:57:21.000Z</time>
      </trkpt>
      <trkpt lat="46.02687" lon="6.66631">
        <ele>1804</ele>
        <time>2014-08-24T13:57:24.000Z</time>
      </trkpt>
      <trkpt lat="46.027" lon="6.6665">
        <ele>1804</ele>
        <time>2014-08-24T13:57:27.000Z</time>
      </trkpt>
      <trkpt lat="46.02707" lon="6.66671">
        <ele>1804</ele>
        <time>2014-08-24T13:57:33.000Z</time>
      </trkpt>
      <trkpt lat="46.02717" lon="6.66696">
        <ele>1803</ele>
        <time>2014-08-24T13:57:39.000Z</time>
      </trkpt>
      <trkpt lat="46.02724" lon="6.66719">
        <ele>1803</ele>
        <time>2014-08-24T13:57:45.000Z</time>
      </trkpt>
      <trkpt lat="46.02731" lon="6.66743">
        <ele>1803</ele>
        <time>2014-08-24T13:57:51.000Z</time>
      </trkpt>
      <trkpt lat="46.02738" lon="6.66766">
        <ele>1802</ele>
        <time>2014-08-24T13:57:57.000Z</time>
      </trkpt>
      <trkpt lat="46.02746" lon="6.66788">
        <ele>1802</ele>
        <time>2014-08-24T13:58:03.000Z</time>
      </trkpt>
      <trkpt lat="46.02752" lon="6.66811">
        <ele>1800</ele>
        <time>2014-08-24T13:58:09.000Z</time>
      </trkpt>
      <trkpt lat="46.02755" lon="6.66831">
        <ele>1799</ele>
        <time>2014-08-24T13:58:15.000Z</time>
      </trkpt>
      <trkpt lat="46.0276" lon="6.66854">
        <ele>1798</ele>
        <time>2014-08-24T13:58:21.000Z</time>
      </trkpt>
      <trkpt lat="46.02771" lon="6.66873">
        <ele>1796</ele>
        <time>2014-08-24T13:58:30.000Z</time>
      </trkpt>
      <trkpt lat="46.02779" lon="6.66893">
        <ele>1794</ele>
        <time>2014-08-24T13:58:36.000Z</time>
      </trkpt>
      <trkpt lat="46.02788" lon="6.66911">
        <ele>1793</ele>
        <time>2014-08-24T13:58:42.000Z</time>
      </trkpt>
      <trkpt lat="46.02798" lon="6.66929">
        <ele>1793</ele>
        <time>2014-08-24T13:58:48.000Z</time>
      </trkpt>
      <trkpt lat="46.02809" lon="6.66942">
        <ele>1792</ele>
        <time>2014-08-24T13:58:54.000Z</time>
      </trkpt>
      <trkpt lat="46.0282" lon="6.66955">
        <ele>1791</ele>
        <time>2014-08-24T13:59:00.000Z</time>
      </trkpt>
      <trkpt lat="46.02831" lon="6.66969">
        <ele>1790</ele>
        <time>2014-08-24T13:59:06.000Z</time>
      </trkpt>
      <trkpt lat="46.02842" lon="6.66982">
        <ele>1789</ele>
        <time>2014-08-24T13:59:12.000Z</time>
      </trkpt>
      <trkpt lat="46.02852" lon="6.66995">
        <ele>1788</ele>
        <time>2014-08-24T13:59:18.000Z</time>
      </trkpt>
      <trkpt lat="46.02851" lon="6.67029">
        <ele>1788</ele>
        <time>2014-08-24T13:59:24.000Z</time>
      </trkpt>
      <trkpt lat="46.0286" lon="6.67046">
        <ele>1789</ele>
        <time>2014-08-24T13:59:30.000Z</time>
      </trkpt>
      <trkpt lat="46.02868" lon="6.67061">
        <ele>1789</ele>
        <time>2014-08-24T13:59:36.000Z</time>
      </trkpt>
      <trkpt lat="46.02881" lon="6.67073">
        <ele>1789</ele>
        <time>2014-08-24T13:59:42.000Z</time>
      </trkpt>
      <trkpt lat="46.02898" lon="6.67088">
        <ele>1789</ele>
        <time>2014-08-24T13:59:51.000Z</time>
      </trkpt>
      <trkpt lat="46.02901" lon="6.67117">
        <ele>1790</ele>
        <time>2014-08-24T13:59:57.000Z</time>
      </trkpt>
      <trkpt lat="46.02916" lon="6.67134">
        <ele>1791</ele>
        <time>2014-08-24T14:00:06.000Z</time>
      </trkpt>
      <trkpt lat="46.02923" lon="6.67142">
        <ele>1791</ele>
        <time>2014-08-24T14:00:15.000Z</time>
      </trkpt>
      <trkpt lat="46.02929" lon="6.67149">
        <ele>1791</ele>
        <time>2014-08-24T14:00:18.000Z</time>
      </trkpt>
      <trkpt lat="46.02935" lon="6.67156">
        <ele>1792</ele>
        <time>2014-08-24T14:00:21.000Z</time>
      </trkpt>
      <trkpt lat="46.02941" lon="6.67163">
        <ele>1792</ele>
        <time>2014-08-24T14:00:24.000Z</time>
      </trkpt>
      <trkpt lat="46.02947" lon="6.67169">
        <ele>1792</ele>
        <time>2014-08-24T14:00:27.000Z</time>
      </trkpt>
      <trkpt lat="46.0296" lon="6.67177">
        <ele>1792</ele>
        <time>2014-08-24T14:00:30.000Z</time>
      </trkpt>
      <trkpt lat="46.02979" lon="6.67192">
        <ele>1792</ele>
        <time>2014-08-24T14:00:39.000Z</time>
      </trkpt>
      <trkpt lat="46.02991" lon="6.67202">
        <ele>1792</ele>
        <time>2014-08-24T14:00:45.000Z</time>
      </trkpt>
      <trkpt lat="46.03004" lon="6.67213">
        <ele>1794</ele>
        <time>2014-08-24T14:00:51.000Z</time>
      </trkpt>
      <trkpt lat="46.03018" lon="6.67219">
        <ele>1795</ele>
        <time>2014-08-24T14:00:57.000Z</time>
      </trkpt>
      <trkpt lat="46.03034" lon="6.67231">
        <ele>1794</ele>
        <time>2014-08-24T14:01:03.000Z</time>
      </trkpt>
      <trkpt lat="46.03047" lon="6.67241">
        <ele>1794</ele>
        <time>2014-08-24T14:01:09.000Z</time>
      </trkpt>
      <trkpt lat="46.03057" lon="6.67254">
        <ele>1793</ele>
        <time>2014-08-24T14:01:15.000Z</time>
      </trkpt>
      <trkpt lat="46.03069" lon="6.67276">
        <ele>1791</ele>
        <time>2014-08-24T14:01:24.000Z</time>
      </trkpt>
      <trkpt lat="46.03081" lon="6.67292">
        <ele>1790</ele>
        <time>2014-08-24T14:01:30.000Z</time>
      </trkpt>
      <trkpt lat="46.03093" lon="6.67304">
        <ele>1790</ele>
        <time>2014-08-24T14:01:36.000Z</time>
      </trkpt>
      <trkpt lat="46.03106" lon="6.67319">
        <ele>1789</ele>
        <time>2014-08-24T14:01:42.000Z</time>
      </trkpt>
      <trkpt lat="46.03123" lon="6.67338">
        <ele>1788</ele>
        <time>2014-08-24T14:01:51.000Z</time>
      </trkpt>
      <trkpt lat="46.0313" lon="6.67363">
        <ele>1788</ele>
        <time>2014-08-24T14:01:57.000Z</time>
      </trkpt>
      <trkpt lat="46.03139" lon="6.67385">
        <ele>1789</ele>
        <time>2014-08-24T14:02:03.000Z</time>
      </trkpt>
      <trkpt lat="46.03147" lon="6.67402">
        <ele>1790</ele>
        <time>2014-08-24T14:02:09.000Z</time>
      </trkpt>
      <trkpt lat="46.03154" lon="6.67423">
        <ele>1791</ele>
        <time>2014-08-24T14:02:18.000Z</time>
      </trkpt>
      <trkpt lat="46.0316" lon="6.67441">
        <ele>1791</ele>
        <time>2014-08-24T14:02:24.000Z</time>
      </trkpt>
      <trkpt lat="46.03169" lon="6.67459">
        <ele>1792</ele>
        <time>2014-08-24T14:02:30.000Z</time>
      </trkpt>
      <trkpt lat="46.03174" lon="6.67481">
        <ele>1792</ele>
        <time>2014-08-24T14:02:36.000Z</time>
      </trkpt>
      <trkpt lat="46.03181" lon="6.67501">
        <ele>1793</ele>
        <time>2014-08-24T14:02:42.000Z</time>
      </trkpt>
      <trkpt lat="46.03189" lon="6.67523">
        <ele>1793</ele>
        <time>2014-08-24T14:02:48.000Z</time>
      </trkpt>
      <trkpt lat="46.03201" lon="6.67564">
        <ele>1795</ele>
        <time>2014-08-24T14:03:00.000Z</time>
      </trkpt>
      <trkpt lat="46.03207" lon="6.67586">
        <ele>1797</ele>
        <time>2014-08-24T14:03:06.000Z</time>
      </trkpt>
      <trkpt lat="46.0321" lon="6.67596">
        <ele>1798</ele>
        <time>2014-08-24T14:03:12.000Z</time>
      </trkpt>
      <trkpt lat="46.03212" lon="6.67605">
        <ele>1799</ele>
        <time>2014-08-24T14:03:15.000Z</time>
      </trkpt>
      <trkpt lat="46.03215" lon="6.67615">
        <ele>1800</ele>
        <time>2014-08-24T14:03:18.000Z</time>
      </trkpt>
      <trkpt lat="46.03217" lon="6.67624">
        <ele>1801</ele>
        <time>2014-08-24T14:03:21.000Z</time>
      </trkpt>
      <trkpt lat="46.0322" lon="6.67634">
        <ele>1801</ele>
        <time>2014-08-24T14:03:24.000Z</time>
      </trkpt>
      <trkpt lat="46.03225" lon="6.67653">
        <ele>1802</ele>
        <time>2014-08-24T14:03:27.000Z</time>
      </trkpt>
      <trkpt lat="46.03231" lon="6.67672">
        <ele>1803</ele>
        <time>2014-08-24T14:03:33.000Z</time>
      </trkpt>
      <trkpt lat="46.03239" lon="6.67692">
        <ele>1803</ele>
        <time>2014-08-24T14:03:39.000Z</time>
      </trkpt>
      <trkpt lat="46.03242" lon="6.67713">
        <ele>1802</ele>
        <time>2014-08-24T14:03:45.000Z</time>
      </trkpt>
      <trkpt lat="46.03246" lon="6.67736">
        <ele>1802</ele>
        <time>2014-08-24T14:03:51.000Z</time>
      </trkpt>
      <trkpt lat="46.0325" lon="6.67758">
        <ele>1802</ele>
        <time>2014-08-24T14:03:57.000Z</time>
      </trkpt>
      <trkpt lat="46.03253" lon="6.67777">
        <ele>1802</ele>
        <time>2014-08-24T14:04:03.000Z</time>
      </trkpt>
      <trkpt lat="46.03251" lon="6.67798">
        <ele>1802</ele>
        <time>2014-08-24T14:04:09.000Z</time>
      </trkpt>
      <trkpt lat="46.03254" lon="6.67819">
        <ele>1802</ele>
        <time>2014-08-24T14:04:15.000Z</time>
      </trkpt>
      <trkpt lat="46.03255" lon="6.67841">
        <ele>1802</ele>
        <time>2014-08-24T14:04:21.000Z</time>
      </trkpt>
      <trkpt lat="46.03252" lon="6.67862">
        <ele>1802</ele>
        <time>2014-08-24T14:04:27.000Z</time>
      </trkpt>
      <trkpt lat="46.03249" lon="6.67883">
        <ele>1802</ele>
        <time>2014-08-24T14:04:33.000Z</time>
      </trkpt>
      <trkpt lat="46.03246" lon="6.67905">
        <ele>1802</ele>
        <time>2014-08-24T14:04:39.000Z</time>
      </trkpt>
      <trkpt lat="46.03244" lon="6.67929">
        <ele>1801</ele>
        <time>2014-08-24T14:04:48.000Z</time>
      </trkpt>
      <trkpt lat="46.03244" lon="6.67948">
        <ele>1801</ele>
        <time>2014-08-24T14:04:54.000Z</time>
      </trkpt>
      <trkpt lat="46.03242" lon="6.67969">
        <ele>1801</ele>
        <time>2014-08-24T14:05:00.000Z</time>
      </trkpt>
      <trkpt lat="46.03233" lon="6.67995">
        <ele>1802</ele>
        <time>2014-08-24T14:05:09.000Z</time>
      </trkpt>
      <trkpt lat="46.03226" lon="6.6801">
        <ele>1802</ele>
        <time>2014-08-24T14:05:15.000Z</time>
      </trkpt>
      <trkpt lat="46.03218" lon="6.68027">
        <ele>1802</ele>
        <time>2014-08-24T14:05:21.000Z</time>
      </trkpt>
      <trkpt lat="46.03214" lon="6.68046">
        <ele>1801</ele>
        <time>2014-08-24T14:05:27.000Z</time>
      </trkpt>
      <trkpt lat="46.03205" lon="6.68085">
        <ele>1801</ele>
        <time>2014-08-24T14:05:39.000Z</time>
      </trkpt>
      <trkpt lat="46.03201" lon="6.68103">
        <ele>1801</ele>
        <time>2014-08-24T14:05:45.000Z</time>
      </trkpt>
      <trkpt lat="46.03197" lon="6.68122">
        <ele>1801</ele>
        <time>2014-08-24T14:05:51.000Z</time>
      </trkpt>
      <trkpt lat="46.03194" lon="6.68142">
        <ele>1802</ele>
        <time>2014-08-24T14:05:57.000Z</time>
      </trkpt>
      <trkpt lat="46.03186" lon="6.68123">
        <ele>1803</ele>
        <time>2014-08-24T14:06:06.000Z</time>
      </trkpt>
      <trkpt lat="46.03185" lon="6.68111">
        <ele>1803</ele>
        <time>2014-08-24T14:06:12.000Z</time>
      </trkpt>
      <trkpt lat="46.03182" lon="6.681">
        <ele>1803</ele>
        <time>2014-08-24T14:06:15.000Z</time>
      </trkpt>
      <trkpt lat="46.03181" lon="6.6809">
        <ele>1802</ele>
        <time>2014-08-24T14:06:18.000Z</time>
      </trkpt>
      <trkpt lat="46.03173" lon="6.68083">
        <ele>1802</ele>
        <time>2014-08-24T14:06:21.000Z</time>
      </trkpt>
      <trkpt lat="46.03165" lon="6.68078">
        <ele>1802</ele>
        <time>2014-08-24T14:06:24.000Z</time>
      </trkpt>
      <trkpt lat="46.03151" lon="6.68069">
        <ele>1802</ele>
        <time>2014-08-24T14:06:27.000Z</time>
      </trkpt>
      <trkpt lat="46.03139" lon="6.68061">
        <ele>1802</ele>
        <time>2014-08-24T14:06:36.000Z</time>
      </trkpt>
      <trkpt lat="46.03123" lon="6.68051">
        <ele>1802</ele>
        <time>2014-08-24T14:06:45.000Z</time>
      </trkpt>
      <trkpt lat="46.03106" lon="6.6804">
        <ele>1803</ele>
        <time>2014-08-24T14:06:54.000Z</time>
      </trkpt>
      <trkpt lat="46.03088" lon="6.68061">
        <ele>1803</ele>
        <time>2014-08-24T14:07:00.000Z</time>
      </trkpt>
      <trkpt lat="46.03075" lon="6.68055">
        <ele>1803</ele>
        <time>2014-08-24T14:07:06.000Z</time>
      </trkpt>
      <trkpt lat="46.03062" lon="6.68043">
        <ele>1803</ele>
        <time>2014-08-24T14:07:12.000Z</time>
      </trkpt>
      <trkpt lat="46.03051" lon="6.68033">
        <ele>1804</ele>
        <time>2014-08-24T14:07:18.000Z</time>
      </trkpt>
      <trkpt lat="46.03035" lon="6.6802">
        <ele>1805</ele>
        <time>2014-08-24T14:07:27.000Z</time>
      </trkpt>
      <trkpt lat="46.03013" lon="6.68016">
        <ele>1805</ele>
        <time>2014-08-24T14:07:36.000Z</time>
      </trkpt>
      <trkpt lat="46.02991" lon="6.68013">
        <ele>1805</ele>
        <time>2014-08-24T14:07:45.000Z</time>
      </trkpt>
      <trkpt lat="46.02976" lon="6.68009">
        <ele>1805</ele>
        <time>2014-08-24T14:07:51.000Z</time>
      </trkpt>
      <trkpt lat="46.02962" lon="6.68006">
        <ele>1805</ele>
        <time>2014-08-24T14:08:00.000Z</time>
      </trkpt>
      <trkpt lat="46.02949" lon="6.68013">
        <ele>1804</ele>
        <time>2014-08-24T14:08:12.000Z</time>
      </trkpt>
      <trkpt lat="46.02938" lon="6.67991">
        <ele>1805</ele>
        <time>2014-08-24T14:08:36.000Z</time>
      </trkpt>
      <trkpt lat="46.02934" lon="6.67983">
        <ele>1806</ele>
        <time>2014-08-24T14:08:45.000Z</time>
      </trkpt>
      <trkpt lat="46.0293" lon="6.67975">
        <ele>1806</ele>
        <time>2014-08-24T14:08:48.000Z</time>
      </trkpt>
      <trkpt lat="46.02925" lon="6.67965">
        <ele>1806</ele>
        <time>2014-08-24T14:08:54.000Z</time>
      </trkpt>
      <trkpt lat="46.02921" lon="6.67957">
        <ele>1806</ele>
        <time>2014-08-24T14:08:57.000Z</time>
      </trkpt>
      <trkpt lat="46.02916" lon="6.67948">
        <ele>1806</ele>
        <time>2014-08-24T14:09:03.000Z</time>
      </trkpt>
      <trkpt lat="46.02911" lon="6.67941">
        <ele>1806</ele>
        <time>2014-08-24T14:09:06.000Z</time>
      </trkpt>
      <trkpt lat="46.02906" lon="6.67932">
        <ele>1807</ele>
        <time>2014-08-24T14:09:12.000Z</time>
      </trkpt>
      <trkpt lat="46.02902" lon="6.67919">
        <ele>1807</ele>
        <time>2014-08-24T14:09:18.000Z</time>
      </trkpt>
      <trkpt lat="46.02898" lon="6.67908">
        <ele>1808</ele>
        <time>2014-08-24T14:09:21.000Z</time>
      </trkpt>
      <trkpt lat="46.02893" lon="6.67899">
        <ele>1808</ele>
        <time>2014-08-24T14:09:24.000Z</time>
      </trkpt>
      <trkpt lat="46.02889" lon="6.67891">
        <ele>1808</ele>
        <time>2014-08-24T14:09:27.000Z</time>
      </trkpt>
      <trkpt lat="46.02885" lon="6.67882">
        <ele>1808</ele>
        <time>2014-08-24T14:09:30.000Z</time>
      </trkpt>
      <trkpt lat="46.02877" lon="6.67865">
        <ele>1808</ele>
        <time>2014-08-24T14:09:33.000Z</time>
      </trkpt>
      <trkpt lat="46.02865" lon="6.67848">
        <ele>1808</ele>
        <time>2014-08-24T14:09:39.000Z</time>
      </trkpt>
      <trkpt lat="46.02852" lon="6.67835">
        <ele>1808</ele>
        <time>2014-08-24T14:09:45.000Z</time>
      </trkpt>
      <trkpt lat="46.02841" lon="6.67823">
        <ele>1808</ele>
        <time>2014-08-24T14:09:51.000Z</time>
      </trkpt>
      <trkpt lat="46.0283" lon="6.67812">
        <ele>1807</ele>
        <time>2014-08-24T14:10:00.000Z</time>
      </trkpt>
      <trkpt lat="46.02818" lon="6.67799">
        <ele>1807</ele>
        <time>2014-08-24T14:10:15.000Z</time>
      </trkpt>
      <trkpt lat="46.02799" lon="6.67835">
        <ele>1807</ele>
        <time>2014-08-24T14:10:21.000Z</time>
      </trkpt>
      <trkpt lat="46.0279" lon="6.67849">
        <ele>1807</ele>
        <time>2014-08-24T14:10:27.000Z</time>
      </trkpt>
      <trkpt lat="46.02774" lon="6.67862">
        <ele>1806</ele>
        <time>2014-08-24T14:10:33.000Z</time>
      </trkpt>
      <trkpt lat="46.0276" lon="6.67872">
        <ele>1806</ele>
        <time>2014-08-24T14:10:39.000Z</time>
      </trkpt>
      <trkpt lat="46.02747" lon="6.6786">
        <ele>1805</ele>
        <time>2014-08-24T14:10:45.000Z</time>
      </trkpt>
      <trkpt lat="46.02736" lon="6.6785">
        <ele>1804</ele>
        <time>2014-08-24T14:10:51.000Z</time>
      </trkpt>
      <trkpt lat="46.02717" lon="6.67842">
        <ele>1804</ele>
        <time>2014-08-24T14:10:57.000Z</time>
      </trkpt>
      <trkpt lat="46.027" lon="6.67836">
        <ele>1804</ele>
        <time>2014-08-24T14:11:06.000Z</time>
      </trkpt>
      <trkpt lat="46.02682" lon="6.67829">
        <ele>1805</ele>
        <time>2014-08-24T14:11:15.000Z</time>
      </trkpt>
      <trkpt lat="46.02671" lon="6.678">
        <ele>1805</ele>
        <time>2014-08-24T14:11:21.000Z</time>
      </trkpt>
      <trkpt lat="46.02654" lon="6.67795">
        <ele>1805</ele>
        <time>2014-08-24T14:11:30.000Z</time>
      </trkpt>
      <trkpt lat="46.02639" lon="6.67792">
        <ele>1805</ele>
        <time>2014-08-24T14:11:36.000Z</time>
      </trkpt>
      <trkpt lat="46.0262" lon="6.6783">
        <ele>1803</ele>
        <time>2014-08-24T14:11:48.000Z</time>
      </trkpt>
      <trkpt lat="46.02605" lon="6.67849">
        <ele>1802</ele>
        <time>2014-08-24T14:11:54.000Z</time>
      </trkpt>
      <trkpt lat="46.02591" lon="6.67866">
        <ele>1801</ele>
        <time>2014-08-24T14:12:00.000Z</time>
      </trkpt>
      <trkpt lat="46.02586" lon="6.67875">
        <ele>1800</ele>
        <time>2014-08-24T14:12:06.000Z</time>
      </trkpt>
      <trkpt lat="46.02581" lon="6.67885">
        <ele>1799</ele>
        <time>2014-08-24T14:12:09.000Z</time>
      </trkpt>
      <trkpt lat="46.02576" lon="6.67897">
        <ele>1799</ele>
        <time>2014-08-24T14:12:12.000Z</time>
      </trkpt>
      <trkpt lat="46.02571" lon="6.67909">
        <ele>1798</ele>
        <time>2014-08-24T14:12:15.000Z</time>
      </trkpt>
      <trkpt lat="46.02566" lon="6.6792">
        <ele>1798</ele>
        <time>2014-08-24T14:12:18.000Z</time>
      </trkpt>
      <trkpt lat="46.02558" lon="6.6794">
        <ele>1797</ele>
        <time>2014-08-24T14:12:21.000Z</time>
      </trkpt>
      <trkpt lat="46.02552" lon="6.67972">
        <ele>1794</ele>
        <time>2014-08-24T14:12:33.000Z</time>
      </trkpt>
      <trkpt lat="46.02542" lon="6.67986">
        <ele>1792</ele>
        <time>2014-08-24T14:12:39.000Z</time>
      </trkpt>
      <trkpt lat="46.02533" lon="6.67999">
        <ele>1790</ele>
        <time>2014-08-24T14:12:48.000Z</time>
      </trkpt>
      <trkpt lat="46.02528" lon="6.68021">
        <ele>1788</ele>
        <time>2014-08-24T14:12:54.000Z</time>
      </trkpt>
      <trkpt lat="46.02529" lon="6.68043">
        <ele>1786</ele>
        <time>2014-08-24T14:13:00.000Z</time>
      </trkpt>
      <trkpt lat="46.02531" lon="6.68063">
        <ele>1784</ele>
        <time>2014-08-24T14:13:06.000Z</time>
      </trkpt>
      <trkpt lat="46.02533" lon="6.68088">
        <ele>1782</ele>
        <time>2014-08-24T14:13:12.000Z</time>
      </trkpt>
      <trkpt lat="46.02529" lon="6.68106">
        <ele>1780</ele>
        <time>2014-08-24T14:13:18.000Z</time>
      </trkpt>
      <trkpt lat="46.02525" lon="6.6813">
        <ele>1780</ele>
        <time>2014-08-24T14:13:27.000Z</time>
      </trkpt>
      <trkpt lat="46.02513" lon="6.68136">
        <ele>1780</ele>
        <time>2014-08-24T14:13:33.000Z</time>
      </trkpt>
      <trkpt lat="46.02501" lon="6.68142">
        <ele>1780</ele>
        <time>2014-08-24T14:13:42.000Z</time>
      </trkpt>
      <trkpt lat="46.02488" lon="6.68148">
        <ele>1778</ele>
        <time>2014-08-24T14:13:48.000Z</time>
      </trkpt>
      <trkpt lat="46.02478" lon="6.68168">
        <ele>1777</ele>
        <time>2014-08-24T14:13:57.000Z</time>
      </trkpt>
      <trkpt lat="46.02465" lon="6.68174">
        <ele>1777</ele>
        <time>2014-08-24T14:14:03.000Z</time>
      </trkpt>
      <trkpt lat="46.02453" lon="6.68181">
        <ele>1776</ele>
        <time>2014-08-24T14:14:09.000Z</time>
      </trkpt>
      <trkpt lat="46.02446" lon="6.68208">
        <ele>1774</ele>
        <time>2014-08-24T14:14:18.000Z</time>
      </trkpt>
      <trkpt lat="46.02443" lon="6.6823">
        <ele>1773</ele>
        <time>2014-08-24T14:14:30.000Z</time>
      </trkpt>
      <trkpt lat="46.02442" lon="6.6824">
        <ele>1773</ele>
        <time>2014-08-24T14:14:45.000Z</time>
      </trkpt>
      <trkpt lat="46.02443" lon="6.68251">
        <ele>1773</ele>
        <time>2014-08-24T14:14:51.000Z</time>
      </trkpt>
      <trkpt lat="46.02439" lon="6.68274">
        <ele>1776</ele>
        <time>2014-08-24T14:15:21.000Z</time>
      </trkpt>
      <trkpt lat="46.02435" lon="6.68287">
        <ele>1776</ele>
        <time>2014-08-24T14:15:24.000Z</time>
      </trkpt>
      <trkpt lat="46.02431" lon="6.68295">
        <ele>1776</ele>
        <time>2014-08-24T14:15:27.000Z</time>
      </trkpt>
      <trkpt lat="46.02428" lon="6.68304">
        <ele>1776</ele>
        <time>2014-08-24T14:15:33.000Z</time>
      </trkpt>
      <trkpt lat="46.02423" lon="6.6831">
        <ele>1777</ele>
        <time>2014-08-24T14:15:36.000Z</time>
      </trkpt>
      <trkpt lat="46.02419" lon="6.68318">
        <ele>1777</ele>
        <time>2014-08-24T14:15:39.000Z</time>
      </trkpt>
      <trkpt lat="46.02415" lon="6.68329">
        <ele>1777</ele>
        <time>2014-08-24T14:15:42.000Z</time>
      </trkpt>
      <trkpt lat="46.02412" lon="6.6834">
        <ele>1776</ele>
        <time>2014-08-24T14:15:45.000Z</time>
      </trkpt>
      <trkpt lat="46.02405" lon="6.68362">
        <ele>1776</ele>
        <time>2014-08-24T14:15:48.000Z</time>
      </trkpt>
      <trkpt lat="46.02396" lon="6.68381">
        <ele>1775</ele>
        <time>2014-08-24T14:15:54.000Z</time>
      </trkpt>
      <trkpt lat="46.02389" lon="6.68398">
        <ele>1775</ele>
        <time>2014-08-24T14:16:00.000Z</time>
      </trkpt>
      <trkpt lat="46.02382" lon="6.68418">
        <ele>1775</ele>
        <time>2014-08-24T14:16:09.000Z</time>
      </trkpt>
      <trkpt lat="46.02382" lon="6.68445">
        <ele>1775</ele>
        <time>2014-08-24T14:16:30.000Z</time>
      </trkpt>
      <trkpt lat="46.02379" lon="6.68469">
        <ele>1778</ele>
        <time>2014-08-24T14:16:45.000Z</time>
      </trkpt>
      <trkpt lat="46.02384" lon="6.68492">
        <ele>1781</ele>
        <time>2014-08-24T14:16:57.000Z</time>
      </trkpt>
      <trkpt lat="46.02386" lon="6.68534">
        <ele>1798</ele>
        <time>2014-08-24T14:17:54.000Z</time>
      </trkpt>
      <trkpt lat="46.02385" lon="6.68558">
        <ele>1798</ele>
        <time>2014-08-24T14:17:57.000Z</time>
      </trkpt>
      <trkpt lat="46.02385" lon="6.68573">
        <ele>1799</ele>
        <time>2014-08-24T14:18:00.000Z</time>
      </trkpt>
      <trkpt lat="46.02384" lon="6.68584">
        <ele>1800</ele>
        <time>2014-08-24T14:18:03.000Z</time>
      </trkpt>
      <trkpt lat="46.02384" lon="6.68595">
        <ele>1800</ele>
        <time>2014-08-24T14:18:09.000Z</time>
      </trkpt>
      <trkpt lat="46.02383" lon="6.68607">
        <ele>1800</ele>
        <time>2014-08-24T14:18:15.000Z</time>
      </trkpt>
      <trkpt lat="46.02382" lon="6.68618">
        <ele>1800</ele>
        <time>2014-08-24T14:18:21.000Z</time>
      </trkpt>
      <trkpt lat="46.02382" lon="6.68628">
        <ele>1800</ele>
        <time>2014-08-24T14:18:27.000Z</time>
      </trkpt>
      <trkpt lat="46.02383" lon="6.68639">
        <ele>1800</ele>
        <time>2014-08-24T14:18:33.000Z</time>
      </trkpt>
      <trkpt lat="46.02384" lon="6.6865">
        <ele>1801</ele>
        <time>2014-08-24T14:18:42.000Z</time>
      </trkpt>
      <trkpt lat="46.02385" lon="6.68661">
        <ele>1802</ele>
        <time>2014-08-24T14:18:48.000Z</time>
      </trkpt>
      <trkpt lat="46.02385" lon="6.68672">
        <ele>1805</ele>
        <time>2014-08-24T14:18:54.000Z</time>
      </trkpt>
      <trkpt lat="46.02387" lon="6.68692">
        <ele>1810</ele>
        <time>2014-08-24T14:19:12.000Z</time>
      </trkpt>
      <trkpt lat="46.02388" lon="6.68706">
        <ele>1811</ele>
        <time>2014-08-24T14:19:15.000Z</time>
      </trkpt>
      <trkpt lat="46.02388" lon="6.68715">
        <ele>1811</ele>
        <time>2014-08-24T14:19:18.000Z</time>
      </trkpt>
      <trkpt lat="46.02385" lon="6.68742">
        <ele>1818</ele>
        <time>2014-08-24T14:19:51.000Z</time>
      </trkpt>
      <trkpt lat="46.02383" lon="6.6876">
        <ele>1820</ele>
        <time>2014-08-24T14:19:57.000Z</time>
      </trkpt>
      <trkpt lat="46.02383" lon="6.68772">
        <ele>1820</ele>
        <time>2014-08-24T14:20:00.000Z</time>
      </trkpt>
      <trkpt lat="46.02382" lon="6.68783">
        <ele>1822</ele>
        <time>2014-08-24T14:20:06.000Z</time>
      </trkpt>
      <trkpt lat="46.0238" lon="6.68794">
        <ele>1823</ele>
        <time>2014-08-24T14:20:12.000Z</time>
      </trkpt>
      <trkpt lat="46.02377" lon="6.68802">
        <ele>1824</ele>
        <time>2014-08-24T14:20:15.000Z</time>
      </trkpt>
      <trkpt lat="46.02373" lon="6.68814">
        <ele>1826</ele>
        <time>2014-08-24T14:20:21.000Z</time>
      </trkpt>
      <trkpt lat="46.02371" lon="6.68826">
        <ele>1827</ele>
        <time>2014-08-24T14:20:24.000Z</time>
      </trkpt>
      <trkpt lat="46.0237" lon="6.68837">
        <ele>1828</ele>
        <time>2014-08-24T14:20:27.000Z</time>
      </trkpt>
      <trkpt lat="46.02369" lon="6.68847">
        <ele>1828</ele>
        <time>2014-08-24T14:20:30.000Z</time>
      </trkpt>
      <trkpt lat="46.02367" lon="6.68856">
        <ele>1829</ele>
        <time>2014-08-24T14:20:33.000Z</time>
      </trkpt>
      <trkpt lat="46.02364" lon="6.68875">
        <ele>1830</ele>
        <time>2014-08-24T14:20:36.000Z</time>
      </trkpt>
      <trkpt lat="46.02366" lon="6.68895">
        <ele>1831</ele>
        <time>2014-08-24T14:20:42.000Z</time>
      </trkpt>
      <trkpt lat="46.0237" lon="6.68918">
        <ele>1831</ele>
        <time>2014-08-24T14:20:48.000Z</time>
      </trkpt>
      <trkpt lat="46.02374" lon="6.68937">
        <ele>1832</ele>
        <time>2014-08-24T14:20:54.000Z</time>
      </trkpt>
      <trkpt lat="46.02375" lon="6.68956">
        <ele>1832</ele>
        <time>2014-08-24T14:21:00.000Z</time>
      </trkpt>
      <trkpt lat="46.02377" lon="6.68982">
        <ele>1833</ele>
        <time>2014-08-24T14:21:09.000Z</time>
      </trkpt>
      <trkpt lat="46.02379" lon="6.69009">
        <ele>1834</ele>
        <time>2014-08-24T14:21:18.000Z</time>
      </trkpt>
      <trkpt lat="46.02366" lon="6.6903">
        <ele>1835</ele>
        <time>2014-08-24T14:21:24.000Z</time>
      </trkpt>
      <trkpt lat="46.02364" lon="6.69049">
        <ele>1835</ele>
        <time>2014-08-24T14:21:30.000Z</time>
      </trkpt>
      <trkpt lat="46.02361" lon="6.69074">
        <ele>1837</ele>
        <time>2014-08-24T14:21:39.000Z</time>
      </trkpt>
      <trkpt lat="46.02358" lon="6.69092">
        <ele>1838</ele>
        <time>2014-08-24T14:21:45.000Z</time>
      </trkpt>
      <trkpt lat="46.02361" lon="6.69113">
        <ele>1840</ele>
        <time>2014-08-24T14:21:57.000Z</time>
      </trkpt>
      <trkpt lat="46.02368" lon="6.69133">
        <ele>1841</ele>
        <time>2014-08-24T14:22:09.000Z</time>
      </trkpt>
      <trkpt lat="46.0237" lon="6.6916">
        <ele>1842</ele>
        <time>2014-08-24T14:22:27.000Z</time>
      </trkpt>
      <trkpt lat="46.0237" lon="6.69183">
        <ele>1843</ele>
        <time>2014-08-24T14:22:36.000Z</time>
      </trkpt>
      <trkpt lat="46.02374" lon="6.69203">
        <ele>1843</ele>
        <time>2014-08-24T14:22:42.000Z</time>
      </trkpt>
      <trkpt lat="46.02374" lon="6.69225">
        <ele>1843</ele>
        <time>2014-08-24T14:22:48.000Z</time>
      </trkpt>
      <trkpt lat="46.02379" lon="6.69245">
        <ele>1843</ele>
        <time>2014-08-24T14:22:54.000Z</time>
      </trkpt>
      <trkpt lat="46.02383" lon="6.69254">
        <ele>1844</ele>
        <time>2014-08-24T14:23:00.000Z</time>
      </trkpt>
      <trkpt lat="46.02386" lon="6.69263">
        <ele>1844</ele>
        <time>2014-08-24T14:23:03.000Z</time>
      </trkpt>
      <trkpt lat="46.0239" lon="6.69272">
        <ele>1844</ele>
        <time>2014-08-24T14:23:06.000Z</time>
      </trkpt>
      <trkpt lat="46.02393" lon="6.69281">
        <ele>1845</ele>
        <time>2014-08-24T14:23:09.000Z</time>
      </trkpt>
      <trkpt lat="46.02394" lon="6.69291">
        <ele>1845</ele>
        <time>2014-08-24T14:23:12.000Z</time>
      </trkpt>
      <trkpt lat="46.02403" lon="6.69316">
        <ele>1846</ele>
        <time>2014-08-24T14:23:18.000Z</time>
      </trkpt>
      <trkpt lat="46.02406" lon="6.6934">
        <ele>1846</ele>
        <time>2014-08-24T14:23:27.000Z</time>
      </trkpt>
      <trkpt lat="46.02407" lon="6.69364">
        <ele>1847</ele>
        <time>2014-08-24T14:23:36.000Z</time>
      </trkpt>
      <trkpt lat="46.02412" lon="6.69384">
        <ele>1846</ele>
        <time>2014-08-24T14:24:24.000Z</time>
      </trkpt>
      <trkpt lat="46.0241" lon="6.69409">
        <ele>1847</ele>
        <time>2014-08-24T14:24:30.000Z</time>
      </trkpt>
      <trkpt lat="46.02408" lon="6.69429">
        <ele>1847</ele>
        <time>2014-08-24T14:24:36.000Z</time>
      </trkpt>
      <trkpt lat="46.02399" lon="6.69448">
        <ele>1848</ele>
        <time>2014-08-24T14:24:42.000Z</time>
      </trkpt>
      <trkpt lat="46.02391" lon="6.69464">
        <ele>1849</ele>
        <time>2014-08-24T14:24:48.000Z</time>
      </trkpt>
      <trkpt lat="46.02383" lon="6.69482">
        <ele>1849</ele>
        <time>2014-08-24T14:24:57.000Z</time>
      </trkpt>
      <trkpt lat="46.02374" lon="6.695">
        <ele>1850</ele>
        <time>2014-08-24T14:25:06.000Z</time>
      </trkpt>
      <trkpt lat="46.02381" lon="6.69511">
        <ele>1849</ele>
        <time>2014-08-24T14:25:18.000Z</time>
      </trkpt>
      <trkpt lat="46.02385" lon="6.69502">
        <ele>1850</ele>
        <time>2014-08-24T14:25:27.000Z</time>
      </trkpt>
      <trkpt lat="46.02388" lon="6.69492">
        <ele>1850</ele>
        <time>2014-08-24T14:25:30.000Z</time>
      </trkpt>
      <trkpt lat="46.02392" lon="6.69484">
        <ele>1850</ele>
        <time>2014-08-24T14:25:33.000Z</time>
      </trkpt>
      <trkpt lat="46.02396" lon="6.69474">
        <ele>1851</ele>
        <time>2014-08-24T14:25:39.000Z</time>
      </trkpt>
      <trkpt lat="46.02397" lon="6.69461">
        <ele>1851</ele>
        <time>2014-08-24T14:25:42.000Z</time>
      </trkpt>
      <trkpt lat="46.02399" lon="6.69449">
        <ele>1851</ele>
        <time>2014-08-24T14:25:45.000Z</time>
      </trkpt>
      <trkpt lat="46.02402" lon="6.69437">
        <ele>1852</ele>
        <time>2014-08-24T14:25:48.000Z</time>
      </trkpt>
      <trkpt lat="46.02404" lon="6.69426">
        <ele>1852</ele>
        <time>2014-08-24T14:25:51.000Z</time>
      </trkpt>
      <trkpt lat="46.02408" lon="6.69402">
        <ele>1852</ele>
        <time>2014-08-24T14:25:57.000Z</time>
      </trkpt>
      <trkpt lat="46.02414" lon="6.69384">
        <ele>1853</ele>
        <time>2014-08-24T14:26:06.000Z</time>
      </trkpt>
      <trkpt lat="46.02423" lon="6.69399">
        <ele>1854</ele>
        <time>2014-08-24T14:26:12.000Z</time>
      </trkpt>
      <trkpt lat="46.02433" lon="6.69415">
        <ele>1854</ele>
        <time>2014-08-24T14:26:18.000Z</time>
      </trkpt>
      <trkpt lat="46.02444" lon="6.69433">
        <ele>1853</ele>
        <time>2014-08-24T14:26:27.000Z</time>
      </trkpt>
      <trkpt lat="46.02432" lon="6.69466">
        <ele>1854</ele>
        <time>2014-08-24T14:26:33.000Z</time>
      </trkpt>
      <trkpt lat="46.02431" lon="6.69487">
        <ele>1855</ele>
        <time>2014-08-24T14:26:39.000Z</time>
      </trkpt>
      <trkpt lat="46.02431" lon="6.69515">
        <ele>1856</ele>
        <time>2014-08-24T14:26:48.000Z</time>
      </trkpt>
      <trkpt lat="46.0243" lon="6.69533">
        <ele>1857</ele>
        <time>2014-08-24T14:26:54.000Z</time>
      </trkpt>
      <trkpt lat="46.02429" lon="6.6956">
        <ele>1858</ele>
        <time>2014-08-24T14:27:03.000Z</time>
      </trkpt>
      <trkpt lat="46.02428" lon="6.69583">
        <ele>1859</ele>
        <time>2014-08-24T14:27:12.000Z</time>
      </trkpt>
      <trkpt lat="46.02428" lon="6.69604">
        <ele>1861</ele>
        <time>2014-08-24T14:27:24.000Z</time>
      </trkpt>
      <trkpt lat="46.02428" lon="6.69623">
        <ele>1863</ele>
        <time>2014-08-24T14:27:33.000Z</time>
      </trkpt>
      <trkpt lat="46.02424" lon="6.69646">
        <ele>1866</ele>
        <time>2014-08-24T14:27:45.000Z</time>
      </trkpt>
      <trkpt lat="46.02423" lon="6.69667">
        <ele>1867</ele>
        <time>2014-08-24T14:27:54.000Z</time>
      </trkpt>
      <trkpt lat="46.02421" lon="6.69685">
        <ele>1868</ele>
        <time>2014-08-24T14:28:03.000Z</time>
      </trkpt>
      <trkpt lat="46.02416" lon="6.69693">
        <ele>1870</ele>
        <time>2014-08-24T14:28:12.000Z</time>
      </trkpt>
      <trkpt lat="46.02413" lon="6.69701">
        <ele>1871</ele>
        <time>2014-08-24T14:28:15.000Z</time>
      </trkpt>
      <trkpt lat="46.02409" lon="6.69711">
        <ele>1872</ele>
        <time>2014-08-24T14:28:21.000Z</time>
      </trkpt>
      <trkpt lat="46.02407" lon="6.69721">
        <ele>1872</ele>
        <time>2014-08-24T14:28:24.000Z</time>
      </trkpt>
      <trkpt lat="46.02404" lon="6.69732">
        <ele>1873</ele>
        <time>2014-08-24T14:28:30.000Z</time>
      </trkpt>
      <trkpt lat="46.02401" lon="6.69743">
        <ele>1873</ele>
        <time>2014-08-24T14:28:36.000Z</time>
      </trkpt>
      <trkpt lat="46.02399" lon="6.69752">
        <ele>1874</ele>
        <time>2014-08-24T14:28:39.000Z</time>
      </trkpt>
      <trkpt lat="46.02396" lon="6.69762">
        <ele>1874</ele>
        <time>2014-08-24T14:28:45.000Z</time>
      </trkpt>
      <trkpt lat="46.02394" lon="6.69772">
        <ele>1875</ele>
        <time>2014-08-24T14:28:51.000Z</time>
      </trkpt>
      <trkpt lat="46.02392" lon="6.69782">
        <ele>1876</ele>
        <time>2014-08-24T14:28:57.000Z</time>
      </trkpt>
      <trkpt lat="46.0239" lon="6.69794">
        <ele>1877</ele>
        <time>2014-08-24T14:29:03.000Z</time>
      </trkpt>
      <trkpt lat="46.02389" lon="6.69803">
        <ele>1877</ele>
        <time>2014-08-24T14:29:06.000Z</time>
      </trkpt>
      <trkpt lat="46.02387" lon="6.69812">
        <ele>1877</ele>
        <time>2014-08-24T14:29:09.000Z</time>
      </trkpt>
      <trkpt lat="46.02386" lon="6.69824">
        <ele>1878</ele>
        <time>2014-08-24T14:29:15.000Z</time>
      </trkpt>
      <trkpt lat="46.02385" lon="6.69836">
        <ele>1879</ele>
        <time>2014-08-24T14:29:21.000Z</time>
      </trkpt>
      <trkpt lat="46.02384" lon="6.69848">
        <ele>1879</ele>
        <time>2014-08-24T14:29:24.000Z</time>
      </trkpt>
      <trkpt lat="46.02384" lon="6.69861">
        <ele>1879</ele>
        <time>2014-08-24T14:29:27.000Z</time>
      </trkpt>
      <trkpt lat="46.02384" lon="6.69873">
        <ele>1879</ele>
        <time>2014-08-24T14:29:30.000Z</time>
      </trkpt>
      <trkpt lat="46.02384" lon="6.69883">
        <ele>1880</ele>
        <time>2014-08-24T14:29:33.000Z</time>
      </trkpt>
      <trkpt lat="46.02381" lon="6.69905">
        <ele>1880</ele>
        <time>2014-08-24T14:29:36.000Z</time>
      </trkpt>
      <trkpt lat="46.0236" lon="6.69904">
        <ele>1881</ele>
        <time>2014-08-24T14:29:45.000Z</time>
      </trkpt>
      <trkpt lat="46.02343" lon="6.69895">
        <ele>1882</ele>
        <time>2014-08-24T14:29:51.000Z</time>
      </trkpt>
      <trkpt lat="46.02329" lon="6.69889">
        <ele>1883</ele>
        <time>2014-08-24T14:29:57.000Z</time>
      </trkpt>
      <trkpt lat="46.02315" lon="6.69882">
        <ele>1883</ele>
        <time>2014-08-24T14:30:03.000Z</time>
      </trkpt>
      <trkpt lat="46.023" lon="6.69881">
        <ele>1884</ele>
        <time>2014-08-24T14:30:09.000Z</time>
      </trkpt>
      <trkpt lat="46.02283" lon="6.69886">
        <ele>1884</ele>
        <time>2014-08-24T14:30:15.000Z</time>
      </trkpt>
      <trkpt lat="46.0227" lon="6.6989">
        <ele>1884</ele>
        <time>2014-08-24T14:30:24.000Z</time>
      </trkpt>
      <trkpt lat="46.02254" lon="6.69894">
        <ele>1886</ele>
        <time>2014-08-24T14:30:36.000Z</time>
      </trkpt>
      <trkpt lat="46.0224" lon="6.69899">
        <ele>1887</ele>
        <time>2014-08-24T14:30:48.000Z</time>
      </trkpt>
      <trkpt lat="46.02233" lon="6.69914">
        <ele>1889</ele>
        <time>2014-08-24T14:31:00.000Z</time>
      </trkpt>
      <trkpt lat="46.02222" lon="6.69896">
        <ele>1891</ele>
        <time>2014-08-24T14:31:15.000Z</time>
      </trkpt>
      <trkpt lat="46.0221" lon="6.69908">
        <ele>1894</ele>
        <time>2014-08-24T14:31:30.000Z</time>
      </trkpt>
      <trkpt lat="46.02199" lon="6.69919">
        <ele>1896</ele>
        <time>2014-08-24T14:31:42.000Z</time>
      </trkpt>
      <trkpt lat="46.02192" lon="6.69918">
        <ele>1898</ele>
        <time>2014-08-24T14:31:54.000Z</time>
      </trkpt>
      <trkpt lat="46.02182" lon="6.69917">
        <ele>1901</ele>
        <time>2014-08-24T14:32:09.000Z</time>
      </trkpt>
      <trkpt lat="46.02174" lon="6.69922">
        <ele>1906</ele>
        <time>2014-08-24T14:32:27.000Z</time>
      </trkpt>
      <trkpt lat="46.02168" lon="6.69926">
        <ele>1908</ele>
        <time>2014-08-24T14:32:33.000Z</time>
      </trkpt>
      <trkpt lat="46.02158" lon="6.69927">
        <ele>1914</ele>
        <time>2014-08-24T14:32:57.000Z</time>
      </trkpt>
      <trkpt lat="46.0215" lon="6.69926">
        <ele>1916</ele>
        <time>2014-08-24T14:33:03.000Z</time>
      </trkpt>
      <trkpt lat="46.02142" lon="6.69923">
        <ele>1918</ele>
        <time>2014-08-24T14:33:09.000Z</time>
      </trkpt>
      <trkpt lat="46.02136" lon="6.6992">
        <ele>1920</ele>
        <time>2014-08-24T14:33:18.000Z</time>
      </trkpt>
      <trkpt lat="46.02129" lon="6.69915">
        <ele>1922</ele>
        <time>2014-08-24T14:33:27.000Z</time>
      </trkpt>
      <trkpt lat="46.02121" lon="6.69909">
        <ele>1928</ele>
        <time>2014-08-24T14:33:51.000Z</time>
      </trkpt>
      <trkpt lat="46.02116" lon="6.69902">
        <ele>1929</ele>
        <time>2014-08-24T14:33:54.000Z</time>
      </trkpt>
      <trkpt lat="46.02111" lon="6.69896">
        <ele>1931</ele>
        <time>2014-08-24T14:34:06.000Z</time>
      </trkpt>
      <trkpt lat="46.02102" lon="6.6989">
        <ele>1934</ele>
        <time>2014-08-24T14:34:18.000Z</time>
      </trkpt>
      <trkpt lat="46.02096" lon="6.69886">
        <ele>1935</ele>
        <time>2014-08-24T14:34:21.000Z</time>
      </trkpt>
      <trkpt lat="46.0209" lon="6.69878">
        <ele>1938</ele>
        <time>2014-08-24T14:34:30.000Z</time>
      </trkpt>
      <trkpt lat="46.02085" lon="6.6987">
        <ele>1940</ele>
        <time>2014-08-24T14:34:36.000Z</time>
      </trkpt>
      <trkpt lat="46.02081" lon="6.69862">
        <ele>1940</ele>
        <time>2014-08-24T14:34:39.000Z</time>
      </trkpt>
      <trkpt lat="46.02074" lon="6.69854">
        <ele>1942</ele>
        <time>2014-08-24T14:34:45.000Z</time>
      </trkpt>
      <trkpt lat="46.02069" lon="6.69848">
        <ele>1942</ele>
        <time>2014-08-24T14:34:51.000Z</time>
      </trkpt>
      <trkpt lat="46.02061" lon="6.69846">
        <ele>1944</ele>
        <time>2014-08-24T14:35:00.000Z</time>
      </trkpt>
      <trkpt lat="46.02052" lon="6.69847">
        <ele>1946</ele>
        <time>2014-08-24T14:35:15.000Z</time>
      </trkpt>
      <trkpt lat="46.02041" lon="6.69852">
        <ele>1949</ele>
        <time>2014-08-24T14:35:42.000Z</time>
      </trkpt>
      <trkpt lat="46.02035" lon="6.69857">
        <ele>1949</ele>
        <time>2014-08-24T14:35:45.000Z</time>
      </trkpt>
      <trkpt lat="46.02029" lon="6.69859">
        <ele>1951</ele>
        <time>2014-08-24T14:36:00.000Z</time>
      </trkpt>
      <trkpt lat="46.02018" lon="6.69862">
        <ele>1959</ele>
        <time>2014-08-24T14:36:30.000Z</time>
      </trkpt>
      <trkpt lat="46.02011" lon="6.69864">
        <ele>1960</ele>
        <time>2014-08-24T14:36:33.000Z</time>
      </trkpt>
      <trkpt lat="46.02003" lon="6.69865">
        <ele>1961</ele>
        <time>2014-08-24T14:36:39.000Z</time>
      </trkpt>
      <trkpt lat="46.01996" lon="6.69865">
        <ele>1963</ele>
        <time>2014-08-24T14:36:48.000Z</time>
      </trkpt>
      <trkpt lat="46.01989" lon="6.69863">
        <ele>1964</ele>
        <time>2014-08-24T14:36:54.000Z</time>
      </trkpt>
      <trkpt lat="46.01982" lon="6.69859">
        <ele>1967</ele>
        <time>2014-08-24T14:37:06.000Z</time>
      </trkpt>
      <trkpt lat="46.01968" lon="6.69851">
        <ele>1975</ele>
        <time>2014-08-24T14:37:39.000Z</time>
      </trkpt>
      <trkpt lat="46.01956" lon="6.69842">
        <ele>1982</ele>
        <time>2014-08-24T14:38:00.000Z</time>
      </trkpt>
      <trkpt lat="46.01942" lon="6.69832">
        <ele>1990</ele>
        <time>2014-08-24T14:38:33.000Z</time>
      </trkpt>
      <trkpt lat="46.01933" lon="6.69825">
        <ele>1992</ele>
        <time>2014-08-24T14:38:39.000Z</time>
      </trkpt>
      <trkpt lat="46.01925" lon="6.69805">
        <ele>2004</ele>
        <time>2014-08-24T14:39:30.000Z</time>
      </trkpt>
      <trkpt lat="46.01918" lon="6.69793">
        <ele>2005</ele>
        <time>2014-08-24T14:39:33.000Z</time>
      </trkpt>
      <trkpt lat="46.01913" lon="6.69787">
        <ele>2006</ele>
        <time>2014-08-24T14:39:36.000Z</time>
      </trkpt>
      <trkpt lat="46.01906" lon="6.69781">
        <ele>2007</ele>
        <time>2014-08-24T14:39:42.000Z</time>
      </trkpt>
      <trkpt lat="46.01899" lon="6.69776">
        <ele>2008</ele>
        <time>2014-08-24T14:39:48.000Z</time>
      </trkpt>
      <trkpt lat="46.01892" lon="6.69772">
        <ele>2009</ele>
        <time>2014-08-24T14:39:54.000Z</time>
      </trkpt>
      <trkpt lat="46.01886" lon="6.69768">
        <ele>2010</ele>
        <time>2014-08-24T14:40:00.000Z</time>
      </trkpt>
      <trkpt lat="46.01879" lon="6.69765">
        <ele>2012</ele>
        <time>2014-08-24T14:40:06.000Z</time>
      </trkpt>
      <trkpt lat="46.01872" lon="6.6976">
        <ele>2013</ele>
        <time>2014-08-24T14:40:12.000Z</time>
      </trkpt>
      <trkpt lat="46.01865" lon="6.69756">
        <ele>2014</ele>
        <time>2014-08-24T14:40:18.000Z</time>
      </trkpt>
      <trkpt lat="46.01859" lon="6.69752">
        <ele>2015</ele>
        <time>2014-08-24T14:40:24.000Z</time>
      </trkpt>
      <trkpt lat="46.01852" lon="6.6975">
        <ele>2016</ele>
        <time>2014-08-24T14:40:30.000Z</time>
      </trkpt>
      <trkpt lat="46.01845" lon="6.69746">
        <ele>2018</ele>
        <time>2014-08-24T14:40:39.000Z</time>
      </trkpt>
      <trkpt lat="46.01839" lon="6.69739">
        <ele>2019</ele>
        <time>2014-08-24T14:40:45.000Z</time>
      </trkpt>
      <trkpt lat="46.01834" lon="6.69732">
        <ele>2021</ele>
        <time>2014-08-24T14:40:51.000Z</time>
      </trkpt>
      <trkpt lat="46.01827" lon="6.69725">
        <ele>2022</ele>
        <time>2014-08-24T14:40:57.000Z</time>
      </trkpt>
      <trkpt lat="46.0182" lon="6.69718">
        <ele>2023</ele>
        <time>2014-08-24T14:41:03.000Z</time>
      </trkpt>
      <trkpt lat="46.01814" lon="6.69712">
        <ele>2024</ele>
        <time>2014-08-24T14:41:06.000Z</time>
      </trkpt>
      <trkpt lat="46.01809" lon="6.69706">
        <ele>2025</ele>
        <time>2014-08-24T14:41:12.000Z</time>
      </trkpt>
      <trkpt lat="46.01802" lon="6.697">
        <ele>2026</ele>
        <time>2014-08-24T14:41:18.000Z</time>
      </trkpt>
      <trkpt lat="46.01796" lon="6.69694">
        <ele>2028</ele>
        <time>2014-08-24T14:41:24.000Z</time>
      </trkpt>
      <trkpt lat="46.0179" lon="6.69688">
        <ele>2030</ele>
        <time>2014-08-24T14:41:33.000Z</time>
      </trkpt>
      <trkpt lat="46.01782" lon="6.69685">
        <ele>2031</ele>
        <time>2014-08-24T14:41:39.000Z</time>
      </trkpt>
      <trkpt lat="46.01774" lon="6.69683">
        <ele>2031</ele>
        <time>2014-08-24T14:41:45.000Z</time>
      </trkpt>
      <trkpt lat="46.01766" lon="6.69681">
        <ele>2032</ele>
        <time>2014-08-24T14:41:51.000Z</time>
      </trkpt>
      <trkpt lat="46.01759" lon="6.69679">
        <ele>2033</ele>
        <time>2014-08-24T14:42:00.000Z</time>
      </trkpt>
      <trkpt lat="46.01752" lon="6.69677">
        <ele>2034</ele>
        <time>2014-08-24T14:42:06.000Z</time>
      </trkpt>
      <trkpt lat="46.01745" lon="6.6968">
        <ele>2035</ele>
        <time>2014-08-24T14:42:12.000Z</time>
      </trkpt>
      <trkpt lat="46.01738" lon="6.6968">
        <ele>2035</ele>
        <time>2014-08-24T14:42:18.000Z</time>
      </trkpt>
      <trkpt lat="46.0173" lon="6.6968">
        <ele>2036</ele>
        <time>2014-08-24T14:42:24.000Z</time>
      </trkpt>
      <trkpt lat="46.01723" lon="6.6968">
        <ele>2037</ele>
        <time>2014-08-24T14:42:30.000Z</time>
      </trkpt>
      <trkpt lat="46.01704" lon="6.6968">
        <ele>2048</ele>
        <time>2014-08-24T14:43:12.000Z</time>
      </trkpt>
      <trkpt lat="46.01693" lon="6.6968">
        <ele>2049</ele>
        <time>2014-08-24T14:43:15.000Z</time>
      </trkpt>
      <trkpt lat="46.01683" lon="6.69682">
        <ele>2051</ele>
        <time>2014-08-24T14:43:27.000Z</time>
      </trkpt>
      <trkpt lat="46.01675" lon="6.69683">
        <ele>2052</ele>
        <time>2014-08-24T14:43:33.000Z</time>
      </trkpt>
      <trkpt lat="46.01667" lon="6.69684">
        <ele>2053</ele>
        <time>2014-08-24T14:43:42.000Z</time>
      </trkpt>
      <trkpt lat="46.0164" lon="6.69679">
        <ele>2069</ele>
        <time>2014-08-24T14:44:42.000Z</time>
      </trkpt>
      <trkpt lat="46.01625" lon="6.69675">
        <ele>2070</ele>
        <time>2014-08-24T14:44:45.000Z</time>
      </trkpt>
      <trkpt lat="46.01616" lon="6.69672">
        <ele>2071</ele>
        <time>2014-08-24T14:44:48.000Z</time>
      </trkpt>
      <trkpt lat="46.01609" lon="6.69671">
        <ele>2072</ele>
        <time>2014-08-24T14:44:51.000Z</time>
      </trkpt>
      <trkpt lat="46.01601" lon="6.69668">
        <ele>2075</ele>
        <time>2014-08-24T14:45:03.000Z</time>
      </trkpt>
      <trkpt lat="46.01594" lon="6.69666">
        <ele>2076</ele>
        <time>2014-08-24T14:45:09.000Z</time>
      </trkpt>
      <trkpt lat="46.01587" lon="6.69664">
        <ele>2078</ele>
        <time>2014-08-24T14:45:18.000Z</time>
      </trkpt>
      <trkpt lat="46.0158" lon="6.69663">
        <ele>2081</ele>
        <time>2014-08-24T14:45:27.000Z</time>
      </trkpt>
      <trkpt lat="46.01572" lon="6.69662">
        <ele>2082</ele>
        <time>2014-08-24T14:45:33.000Z</time>
      </trkpt>
      <trkpt lat="46.01566" lon="6.69663">
        <ele>2083</ele>
        <time>2014-08-24T14:45:39.000Z</time>
      </trkpt>
      <trkpt lat="46.01559" lon="6.69666">
        <ele>2084</ele>
        <time>2014-08-24T14:45:45.000Z</time>
      </trkpt>
      <trkpt lat="46.01552" lon="6.69669">
        <ele>2086</ele>
        <time>2014-08-24T14:45:54.000Z</time>
      </trkpt>
      <trkpt lat="46.01546" lon="6.69674">
        <ele>2087</ele>
        <time>2014-08-24T14:46:00.000Z</time>
      </trkpt>
      <trkpt lat="46.0154" lon="6.69678">
        <ele>2089</ele>
        <time>2014-08-24T14:46:06.000Z</time>
      </trkpt>
      <trkpt lat="46.01532" lon="6.69681">
        <ele>2092</ele>
        <time>2014-08-24T14:46:21.000Z</time>
      </trkpt>
      <trkpt lat="46.01522" lon="6.69685">
        <ele>2097</ele>
        <time>2014-08-24T14:46:39.000Z</time>
      </trkpt>
      <trkpt lat="46.01509" lon="6.69686">
        <ele>2102</ele>
        <time>2014-08-24T14:46:57.000Z</time>
      </trkpt>
      <trkpt lat="46.015" lon="6.69686">
        <ele>2103</ele>
        <time>2014-08-24T14:47:00.000Z</time>
      </trkpt>
      <trkpt lat="46.01492" lon="6.69685">
        <ele>2104</ele>
        <time>2014-08-24T14:47:06.000Z</time>
      </trkpt>
      <trkpt lat="46.01485" lon="6.69684">
        <ele>2105</ele>
        <time>2014-08-24T14:47:12.000Z</time>
      </trkpt>
      <trkpt lat="46.01477" lon="6.69682">
        <ele>2106</ele>
        <time>2014-08-24T14:47:18.000Z</time>
      </trkpt>
      <trkpt lat="46.01469" lon="6.69679">
        <ele>2107</ele>
        <time>2014-08-24T14:47:24.000Z</time>
      </trkpt>
      <trkpt lat="46.01461" lon="6.69675">
        <ele>2109</ele>
        <time>2014-08-24T14:47:30.000Z</time>
      </trkpt>
      <trkpt lat="46.01454" lon="6.69672">
        <ele>2110</ele>
        <time>2014-08-24T14:47:36.000Z</time>
      </trkpt>
      <trkpt lat="46.01447" lon="6.69669">
        <ele>2112</ele>
        <time>2014-08-24T14:47:42.000Z</time>
      </trkpt>
      <trkpt lat="46.01442" lon="6.69678">
        <ele>2118</ele>
        <time>2014-08-24T14:49:03.000Z</time>
      </trkpt>
      <trkpt lat="46.01443" lon="6.69689">
        <ele>2119</ele>
        <time>2014-08-24T14:49:09.000Z</time>
      </trkpt>
      <trkpt lat="46.01443" lon="6.69701">
        <ele>2118</ele>
        <time>2014-08-24T14:49:15.000Z</time>
      </trkpt>
      <trkpt lat="46.01447" lon="6.69711">
        <ele>2118</ele>
        <time>2014-08-24T14:49:18.000Z</time>
      </trkpt>
      <trkpt lat="46.01453" lon="6.69721">
        <ele>2117</ele>
        <time>2014-08-24T14:49:24.000Z</time>
      </trkpt>
      <trkpt lat="46.01457" lon="6.6973">
        <ele>2117</ele>
        <time>2014-08-24T14:49:27.000Z</time>
      </trkpt>
      <trkpt lat="46.01463" lon="6.69739">
        <ele>2116</ele>
        <time>2014-08-24T14:49:33.000Z</time>
      </trkpt>
      <trkpt lat="46.01468" lon="6.69747">
        <ele>2116</ele>
        <time>2014-08-24T14:49:36.000Z</time>
      </trkpt>
      <trkpt lat="46.01474" lon="6.69757">
        <ele>2115</ele>
        <time>2014-08-24T14:49:42.000Z</time>
      </trkpt>
      <trkpt lat="46.01467" lon="6.69763">
        <ele>2110</ele>
        <time>2014-08-24T14:49:57.000Z</time>
      </trkpt>
      <trkpt lat="46.0146" lon="6.69766">
        <ele>2109</ele>
        <time>2014-08-24T14:50:06.000Z</time>
      </trkpt>
      <trkpt lat="46.01453" lon="6.69765">
        <ele>2108</ele>
        <time>2014-08-24T14:50:09.000Z</time>
      </trkpt>
      <trkpt lat="46.01445" lon="6.69765">
        <ele>2105</ele>
        <time>2014-08-24T14:50:15.000Z</time>
      </trkpt>
      <trkpt lat="46.01448" lon="6.69776">
        <ele>2099</ele>
        <time>2014-08-24T14:50:30.000Z</time>
      </trkpt>
      <trkpt lat="46.01453" lon="6.69785">
        <ele>2098</ele>
        <time>2014-08-24T14:50:33.000Z</time>
      </trkpt>
      <trkpt lat="46.01458" lon="6.69793">
        <ele>2097</ele>
        <time>2014-08-24T14:50:36.000Z</time>
      </trkpt>
      <trkpt lat="46.01465" lon="6.69801">
        <ele>2096</ele>
        <time>2014-08-24T14:50:39.000Z</time>
      </trkpt>
      <trkpt lat="46.01471" lon="6.69808">
        <ele>2095</ele>
        <time>2014-08-24T14:50:42.000Z</time>
      </trkpt>
      <trkpt lat="46.01485" lon="6.69824">
        <ele>2094</ele>
        <time>2014-08-24T14:50:45.000Z</time>
      </trkpt>
      <trkpt lat="46.01493" lon="6.69842">
        <ele>2092</ele>
        <time>2014-08-24T14:50:51.000Z</time>
      </trkpt>
      <trkpt lat="46.01501" lon="6.69862">
        <ele>2090</ele>
        <time>2014-08-24T14:50:57.000Z</time>
      </trkpt>
      <trkpt lat="46.01511" lon="6.69886">
        <ele>2087</ele>
        <time>2014-08-24T14:51:06.000Z</time>
      </trkpt>
      <trkpt lat="46.01513" lon="6.69918">
        <ele>2083</ele>
        <time>2014-08-24T14:51:15.000Z</time>
      </trkpt>
      <trkpt lat="46.01519" lon="6.69942">
        <ele>2080</ele>
        <time>2014-08-24T14:51:21.000Z</time>
      </trkpt>
      <trkpt lat="46.01524" lon="6.69965">
        <ele>2078</ele>
        <time>2014-08-24T14:51:27.000Z</time>
      </trkpt>
      <trkpt lat="46.0153" lon="6.69994">
        <ele>2076</ele>
        <time>2014-08-24T14:51:36.000Z</time>
      </trkpt>
      <trkpt lat="46.01534" lon="6.70015">
        <ele>2074</ele>
        <time>2014-08-24T14:51:42.000Z</time>
      </trkpt>
      <trkpt lat="46.01538" lon="6.70034">
        <ele>2071</ele>
        <time>2014-08-24T14:51:48.000Z</time>
      </trkpt>
      <trkpt lat="46.01545" lon="6.70057">
        <ele>2069</ele>
        <time>2014-08-24T14:51:54.000Z</time>
      </trkpt>
      <trkpt lat="46.01546" lon="6.70077">
        <ele>2067</ele>
        <time>2014-08-24T14:52:00.000Z</time>
      </trkpt>
      <trkpt lat="46.01549" lon="6.70104">
        <ele>2066</ele>
        <time>2014-08-24T14:52:06.000Z</time>
      </trkpt>
      <trkpt lat="46.0155" lon="6.70123">
        <ele>2065</ele>
        <time>2014-08-24T14:52:12.000Z</time>
      </trkpt>
      <trkpt lat="46.01553" lon="6.70148">
        <ele>2063</ele>
        <time>2014-08-24T14:52:21.000Z</time>
      </trkpt>
      <trkpt lat="46.01554" lon="6.70168">
        <ele>2061</ele>
        <time>2014-08-24T14:52:27.000Z</time>
      </trkpt>
      <trkpt lat="46.01553" lon="6.7019">
        <ele>2060</ele>
        <time>2014-08-24T14:52:33.000Z</time>
      </trkpt>
      <trkpt lat="46.01553" lon="6.70214">
        <ele>2059</ele>
        <time>2014-08-24T14:52:39.000Z</time>
      </trkpt>
      <trkpt lat="46.01553" lon="6.70241">
        <ele>2057</ele>
        <time>2014-08-24T14:52:45.000Z</time>
      </trkpt>
      <trkpt lat="46.01553" lon="6.70265">
        <ele>2055</ele>
        <time>2014-08-24T14:52:51.000Z</time>
      </trkpt>
      <trkpt lat="46.01554" lon="6.70285">
        <ele>2054</ele>
        <time>2014-08-24T14:52:57.000Z</time>
      </trkpt>
      <trkpt lat="46.01554" lon="6.70306">
        <ele>2053</ele>
        <time>2014-08-24T14:53:03.000Z</time>
      </trkpt>
      <trkpt lat="46.0154" lon="6.70327">
        <ele>2052</ele>
        <time>2014-08-24T14:53:09.000Z</time>
      </trkpt>
      <trkpt lat="46.01505" lon="6.7036">
        <ele>2049</ele>
        <time>2014-08-24T14:53:57.000Z</time>
      </trkpt>
      <trkpt lat="46.0149" lon="6.70385">
        <ele>2050</ele>
        <time>2014-08-24T14:54:12.000Z</time>
      </trkpt>
      <trkpt lat="46.01485" lon="6.704">
        <ele>2050</ele>
        <time>2014-08-24T14:54:15.000Z</time>
      </trkpt>
      <trkpt lat="46.01486" lon="6.7041">
        <ele>2050</ele>
        <time>2014-08-24T14:54:18.000Z</time>
      </trkpt>
      <trkpt lat="46.01492" lon="6.70418">
        <ele>2050</ele>
        <time>2014-08-24T14:54:24.000Z</time>
      </trkpt>
      <trkpt lat="46.01498" lon="6.70423">
        <ele>2050</ele>
        <time>2014-08-24T14:54:27.000Z</time>
      </trkpt>
      <trkpt lat="46.01505" lon="6.70427">
        <ele>2049</ele>
        <time>2014-08-24T14:54:30.000Z</time>
      </trkpt>
      <trkpt lat="46.01512" lon="6.70431">
        <ele>2049</ele>
        <time>2014-08-24T14:54:33.000Z</time>
      </trkpt>
      <trkpt lat="46.01518" lon="6.70434">
        <ele>2049</ele>
        <time>2014-08-24T14:54:36.000Z</time>
      </trkpt>
      <trkpt lat="46.01532" lon="6.70441">
        <ele>2049</ele>
        <time>2014-08-24T14:54:39.000Z</time>
      </trkpt>
      <trkpt lat="46.01545" lon="6.70448">
        <ele>2049</ele>
        <time>2014-08-24T14:54:45.000Z</time>
      </trkpt>
      <trkpt lat="46.01557" lon="6.70455">
        <ele>2049</ele>
        <time>2014-08-24T14:54:51.000Z</time>
      </trkpt>
      <trkpt lat="46.01571" lon="6.70462">
        <ele>2049</ele>
        <time>2014-08-24T14:55:00.000Z</time>
      </trkpt>
      <trkpt lat="46.01574" lon="6.70514">
        <ele>2053</ele>
        <time>2014-08-24T14:55:36.000Z</time>
      </trkpt>
      <trkpt lat="46.01571" lon="6.70551">
        <ele>2057</ele>
        <time>2014-08-24T14:56:03.000Z</time>
      </trkpt>
      <trkpt lat="46.01572" lon="6.70572">
        <ele>2060</ele>
        <time>2014-08-24T14:56:21.000Z</time>
      </trkpt>
      <trkpt lat="46.01574" lon="6.70581">
        <ele>2063</ele>
        <time>2014-08-24T14:56:36.000Z</time>
      </trkpt>
      <trkpt lat="46.01574" lon="6.7059">
        <ele>2065</ele>
        <time>2014-08-24T14:56:45.000Z</time>
      </trkpt>
      <trkpt lat="46.01572" lon="6.70599">
        <ele>2068</ele>
        <time>2014-08-24T14:56:54.000Z</time>
      </trkpt>
      <trkpt lat="46.01569" lon="6.70607">
        <ele>2069</ele>
        <time>2014-08-24T14:57:00.000Z</time>
      </trkpt>
      <trkpt lat="46.01564" lon="6.70615">
        <ele>2070</ele>
        <time>2014-08-24T14:57:06.000Z</time>
      </trkpt>
      <trkpt lat="46.0156" lon="6.70623">
        <ele>2071</ele>
        <time>2014-08-24T14:57:12.000Z</time>
      </trkpt>
      <trkpt lat="46.01557" lon="6.70633">
        <ele>2072</ele>
        <time>2014-08-24T14:57:18.000Z</time>
      </trkpt>
      <trkpt lat="46.01555" lon="6.70644">
        <ele>2072</ele>
        <time>2014-08-24T14:57:24.000Z</time>
      </trkpt>
      <trkpt lat="46.01557" lon="6.70654">
        <ele>2073</ele>
        <time>2014-08-24T14:57:27.000Z</time>
      </trkpt>
      <trkpt lat="46.01564" lon="6.70671">
        <ele>2076</ele>
        <time>2014-08-24T14:57:42.000Z</time>
      </trkpt>
      <trkpt lat="46.01568" lon="6.70682">
        <ele>2077</ele>
        <time>2014-08-24T14:57:45.000Z</time>
      </trkpt>
      <trkpt lat="46.01571" lon="6.70691">
        <ele>2077</ele>
        <time>2014-08-24T14:57:48.000Z</time>
      </trkpt>
      <trkpt lat="46.01574" lon="6.70699">
        <ele>2078</ele>
        <time>2014-08-24T14:57:54.000Z</time>
      </trkpt>
      <trkpt lat="46.01578" lon="6.70709">
        <ele>2079</ele>
        <time>2014-08-24T14:58:03.000Z</time>
      </trkpt>
      <trkpt lat="46.01587" lon="6.70711">
        <ele>2080</ele>
        <time>2014-08-24T14:58:12.000Z</time>
      </trkpt>
      <trkpt lat="46.01596" lon="6.70718">
        <ele>2083</ele>
        <time>2014-08-24T14:58:30.000Z</time>
      </trkpt>
      <trkpt lat="46.01602" lon="6.70724">
        <ele>2085</ele>
        <time>2014-08-24T14:58:36.000Z</time>
      </trkpt>
      <trkpt lat="46.01609" lon="6.70758">
        <ele>2098</ele>
        <time>2014-08-24T14:59:30.000Z</time>
      </trkpt>
      <trkpt lat="46.01614" lon="6.70776">
        <ele>2098</ele>
        <time>2014-08-24T14:59:33.000Z</time>
      </trkpt>
      <trkpt lat="46.01616" lon="6.70786">
        <ele>2099</ele>
        <time>2014-08-24T14:59:36.000Z</time>
      </trkpt>
      <trkpt lat="46.01627" lon="6.70806">
        <ele>2106</ele>
        <time>2014-08-24T15:00:12.000Z</time>
      </trkpt>
      <trkpt lat="46.01633" lon="6.70819">
        <ele>2107</ele>
        <time>2014-08-24T15:00:15.000Z</time>
      </trkpt>
      <trkpt lat="46.01638" lon="6.70826">
        <ele>2107</ele>
        <time>2014-08-24T15:00:18.000Z</time>
      </trkpt>
      <trkpt lat="46.01641" lon="6.70835">
        <ele>2108</ele>
        <time>2014-08-24T15:00:24.000Z</time>
      </trkpt>
      <trkpt lat="46.01644" lon="6.70844">
        <ele>2109</ele>
        <time>2014-08-24T15:00:30.000Z</time>
      </trkpt>
      <trkpt lat="46.01647" lon="6.70854">
        <ele>2111</ele>
        <time>2014-08-24T15:00:36.000Z</time>
      </trkpt>
      <trkpt lat="46.01651" lon="6.70863">
        <ele>2114</ele>
        <time>2014-08-24T15:00:45.000Z</time>
      </trkpt>
      <trkpt lat="46.01654" lon="6.70873">
        <ele>2117</ele>
        <time>2014-08-24T15:00:54.000Z</time>
      </trkpt>
      <trkpt lat="46.01657" lon="6.70882">
        <ele>2119</ele>
        <time>2014-08-24T15:01:00.000Z</time>
      </trkpt>
      <trkpt lat="46.01656" lon="6.70907">
        <ele>2129</ele>
        <time>2014-08-24T15:01:42.000Z</time>
      </trkpt>
      <trkpt lat="46.01655" lon="6.70921">
        <ele>2130</ele>
        <time>2014-08-24T15:01:45.000Z</time>
      </trkpt>
      <trkpt lat="46.01663" lon="6.70957">
        <ele>2141</ele>
        <time>2014-08-24T15:02:33.000Z</time>
      </trkpt>
      <trkpt lat="46.01667" lon="6.70976">
        <ele>2142</ele>
        <time>2014-08-24T15:02:36.000Z</time>
      </trkpt>
      <trkpt lat="46.0167" lon="6.70988">
        <ele>2143</ele>
        <time>2014-08-24T15:02:39.000Z</time>
      </trkpt>
      <trkpt lat="46.01671" lon="6.71002">
        <ele>2148</ele>
        <time>2014-08-24T15:02:57.000Z</time>
      </trkpt>
      <trkpt lat="46.01671" lon="6.71017">
        <ele>2153</ele>
        <time>2014-08-24T15:03:33.000Z</time>
      </trkpt>
      <trkpt lat="46.01672" lon="6.71028">
        <ele>2154</ele>
        <time>2014-08-24T15:03:39.000Z</time>
      </trkpt>
      <trkpt lat="46.01672" lon="6.71038">
        <ele>2157</ele>
        <time>2014-08-24T15:03:48.000Z</time>
      </trkpt>
      <trkpt lat="46.0167" lon="6.71058">
        <ele>2164</ele>
        <time>2014-08-24T15:04:15.000Z</time>
      </trkpt>
      <trkpt lat="46.01669" lon="6.71069">
        <ele>2165</ele>
        <time>2014-08-24T15:04:18.000Z</time>
      </trkpt>
      <trkpt lat="46.01669" lon="6.71084">
        <ele>2168</ele>
        <time>2014-08-24T15:04:33.000Z</time>
      </trkpt>
      <trkpt lat="46.01667" lon="6.71093">
        <ele>2169</ele>
        <time>2014-08-24T15:04:36.000Z</time>
      </trkpt>
      <trkpt lat="46.0167" lon="6.71111">
        <ele>2177</ele>
        <time>2014-08-24T15:05:03.000Z</time>
      </trkpt>
      <trkpt lat="46.01673" lon="6.71122">
        <ele>2178</ele>
        <time>2014-08-24T15:05:06.000Z</time>
      </trkpt>
      <trkpt lat="46.01676" lon="6.71131">
        <ele>2179</ele>
        <time>2014-08-24T15:05:12.000Z</time>
      </trkpt>
      <trkpt lat="46.01696" lon="6.71146">
        <ele>2194</ele>
        <time>2014-08-24T15:06:27.000Z</time>
      </trkpt>
      <trkpt lat="46.01709" lon="6.71154">
        <ele>2194</ele>
        <time>2014-08-24T15:06:30.000Z</time>
      </trkpt>
      <trkpt lat="46.01716" lon="6.71159">
        <ele>2195</ele>
        <time>2014-08-24T15:06:33.000Z</time>
      </trkpt>
      <trkpt lat="46.01747" lon="6.71163">
        <ele>2209</ele>
        <time>2014-08-24T15:07:42.000Z</time>
      </trkpt>
      <trkpt lat="46.01764" lon="6.71166">
        <ele>2209</ele>
        <time>2014-08-24T15:07:45.000Z</time>
      </trkpt>
      <trkpt lat="46.01774" lon="6.71168">
        <ele>2210</ele>
        <time>2014-08-24T15:07:48.000Z</time>
      </trkpt>
      <trkpt lat="46.01781" lon="6.71171">
        <ele>2213</ele>
        <time>2014-08-24T15:07:57.000Z</time>
      </trkpt>
      <trkpt lat="46.01793" lon="6.71181">
        <ele>2220</ele>
        <time>2014-08-24T15:08:24.000Z</time>
      </trkpt>
      <trkpt lat="46.01801" lon="6.71188">
        <ele>2220</ele>
        <time>2014-08-24T15:08:27.000Z</time>
      </trkpt>
      <trkpt lat="46.01806" lon="6.71194">
        <ele>2221</ele>
        <time>2014-08-24T15:08:33.000Z</time>
      </trkpt>
      <trkpt lat="46.01811" lon="6.71201">
        <ele>2222</ele>
        <time>2014-08-24T15:08:39.000Z</time>
      </trkpt>
      <trkpt lat="46.01817" lon="6.71207">
        <ele>2223</ele>
        <time>2014-08-24T15:08:45.000Z</time>
      </trkpt>
      <trkpt lat="46.01825" lon="6.71209">
        <ele>2224</ele>
        <time>2014-08-24T15:08:54.000Z</time>
      </trkpt>
      <trkpt lat="46.01833" lon="6.71206">
        <ele>2225</ele>
        <time>2014-08-24T15:09:00.000Z</time>
      </trkpt>
      <trkpt lat="46.01841" lon="6.71203">
        <ele>2226</ele>
        <time>2014-08-24T15:09:06.000Z</time>
      </trkpt>
      <trkpt lat="46.01848" lon="6.71199">
        <ele>2227</ele>
        <time>2014-08-24T15:09:12.000Z</time>
      </trkpt>
      <trkpt lat="46.01855" lon="6.71196">
        <ele>2228</ele>
        <time>2014-08-24T15:09:18.000Z</time>
      </trkpt>
      <trkpt lat="46.01862" lon="6.71191">
        <ele>2229</ele>
        <time>2014-08-24T15:09:24.000Z</time>
      </trkpt>
      <trkpt lat="46.01868" lon="6.71187">
        <ele>2230</ele>
        <time>2014-08-24T15:09:30.000Z</time>
      </trkpt>
      <trkpt lat="46.01874" lon="6.71183">
        <ele>2231</ele>
        <time>2014-08-24T15:09:36.000Z</time>
      </trkpt>
      <trkpt lat="46.0188" lon="6.7118">
        <ele>2233</ele>
        <time>2014-08-24T15:09:42.000Z</time>
      </trkpt>
      <trkpt lat="46.01887" lon="6.71177">
        <ele>2235</ele>
        <time>2014-08-24T15:09:48.000Z</time>
      </trkpt>
      <trkpt lat="46.01894" lon="6.71174">
        <ele>2236</ele>
        <time>2014-08-24T15:09:54.000Z</time>
      </trkpt>
      <trkpt lat="46.019" lon="6.71169">
        <ele>2237</ele>
        <time>2014-08-24T15:10:00.000Z</time>
      </trkpt>
      <trkpt lat="46.01908" lon="6.71164">
        <ele>2238</ele>
        <time>2014-08-24T15:10:06.000Z</time>
      </trkpt>
      <trkpt lat="46.01916" lon="6.71149">
        <ele>2241</ele>
        <time>2014-08-24T15:10:21.000Z</time>
      </trkpt>
      <trkpt lat="46.01921" lon="6.71139">
        <ele>2242</ele>
        <time>2014-08-24T15:10:24.000Z</time>
      </trkpt>
      <trkpt lat="46.01924" lon="6.71131">
        <ele>2243</ele>
        <time>2014-08-24T15:10:27.000Z</time>
      </trkpt>
      <trkpt lat="46.01928" lon="6.71123">
        <ele>2244</ele>
        <time>2014-08-24T15:10:33.000Z</time>
      </trkpt>
      <trkpt lat="46.01936" lon="6.71118">
        <ele>2245</ele>
        <time>2014-08-24T15:10:39.000Z</time>
      </trkpt>
      <trkpt lat="46.01944" lon="6.71117">
        <ele>2245</ele>
        <time>2014-08-24T15:10:42.000Z</time>
      </trkpt>
      <trkpt lat="46.01952" lon="6.71118">
        <ele>2245</ele>
        <time>2014-08-24T15:10:45.000Z</time>
      </trkpt>
      <trkpt lat="46.01959" lon="6.7112">
        <ele>2246</ele>
        <time>2014-08-24T15:10:48.000Z</time>
      </trkpt>
      <trkpt lat="46.01965" lon="6.71122">
        <ele>2246</ele>
        <time>2014-08-24T15:10:51.000Z</time>
      </trkpt>
      <trkpt lat="46.0198" lon="6.71125">
        <ele>2246</ele>
        <time>2014-08-24T15:10:54.000Z</time>
      </trkpt>
      <trkpt lat="46.01997" lon="6.7113">
        <ele>2245</ele>
        <time>2014-08-24T15:11:00.000Z</time>
      </trkpt>
      <trkpt lat="46.0201" lon="6.71134">
        <ele>2245</ele>
        <time>2014-08-24T15:11:06.000Z</time>
      </trkpt>
      <trkpt lat="46.02024" lon="6.71138">
        <ele>2244</ele>
        <time>2014-08-24T15:11:12.000Z</time>
      </trkpt>
      <trkpt lat="46.0204" lon="6.71139">
        <ele>2244</ele>
        <time>2014-08-24T15:11:18.000Z</time>
      </trkpt>
      <trkpt lat="46.02055" lon="6.71141">
        <ele>2242</ele>
        <time>2014-08-24T15:11:27.000Z</time>
      </trkpt>
      <trkpt lat="46.02069" lon="6.71143">
        <ele>2240</ele>
        <time>2014-08-24T15:11:36.000Z</time>
      </trkpt>
      <trkpt lat="46.02079" lon="6.71191">
        <ele>2237</ele>
        <time>2014-08-24T15:11:45.000Z</time>
      </trkpt>
      <trkpt lat="46.0208" lon="6.71211">
        <ele>2234</ele>
        <time>2014-08-24T15:11:51.000Z</time>
      </trkpt>
      <trkpt lat="46.02081" lon="6.71229">
        <ele>2231</ele>
        <time>2014-08-24T15:12:00.000Z</time>
      </trkpt>
      <trkpt lat="46.02094" lon="6.71234">
        <ele>2230</ele>
        <time>2014-08-24T15:12:03.000Z</time>
      </trkpt>
      <trkpt lat="46.0211" lon="6.71239">
        <ele>2228</ele>
        <time>2014-08-24T15:12:09.000Z</time>
      </trkpt>
      <trkpt lat="46.02124" lon="6.71255">
        <ele>2226</ele>
        <time>2014-08-24T15:12:15.000Z</time>
      </trkpt>
      <trkpt lat="46.02141" lon="6.71271">
        <ele>2223</ele>
        <time>2014-08-24T15:12:24.000Z</time>
      </trkpt>
      <trkpt lat="46.02159" lon="6.71284">
        <ele>2221</ele>
        <time>2014-08-24T15:12:33.000Z</time>
      </trkpt>
      <trkpt lat="46.02176" lon="6.71276">
        <ele>2219</ele>
        <time>2014-08-24T15:12:39.000Z</time>
      </trkpt>
      <trkpt lat="46.02189" lon="6.71264">
        <ele>2217</ele>
        <time>2014-08-24T15:12:45.000Z</time>
      </trkpt>
      <trkpt lat="46.02202" lon="6.71253">
        <ele>2216</ele>
        <time>2014-08-24T15:12:51.000Z</time>
      </trkpt>
      <trkpt lat="46.02203" lon="6.71227">
        <ele>2214</ele>
        <time>2014-08-24T15:12:57.000Z</time>
      </trkpt>
      <trkpt lat="46.02204" lon="6.71201">
        <ele>2213</ele>
        <time>2014-08-24T15:13:03.000Z</time>
      </trkpt>
      <trkpt lat="46.02205" lon="6.71178">
        <ele>2211</ele>
        <time>2014-08-24T15:13:09.000Z</time>
      </trkpt>
      <trkpt lat="46.02205" lon="6.71159">
        <ele>2210</ele>
        <time>2014-08-24T15:13:15.000Z</time>
      </trkpt>
      <trkpt lat="46.02206" lon="6.71134">
        <ele>2207</ele>
        <time>2014-08-24T15:13:24.000Z</time>
      </trkpt>
      <trkpt lat="46.02195" lon="6.7112">
        <ele>2206</ele>
        <time>2014-08-24T15:13:27.000Z</time>
      </trkpt>
      <trkpt lat="46.02192" lon="6.71095">
        <ele>2204</ele>
        <time>2014-08-24T15:13:33.000Z</time>
      </trkpt>
      <trkpt lat="46.02191" lon="6.71082">
        <ele>2200</ele>
        <time>2014-08-24T15:13:42.000Z</time>
      </trkpt>
      <trkpt lat="46.0219" lon="6.71072">
        <ele>2199</ele>
        <time>2014-08-24T15:13:45.000Z</time>
      </trkpt>
      <trkpt lat="46.02177" lon="6.71063">
        <ele>2197</ele>
        <time>2014-08-24T15:13:48.000Z</time>
      </trkpt>
      <trkpt lat="46.02169" lon="6.71054">
        <ele>2196</ele>
        <time>2014-08-24T15:13:51.000Z</time>
      </trkpt>
      <trkpt lat="46.02164" lon="6.71044">
        <ele>2195</ele>
        <time>2014-08-24T15:13:54.000Z</time>
      </trkpt>
      <trkpt lat="46.02156" lon="6.71024">
        <ele>2194</ele>
        <time>2014-08-24T15:13:57.000Z</time>
      </trkpt>
      <trkpt lat="46.02153" lon="6.71004">
        <ele>2191</ele>
        <time>2014-08-24T15:14:03.000Z</time>
      </trkpt>
      <trkpt lat="46.02149" lon="6.70985">
        <ele>2189</ele>
        <time>2014-08-24T15:14:09.000Z</time>
      </trkpt>
      <trkpt lat="46.02146" lon="6.70967">
        <ele>2186</ele>
        <time>2014-08-24T15:14:15.000Z</time>
      </trkpt>
      <trkpt lat="46.02147" lon="6.70943">
        <ele>2184</ele>
        <time>2014-08-24T15:14:21.000Z</time>
      </trkpt>
      <trkpt lat="46.02148" lon="6.70923">
        <ele>2181</ele>
        <time>2014-08-24T15:14:27.000Z</time>
      </trkpt>
      <trkpt lat="46.02176" lon="6.70934">
        <ele>2176</ele>
        <time>2014-08-24T15:14:42.000Z</time>
      </trkpt>
      <trkpt lat="46.0219" lon="6.7094">
        <ele>2173</ele>
        <time>2014-08-24T15:14:48.000Z</time>
      </trkpt>
      <trkpt lat="46.02203" lon="6.70946">
        <ele>2168</ele>
        <time>2014-08-24T15:14:57.000Z</time>
      </trkpt>
      <trkpt lat="46.02221" lon="6.70953">
        <ele>2164</ele>
        <time>2014-08-24T15:15:06.000Z</time>
      </trkpt>
      <trkpt lat="46.02234" lon="6.7092">
        <ele>2163</ele>
        <time>2014-08-24T15:15:09.000Z</time>
      </trkpt>
      <trkpt lat="46.02249" lon="6.70923">
        <ele>2160</ele>
        <time>2014-08-24T15:15:15.000Z</time>
      </trkpt>
      <trkpt lat="46.02263" lon="6.7093">
        <ele>2158</ele>
        <time>2014-08-24T15:15:21.000Z</time>
      </trkpt>
      <trkpt lat="46.02276" lon="6.70936">
        <ele>2155</ele>
        <time>2014-08-24T15:15:27.000Z</time>
      </trkpt>
      <trkpt lat="46.02288" lon="6.70952">
        <ele>2153</ele>
        <time>2014-08-24T15:15:33.000Z</time>
      </trkpt>
      <trkpt lat="46.02302" lon="6.70966">
        <ele>2150</ele>
        <time>2014-08-24T15:15:39.000Z</time>
      </trkpt>
      <trkpt lat="46.02318" lon="6.70975">
        <ele>2146</ele>
        <time>2014-08-24T15:15:45.000Z</time>
      </trkpt>
      <trkpt lat="46.02333" lon="6.70984">
        <ele>2143</ele>
        <time>2014-08-24T15:15:51.000Z</time>
      </trkpt>
      <trkpt lat="46.02349" lon="6.70994">
        <ele>2138</ele>
        <time>2014-08-24T15:16:00.000Z</time>
      </trkpt>
      <trkpt lat="46.02364" lon="6.71004">
        <ele>2134</ele>
        <time>2014-08-24T15:16:09.000Z</time>
      </trkpt>
      <trkpt lat="46.02377" lon="6.71012">
        <ele>2132</ele>
        <time>2014-08-24T15:16:15.000Z</time>
      </trkpt>
      <trkpt lat="46.02384" lon="6.71019">
        <ele>2124</ele>
        <time>2014-08-24T15:16:39.000Z</time>
      </trkpt>
      <trkpt lat="46.0239" lon="6.71024">
        <ele>2122</ele>
        <time>2014-08-24T15:16:42.000Z</time>
      </trkpt>
      <trkpt lat="46.02397" lon="6.71026">
        <ele>2121</ele>
        <time>2014-08-24T15:16:45.000Z</time>
      </trkpt>
      <trkpt lat="46.02404" lon="6.71028">
        <ele>2120</ele>
        <time>2014-08-24T15:16:48.000Z</time>
      </trkpt>
      <trkpt lat="46.02411" lon="6.71029">
        <ele>2119</ele>
        <time>2014-08-24T15:16:51.000Z</time>
      </trkpt>
      <trkpt lat="46.02425" lon="6.71032">
        <ele>2118</ele>
        <time>2014-08-24T15:16:54.000Z</time>
      </trkpt>
      <trkpt lat="46.02439" lon="6.71028">
        <ele>2115</ele>
        <time>2014-08-24T15:17:00.000Z</time>
      </trkpt>
      <trkpt lat="46.02451" lon="6.71024">
        <ele>2112</ele>
        <time>2014-08-24T15:17:06.000Z</time>
      </trkpt>
      <trkpt lat="46.02465" lon="6.71038">
        <ele>2110</ele>
        <time>2014-08-24T15:17:12.000Z</time>
      </trkpt>
      <trkpt lat="46.02478" lon="6.71051">
        <ele>2107</ele>
        <time>2014-08-24T15:17:18.000Z</time>
      </trkpt>
      <trkpt lat="46.02494" lon="6.71055">
        <ele>2104</ele>
        <time>2014-08-24T15:17:24.000Z</time>
      </trkpt>
      <trkpt lat="46.02503" lon="6.71014">
        <ele>2098</ele>
        <time>2014-08-24T15:17:36.000Z</time>
      </trkpt>
      <trkpt lat="46.02499" lon="6.70988">
        <ele>2096</ele>
        <time>2014-08-24T15:17:42.000Z</time>
      </trkpt>
      <trkpt lat="46.02497" lon="6.70968">
        <ele>2093</ele>
        <time>2014-08-24T15:17:48.000Z</time>
      </trkpt>
      <trkpt lat="46.02494" lon="6.70945">
        <ele>2090</ele>
        <time>2014-08-24T15:17:54.000Z</time>
      </trkpt>
      <trkpt lat="46.02498" lon="6.70924">
        <ele>2086</ele>
        <time>2014-08-24T15:18:00.000Z</time>
      </trkpt>
      <trkpt lat="46.02501" lon="6.70905">
        <ele>2083</ele>
        <time>2014-08-24T15:18:06.000Z</time>
      </trkpt>
      <trkpt lat="46.02505" lon="6.70884">
        <ele>2079</ele>
        <time>2014-08-24T15:18:12.000Z</time>
      </trkpt>
      <trkpt lat="46.02526" lon="6.70883">
        <ele>2078</ele>
        <time>2014-08-24T15:18:15.000Z</time>
      </trkpt>
      <trkpt lat="46.02533" lon="6.70862">
        <ele>2075</ele>
        <time>2014-08-24T15:18:21.000Z</time>
      </trkpt>
      <trkpt lat="46.02539" lon="6.70844">
        <ele>2072</ele>
        <time>2014-08-24T15:18:27.000Z</time>
      </trkpt>
      <trkpt lat="46.02546" lon="6.70826">
        <ele>2067</ele>
        <time>2014-08-24T15:18:36.000Z</time>
      </trkpt>
      <trkpt lat="46.02563" lon="6.70808">
        <ele>2062</ele>
        <time>2014-08-24T15:18:45.000Z</time>
      </trkpt>
      <trkpt lat="46.02577" lon="6.70797">
        <ele>2059</ele>
        <time>2014-08-24T15:18:51.000Z</time>
      </trkpt>
      <trkpt lat="46.02593" lon="6.7078">
        <ele>2053</ele>
        <time>2014-08-24T15:19:03.000Z</time>
      </trkpt>
      <trkpt lat="46.02607" lon="6.70768">
        <ele>2050</ele>
        <time>2014-08-24T15:19:09.000Z</time>
      </trkpt>
      <trkpt lat="46.02618" lon="6.70754">
        <ele>2047</ele>
        <time>2014-08-24T15:19:15.000Z</time>
      </trkpt>
      <trkpt lat="46.0263" lon="6.70739">
        <ele>2044</ele>
        <time>2014-08-24T15:19:21.000Z</time>
      </trkpt>
      <trkpt lat="46.02641" lon="6.70725">
        <ele>2041</ele>
        <time>2014-08-24T15:19:27.000Z</time>
      </trkpt>
      <trkpt lat="46.02652" lon="6.70712">
        <ele>2038</ele>
        <time>2014-08-24T15:19:33.000Z</time>
      </trkpt>
      <trkpt lat="46.02657" lon="6.70705">
        <ele>2035</ele>
        <time>2014-08-24T15:19:42.000Z</time>
      </trkpt>
      <trkpt lat="46.02663" lon="6.70699">
        <ele>2032</ele>
        <time>2014-08-24T15:19:48.000Z</time>
      </trkpt>
      <trkpt lat="46.02668" lon="6.70693">
        <ele>2030</ele>
        <time>2014-08-24T15:19:54.000Z</time>
      </trkpt>
      <trkpt lat="46.02673" lon="6.70686">
        <ele>2028</ele>
        <time>2014-08-24T15:20:00.000Z</time>
      </trkpt>
      <trkpt lat="46.02679" lon="6.70678">
        <ele>2026</ele>
        <time>2014-08-24T15:20:06.000Z</time>
      </trkpt>
      <trkpt lat="46.02685" lon="6.70671">
        <ele>2025</ele>
        <time>2014-08-24T15:20:12.000Z</time>
      </trkpt>
      <trkpt lat="46.02693" lon="6.70671">
        <ele>2025</ele>
        <time>2014-08-24T15:20:15.000Z</time>
      </trkpt>
      <trkpt lat="46.027" lon="6.70667">
        <ele>2025</ele>
        <time>2014-08-24T15:20:21.000Z</time>
      </trkpt>
      <trkpt lat="46.02707" lon="6.70663">
        <ele>2024</ele>
        <time>2014-08-24T15:20:27.000Z</time>
      </trkpt>
      <trkpt lat="46.02713" lon="6.70659">
        <ele>2024</ele>
        <time>2014-08-24T15:20:33.000Z</time>
      </trkpt>
      <trkpt lat="46.0272" lon="6.70652">
        <ele>2024</ele>
        <time>2014-08-24T15:20:48.000Z</time>
      </trkpt>
      <trkpt lat="46.02726" lon="6.70645">
        <ele>2024</ele>
        <time>2014-08-24T15:20:54.000Z</time>
      </trkpt>
      <trkpt lat="46.02734" lon="6.7064">
        <ele>2024</ele>
        <time>2014-08-24T15:21:00.000Z</time>
      </trkpt>
      <trkpt lat="46.0274" lon="6.70635">
        <ele>2025</ele>
        <time>2014-08-24T15:21:03.000Z</time>
      </trkpt>
      <trkpt lat="46.02747" lon="6.7063">
        <ele>2025</ele>
        <time>2014-08-24T15:21:09.000Z</time>
      </trkpt>
      <trkpt lat="46.02754" lon="6.70625">
        <ele>2025</ele>
        <time>2014-08-24T15:21:15.000Z</time>
      </trkpt>
      <trkpt lat="46.0276" lon="6.70618">
        <ele>2025</ele>
        <time>2014-08-24T15:21:21.000Z</time>
      </trkpt>
      <trkpt lat="46.02765" lon="6.7061">
        <ele>2025</ele>
        <time>2014-08-24T15:21:27.000Z</time>
      </trkpt>
      <trkpt lat="46.02771" lon="6.70603">
        <ele>2026</ele>
        <time>2014-08-24T15:21:33.000Z</time>
      </trkpt>
      <trkpt lat="46.02777" lon="6.70595">
        <ele>2027</ele>
        <time>2014-08-24T15:21:39.000Z</time>
      </trkpt>
      <trkpt lat="46.02784" lon="6.7059">
        <ele>2028</ele>
        <time>2014-08-24T15:21:45.000Z</time>
      </trkpt>
      <trkpt lat="46.02789" lon="6.70584">
        <ele>2029</ele>
        <time>2014-08-24T15:21:51.000Z</time>
      </trkpt>
      <trkpt lat="46.02795" lon="6.70578">
        <ele>2029</ele>
        <time>2014-08-24T15:21:57.000Z</time>
      </trkpt>
      <trkpt lat="46.02801" lon="6.70572">
        <ele>2030</ele>
        <time>2014-08-24T15:22:03.000Z</time>
      </trkpt>
      <trkpt lat="46.02806" lon="6.70566">
        <ele>2030</ele>
        <time>2014-08-24T15:22:09.000Z</time>
      </trkpt>
      <trkpt lat="46.02811" lon="6.70557">
        <ele>2030</ele>
        <time>2014-08-24T15:22:15.000Z</time>
      </trkpt>
      <trkpt lat="46.02816" lon="6.70548">
        <ele>2030</ele>
        <time>2014-08-24T15:22:21.000Z</time>
      </trkpt>
      <trkpt lat="46.0282" lon="6.70539">
        <ele>2031</ele>
        <time>2014-08-24T15:22:27.000Z</time>
      </trkpt>
      <trkpt lat="46.02825" lon="6.7053">
        <ele>2031</ele>
        <time>2014-08-24T15:22:33.000Z</time>
      </trkpt>
      <trkpt lat="46.02829" lon="6.70521">
        <ele>2032</ele>
        <time>2014-08-24T15:22:39.000Z</time>
      </trkpt>
      <trkpt lat="46.02834" lon="6.70513">
        <ele>2032</ele>
        <time>2014-08-24T15:22:45.000Z</time>
      </trkpt>
      <trkpt lat="46.02838" lon="6.70504">
        <ele>2033</ele>
        <time>2014-08-24T15:22:51.000Z</time>
      </trkpt>
      <trkpt lat="46.02841" lon="6.70496">
        <ele>2033</ele>
        <time>2014-08-24T15:22:57.000Z</time>
      </trkpt>
      <trkpt lat="46.02843" lon="6.70486">
        <ele>2034</ele>
        <time>2014-08-24T15:23:03.000Z</time>
      </trkpt>
      <trkpt lat="46.02846" lon="6.70477">
        <ele>2035</ele>
        <time>2014-08-24T15:23:09.000Z</time>
      </trkpt>
      <trkpt lat="46.02848" lon="6.70468">
        <ele>2036</ele>
        <time>2014-08-24T15:23:15.000Z</time>
      </trkpt>
      <trkpt lat="46.02851" lon="6.70459">
        <ele>2037</ele>
        <time>2014-08-24T15:23:21.000Z</time>
      </trkpt>
      <trkpt lat="46.02855" lon="6.70449">
        <ele>2039</ele>
        <time>2014-08-24T15:23:27.000Z</time>
      </trkpt>
      <trkpt lat="46.02858" lon="6.70438">
        <ele>2040</ele>
        <time>2014-08-24T15:23:33.000Z</time>
      </trkpt>
      <trkpt lat="46.02861" lon="6.70428">
        <ele>2042</ele>
        <time>2014-08-24T15:23:39.000Z</time>
      </trkpt>
      <trkpt lat="46.02861" lon="6.70416">
        <ele>2044</ele>
        <time>2014-08-24T15:23:45.000Z</time>
      </trkpt>
      <trkpt lat="46.02863" lon="6.70405">
        <ele>2046</ele>
        <time>2014-08-24T15:23:51.000Z</time>
      </trkpt>
      <trkpt lat="46.02864" lon="6.70394">
        <ele>2048</ele>
        <time>2014-08-24T15:23:57.000Z</time>
      </trkpt>
      <trkpt lat="46.02866" lon="6.70383">
        <ele>2050</ele>
        <time>2014-08-24T15:24:03.000Z</time>
      </trkpt>
      <trkpt lat="46.02871" lon="6.70361">
        <ele>2055</ele>
        <time>2014-08-24T15:24:24.000Z</time>
      </trkpt>
      <trkpt lat="46.02875" lon="6.70348">
        <ele>2055</ele>
        <time>2014-08-24T15:24:27.000Z</time>
      </trkpt>
      <trkpt lat="46.02878" lon="6.70339">
        <ele>2056</ele>
        <time>2014-08-24T15:24:30.000Z</time>
      </trkpt>
      <trkpt lat="46.02881" lon="6.70329">
        <ele>2058</ele>
        <time>2014-08-24T15:24:36.000Z</time>
      </trkpt>
      <trkpt lat="46.02884" lon="6.70319">
        <ele>2059</ele>
        <time>2014-08-24T15:24:42.000Z</time>
      </trkpt>
      <trkpt lat="46.02886" lon="6.70308">
        <ele>2061</ele>
        <time>2014-08-24T15:24:48.000Z</time>
      </trkpt>
      <trkpt lat="46.02888" lon="6.70296">
        <ele>2062</ele>
        <time>2014-08-24T15:24:54.000Z</time>
      </trkpt>
      <trkpt lat="46.0289" lon="6.70288">
        <ele>2063</ele>
        <time>2014-08-24T15:24:57.000Z</time>
      </trkpt>
      <trkpt lat="46.02892" lon="6.70278">
        <ele>2065</ele>
        <time>2014-08-24T15:25:03.000Z</time>
      </trkpt>
      <trkpt lat="46.02894" lon="6.70268">
        <ele>2067</ele>
        <time>2014-08-24T15:25:09.000Z</time>
      </trkpt>
      <trkpt lat="46.02896" lon="6.70259">
        <ele>2069</ele>
        <time>2014-08-24T15:25:15.000Z</time>
      </trkpt>
      <trkpt lat="46.02901" lon="6.70251">
        <ele>2070</ele>
        <time>2014-08-24T15:25:21.000Z</time>
      </trkpt>
      <trkpt lat="46.02905" lon="6.70241">
        <ele>2071</ele>
        <time>2014-08-24T15:25:27.000Z</time>
      </trkpt>
      <trkpt lat="46.02909" lon="6.70232">
        <ele>2073</ele>
        <time>2014-08-24T15:25:33.000Z</time>
      </trkpt>
      <trkpt lat="46.02914" lon="6.70223">
        <ele>2074</ele>
        <time>2014-08-24T15:25:39.000Z</time>
      </trkpt>
      <trkpt lat="46.02917" lon="6.70211">
        <ele>2078</ele>
        <time>2014-08-24T15:26:03.000Z</time>
      </trkpt>
      <trkpt lat="46.02919" lon="6.70202">
        <ele>2078</ele>
        <time>2014-08-24T15:26:06.000Z</time>
      </trkpt>
      <trkpt lat="46.02922" lon="6.70194">
        <ele>2079</ele>
        <time>2014-08-24T15:26:12.000Z</time>
      </trkpt>
      <trkpt lat="46.02925" lon="6.70184">
        <ele>2081</ele>
        <time>2014-08-24T15:26:18.000Z</time>
      </trkpt>
      <trkpt lat="46.02927" lon="6.70174">
        <ele>2082</ele>
        <time>2014-08-24T15:26:24.000Z</time>
      </trkpt>
      <trkpt lat="46.0293" lon="6.70164">
        <ele>2083</ele>
        <time>2014-08-24T15:26:30.000Z</time>
      </trkpt>
      <trkpt lat="46.02933" lon="6.70155">
        <ele>2084</ele>
        <time>2014-08-24T15:26:36.000Z</time>
      </trkpt>
      <trkpt lat="46.02936" lon="6.70145">
        <ele>2086</ele>
        <time>2014-08-24T15:26:42.000Z</time>
      </trkpt>
      <trkpt lat="46.0294" lon="6.70136">
        <ele>2087</ele>
        <time>2014-08-24T15:26:48.000Z</time>
      </trkpt>
      <trkpt lat="46.02943" lon="6.70129">
        <ele>2088</ele>
        <time>2014-08-24T15:26:51.000Z</time>
      </trkpt>
      <trkpt lat="46.02946" lon="6.7012">
        <ele>2089</ele>
        <time>2014-08-24T15:26:57.000Z</time>
      </trkpt>
      <trkpt lat="46.02949" lon="6.70112">
        <ele>2090</ele>
        <time>2014-08-24T15:27:03.000Z</time>
      </trkpt>
      <trkpt lat="46.02952" lon="6.70102">
        <ele>2092</ele>
        <time>2014-08-24T15:27:09.000Z</time>
      </trkpt>
      <trkpt lat="46.02955" lon="6.70093">
        <ele>2093</ele>
        <time>2014-08-24T15:27:15.000Z</time>
      </trkpt>
      <trkpt lat="46.02959" lon="6.70084">
        <ele>2094</ele>
        <time>2014-08-24T15:27:21.000Z</time>
      </trkpt>
      <trkpt lat="46.02962" lon="6.70076">
        <ele>2095</ele>
        <time>2014-08-24T15:27:24.000Z</time>
      </trkpt>
      <trkpt lat="46.02966" lon="6.70068">
        <ele>2096</ele>
        <time>2014-08-24T15:27:30.000Z</time>
      </trkpt>
      <trkpt lat="46.02969" lon="6.7006">
        <ele>2098</ele>
        <time>2014-08-24T15:27:36.000Z</time>
      </trkpt>
      <trkpt lat="46.02972" lon="6.70052">
        <ele>2099</ele>
        <time>2014-08-24T15:27:42.000Z</time>
      </trkpt>
      <trkpt lat="46.02973" lon="6.70041">
        <ele>2100</ele>
        <time>2014-08-24T15:27:48.000Z</time>
      </trkpt>
      <trkpt lat="46.02974" lon="6.70032">
        <ele>2100</ele>
        <time>2014-08-24T15:27:51.000Z</time>
      </trkpt>
      <trkpt lat="46.02976" lon="6.70021">
        <ele>2102</ele>
        <time>2014-08-24T15:27:57.000Z</time>
      </trkpt>
      <trkpt lat="46.02977" lon="6.70012">
        <ele>2102</ele>
        <time>2014-08-24T15:28:00.000Z</time>
      </trkpt>
      <trkpt lat="46.02978" lon="6.70002">
        <ele>2103</ele>
        <time>2014-08-24T15:28:06.000Z</time>
      </trkpt>
      <trkpt lat="46.02979" lon="6.69991">
        <ele>2104</ele>
        <time>2014-08-24T15:28:12.000Z</time>
      </trkpt>
      <trkpt lat="46.02978" lon="6.69979">
        <ele>2105</ele>
        <time>2014-08-24T15:28:18.000Z</time>
      </trkpt>
      <trkpt lat="46.02977" lon="6.6997">
        <ele>2106</ele>
        <time>2014-08-24T15:28:21.000Z</time>
      </trkpt>
      <trkpt lat="46.02976" lon="6.69959">
        <ele>2107</ele>
        <time>2014-08-24T15:28:27.000Z</time>
      </trkpt>
      <trkpt lat="46.02974" lon="6.69947">
        <ele>2108</ele>
        <time>2014-08-24T15:28:33.000Z</time>
      </trkpt>
      <trkpt lat="46.02972" lon="6.69935">
        <ele>2108</ele>
        <time>2014-08-24T15:28:39.000Z</time>
      </trkpt>
      <trkpt lat="46.02969" lon="6.69924">
        <ele>2109</ele>
        <time>2014-08-24T15:28:45.000Z</time>
      </trkpt>
      <trkpt lat="46.02965" lon="6.69914">
        <ele>2110</ele>
        <time>2014-08-24T15:28:51.000Z</time>
      </trkpt>
      <trkpt lat="46.02961" lon="6.69903">
        <ele>2111</ele>
        <time>2014-08-24T15:28:57.000Z</time>
      </trkpt>
      <trkpt lat="46.02959" lon="6.69894">
        <ele>2111</ele>
        <time>2014-08-24T15:29:00.000Z</time>
      </trkpt>
      <trkpt lat="46.02956" lon="6.69882">
        <ele>2111</ele>
        <time>2014-08-24T15:29:06.000Z</time>
      </trkpt>
      <trkpt lat="46.02954" lon="6.69873">
        <ele>2112</ele>
        <time>2014-08-24T15:29:09.000Z</time>
      </trkpt>
      <trkpt lat="46.02953" lon="6.69863">
        <ele>2113</ele>
        <time>2014-08-24T15:29:15.000Z</time>
      </trkpt>
      <trkpt lat="46.02951" lon="6.69852">
        <ele>2114</ele>
        <time>2014-08-24T15:29:21.000Z</time>
      </trkpt>
      <trkpt lat="46.02948" lon="6.69841">
        <ele>2115</ele>
        <time>2014-08-24T15:29:27.000Z</time>
      </trkpt>
      <trkpt lat="46.02947" lon="6.69832">
        <ele>2115</ele>
        <time>2014-08-24T15:29:30.000Z</time>
      </trkpt>
      <trkpt lat="46.02945" lon="6.69821">
        <ele>2116</ele>
        <time>2014-08-24T15:29:36.000Z</time>
      </trkpt>
      <trkpt lat="46.02942" lon="6.69809">
        <ele>2117</ele>
        <time>2014-08-24T15:29:42.000Z</time>
      </trkpt>
      <trkpt lat="46.02944" lon="6.69798">
        <ele>2117</ele>
        <time>2014-08-24T15:29:45.000Z</time>
      </trkpt>
      <trkpt lat="46.02945" lon="6.69789">
        <ele>2117</ele>
        <time>2014-08-24T15:29:48.000Z</time>
      </trkpt>
      <trkpt lat="46.02945" lon="6.69779">
        <ele>2118</ele>
        <time>2014-08-24T15:29:51.000Z</time>
      </trkpt>
      <trkpt lat="46.02946" lon="6.6977">
        <ele>2118</ele>
        <time>2014-08-24T15:29:54.000Z</time>
      </trkpt>
      <trkpt lat="46.02947" lon="6.69751">
        <ele>2118</ele>
        <time>2014-08-24T15:29:57.000Z</time>
      </trkpt>
      <trkpt lat="46.0295" lon="6.69732">
        <ele>2118</ele>
        <time>2014-08-24T15:30:03.000Z</time>
      </trkpt>
      <trkpt lat="46.02954" lon="6.69714">
        <ele>2118</ele>
        <time>2014-08-24T15:30:09.000Z</time>
      </trkpt>
      <trkpt lat="46.02958" lon="6.69697">
        <ele>2119</ele>
        <time>2014-08-24T15:30:15.000Z</time>
      </trkpt>
      <trkpt lat="46.02963" lon="6.69678">
        <ele>2119</ele>
        <time>2014-08-24T15:30:21.000Z</time>
      </trkpt>
      <trkpt lat="46.02968" lon="6.6966">
        <ele>2120</ele>
        <time>2014-08-24T15:30:27.000Z</time>
      </trkpt>
      <trkpt lat="46.02974" lon="6.69641">
        <ele>2121</ele>
        <time>2014-08-24T15:30:33.000Z</time>
      </trkpt>
      <trkpt lat="46.02978" lon="6.69625">
        <ele>2122</ele>
        <time>2014-08-24T15:30:39.000Z</time>
      </trkpt>
      <trkpt lat="46.02991" lon="6.69612">
        <ele>2124</ele>
        <time>2014-08-24T15:30:45.000Z</time>
      </trkpt>
      <trkpt lat="46.03005" lon="6.69598">
        <ele>2125</ele>
        <time>2014-08-24T15:30:54.000Z</time>
      </trkpt>
      <trkpt lat="46.03018" lon="6.69585">
        <ele>2127</ele>
        <time>2014-08-24T15:31:03.000Z</time>
      </trkpt>
      <trkpt lat="46.0303" lon="6.69573">
        <ele>2129</ele>
        <time>2014-08-24T15:31:12.000Z</time>
      </trkpt>
      <trkpt lat="46.03041" lon="6.69562">
        <ele>2131</ele>
        <time>2014-08-24T15:31:24.000Z</time>
      </trkpt>
      <trkpt lat="46.03053" lon="6.6955">
        <ele>2133</ele>
        <time>2014-08-24T15:31:39.000Z</time>
      </trkpt>
      <trkpt lat="46.03051" lon="6.69516">
        <ele>2139</ele>
        <time>2014-08-24T15:32:18.000Z</time>
      </trkpt>
      <trkpt lat="46.03051" lon="6.69497">
        <ele>2140</ele>
        <time>2014-08-24T15:32:21.000Z</time>
      </trkpt>
      <trkpt lat="46.03051" lon="6.69485">
        <ele>2141</ele>
        <time>2014-08-24T15:32:24.000Z</time>
      </trkpt>
      <trkpt lat="46.0305" lon="6.69474">
        <ele>2143</ele>
        <time>2014-08-24T15:32:30.000Z</time>
      </trkpt>
      <trkpt lat="46.03049" lon="6.69463">
        <ele>2145</ele>
        <time>2014-08-24T15:32:36.000Z</time>
      </trkpt>
      <trkpt lat="46.03049" lon="6.69453">
        <ele>2146</ele>
        <time>2014-08-24T15:32:42.000Z</time>
      </trkpt>
      <trkpt lat="46.03056" lon="6.69451">
        <ele>2149</ele>
        <time>2014-08-24T15:32:54.000Z</time>
      </trkpt>
      <trkpt lat="46.03064" lon="6.69456">
        <ele>2151</ele>
        <time>2014-08-24T15:33:03.000Z</time>
      </trkpt>
      <trkpt lat="46.03071" lon="6.69461">
        <ele>2152</ele>
        <time>2014-08-24T15:33:09.000Z</time>
      </trkpt>
      <trkpt lat="46.03077" lon="6.69465">
        <ele>2153</ele>
        <time>2014-08-24T15:33:15.000Z</time>
      </trkpt>
      <trkpt lat="46.03085" lon="6.69462">
        <ele>2154</ele>
        <time>2014-08-24T15:33:48.000Z</time>
      </trkpt>
      <trkpt lat="46.03077" lon="6.69463">
        <ele>2165</ele>
        <time>2014-08-24T15:38:27.000Z</time>
      </trkpt>
      <trkpt lat="46.0307" lon="6.6946">
        <ele>2166</ele>
        <time>2014-08-24T15:38:30.000Z</time>
      </trkpt>
      <trkpt lat="46.03064" lon="6.69449">
        <ele>2166</ele>
        <time>2014-08-24T15:38:36.000Z</time>
      </trkpt>
      <trkpt lat="46.03058" lon="6.6944">
        <ele>2166</ele>
        <time>2014-08-24T15:38:39.000Z</time>
      </trkpt>
      <trkpt lat="46.03051" lon="6.69431">
        <ele>2166</ele>
        <time>2014-08-24T15:38:42.000Z</time>
      </trkpt>
      <trkpt lat="46.03044" lon="6.69424">
        <ele>2166</ele>
        <time>2014-08-24T15:38:45.000Z</time>
      </trkpt>
      <trkpt lat="46.03038" lon="6.69415">
        <ele>2165</ele>
        <time>2014-08-24T15:38:48.000Z</time>
      </trkpt>
      <trkpt lat="46.03028" lon="6.694">
        <ele>2165</ele>
        <time>2014-08-24T15:38:51.000Z</time>
      </trkpt>
      <trkpt lat="46.03019" lon="6.69381">
        <ele>2164</ele>
        <time>2014-08-24T15:38:57.000Z</time>
      </trkpt>
      <trkpt lat="46.03047" lon="6.69346">
        <ele>2160</ele>
        <time>2014-08-24T15:39:18.000Z</time>
      </trkpt>
      <trkpt lat="46.03066" lon="6.69344">
        <ele>2157</ele>
        <time>2014-08-24T15:39:27.000Z</time>
      </trkpt>
      <trkpt lat="46.0308" lon="6.69339">
        <ele>2155</ele>
        <time>2014-08-24T15:39:33.000Z</time>
      </trkpt>
      <trkpt lat="46.03093" lon="6.69334">
        <ele>2152</ele>
        <time>2014-08-24T15:39:39.000Z</time>
      </trkpt>
      <trkpt lat="46.03106" lon="6.69329">
        <ele>2150</ele>
        <time>2014-08-24T15:39:45.000Z</time>
      </trkpt>
      <trkpt lat="46.03118" lon="6.69325">
        <ele>2147</ele>
        <time>2014-08-24T15:39:51.000Z</time>
      </trkpt>
      <trkpt lat="46.03136" lon="6.69318">
        <ele>2143</ele>
        <time>2014-08-24T15:40:00.000Z</time>
      </trkpt>
      <trkpt lat="46.03149" lon="6.69314">
        <ele>2140</ele>
        <time>2014-08-24T15:40:06.000Z</time>
      </trkpt>
      <trkpt lat="46.0317" lon="6.69349">
        <ele>2136</ele>
        <time>2014-08-24T15:40:12.000Z</time>
      </trkpt>
      <trkpt lat="46.03185" lon="6.69353">
        <ele>2133</ele>
        <time>2014-08-24T15:40:18.000Z</time>
      </trkpt>
      <trkpt lat="46.03199" lon="6.69355">
        <ele>2129</ele>
        <time>2014-08-24T15:40:24.000Z</time>
      </trkpt>
      <trkpt lat="46.03215" lon="6.69347">
        <ele>2125</ele>
        <time>2014-08-24T15:40:30.000Z</time>
      </trkpt>
      <trkpt lat="46.03228" lon="6.69341">
        <ele>2119</ele>
        <time>2014-08-24T15:40:39.000Z</time>
      </trkpt>
      <trkpt lat="46.0324" lon="6.69335">
        <ele>2113</ele>
        <time>2014-08-24T15:40:48.000Z</time>
      </trkpt>
      <trkpt lat="46.03254" lon="6.69329">
        <ele>2107</ele>
        <time>2014-08-24T15:41:00.000Z</time>
      </trkpt>
      <trkpt lat="46.03239" lon="6.69252">
        <ele>2106</ele>
        <time>2014-08-24T15:41:03.000Z</time>
      </trkpt>
      <trkpt lat="46.03245" lon="6.69232">
        <ele>2103</ele>
        <time>2014-08-24T15:41:09.000Z</time>
      </trkpt>
      <trkpt lat="46.0325" lon="6.69215">
        <ele>2100</ele>
        <time>2014-08-24T15:41:15.000Z</time>
      </trkpt>
      <trkpt lat="46.03254" lon="6.69206">
        <ele>2098</ele>
        <time>2014-08-24T15:41:21.000Z</time>
      </trkpt>
      <trkpt lat="46.03257" lon="6.69196">
        <ele>2097</ele>
        <time>2014-08-24T15:41:24.000Z</time>
      </trkpt>
      <trkpt lat="46.0326" lon="6.69186">
        <ele>2095</ele>
        <time>2014-08-24T15:41:27.000Z</time>
      </trkpt>
      <trkpt lat="46.03264" lon="6.69175">
        <ele>2093</ele>
        <time>2014-08-24T15:41:30.000Z</time>
      </trkpt>
      <trkpt lat="46.03267" lon="6.69164">
        <ele>2092</ele>
        <time>2014-08-24T15:41:33.000Z</time>
      </trkpt>
      <trkpt lat="46.03273" lon="6.69143">
        <ele>2090</ele>
        <time>2014-08-24T15:41:36.000Z</time>
      </trkpt>
      <trkpt lat="46.0328" lon="6.69121">
        <ele>2086</ele>
        <time>2014-08-24T15:41:42.000Z</time>
      </trkpt>
      <trkpt lat="46.03286" lon="6.69099">
        <ele>2082</ele>
        <time>2014-08-24T15:41:48.000Z</time>
      </trkpt>
      <trkpt lat="46.03289" lon="6.69077">
        <ele>2078</ele>
        <time>2014-08-24T15:41:54.000Z</time>
      </trkpt>
      <trkpt lat="46.03307" lon="6.69024">
        <ele>2067</ele>
        <time>2014-08-24T15:42:09.000Z</time>
      </trkpt>
      <trkpt lat="46.03317" lon="6.69004">
        <ele>2063</ele>
        <time>2014-08-24T15:42:15.000Z</time>
      </trkpt>
      <trkpt lat="46.03327" lon="6.68986">
        <ele>2060</ele>
        <time>2014-08-24T15:42:21.000Z</time>
      </trkpt>
      <trkpt lat="46.03334" lon="6.68971">
        <ele>2057</ele>
        <time>2014-08-24T15:42:27.000Z</time>
      </trkpt>
      <trkpt lat="46.03327" lon="6.68951">
        <ele>2055</ele>
        <time>2014-08-24T15:42:30.000Z</time>
      </trkpt>
      <trkpt lat="46.03328" lon="6.68929">
        <ele>2052</ele>
        <time>2014-08-24T15:42:36.000Z</time>
      </trkpt>
      <trkpt lat="46.03332" lon="6.68902">
        <ele>2049</ele>
        <time>2014-08-24T15:42:42.000Z</time>
      </trkpt>
      <trkpt lat="46.03335" lon="6.6888">
        <ele>2046</ele>
        <time>2014-08-24T15:42:48.000Z</time>
      </trkpt>
      <trkpt lat="46.03338" lon="6.68857">
        <ele>2042</ele>
        <time>2014-08-24T15:42:54.000Z</time>
      </trkpt>
      <trkpt lat="46.03347" lon="6.68838">
        <ele>2039</ele>
        <time>2014-08-24T15:43:00.000Z</time>
      </trkpt>
      <trkpt lat="46.0335" lon="6.68818">
        <ele>2035</ele>
        <time>2014-08-24T15:43:06.000Z</time>
      </trkpt>
      <trkpt lat="46.03353" lon="6.68789">
        <ele>2029</ele>
        <time>2014-08-24T15:43:15.000Z</time>
      </trkpt>
      <trkpt lat="46.03355" lon="6.68768">
        <ele>2026</ele>
        <time>2014-08-24T15:43:21.000Z</time>
      </trkpt>
      <trkpt lat="46.03361" lon="6.68742">
        <ele>2023</ele>
        <time>2014-08-24T15:43:27.000Z</time>
      </trkpt>
      <trkpt lat="46.03366" lon="6.6872">
        <ele>2019</ele>
        <time>2014-08-24T15:43:33.000Z</time>
      </trkpt>
      <trkpt lat="46.0337" lon="6.68697">
        <ele>2016</ele>
        <time>2014-08-24T15:43:39.000Z</time>
      </trkpt>
      <trkpt lat="46.03374" lon="6.68673">
        <ele>2013</ele>
        <time>2014-08-24T15:43:45.000Z</time>
      </trkpt>
      <trkpt lat="46.03377" lon="6.68648">
        <ele>2010</ele>
        <time>2014-08-24T15:43:51.000Z</time>
      </trkpt>
      <trkpt lat="46.03387" lon="6.68626">
        <ele>2007</ele>
        <time>2014-08-24T15:43:57.000Z</time>
      </trkpt>
      <trkpt lat="46.03395" lon="6.68605">
        <ele>2004</ele>
        <time>2014-08-24T15:44:03.000Z</time>
      </trkpt>
      <trkpt lat="46.03402" lon="6.68583">
        <ele>2000</ele>
        <time>2014-08-24T15:44:09.000Z</time>
      </trkpt>
      <trkpt lat="46.0341" lon="6.68565">
        <ele>1997</ele>
        <time>2014-08-24T15:44:15.000Z</time>
      </trkpt>
      <trkpt lat="46.03419" lon="6.68546">
        <ele>1995</ele>
        <time>2014-08-24T15:44:21.000Z</time>
      </trkpt>
      <trkpt lat="46.03424" lon="6.68536">
        <ele>1992</ele>
        <time>2014-08-24T15:44:27.000Z</time>
      </trkpt>
      <trkpt lat="46.03428" lon="6.68525">
        <ele>1991</ele>
        <time>2014-08-24T15:44:30.000Z</time>
      </trkpt>
      <trkpt lat="46.03433" lon="6.68515">
        <ele>1989</ele>
        <time>2014-08-24T15:44:33.000Z</time>
      </trkpt>
      <trkpt lat="46.03437" lon="6.68505">
        <ele>1988</ele>
        <time>2014-08-24T15:44:36.000Z</time>
      </trkpt>
      <trkpt lat="46.03442" lon="6.68496">
        <ele>1987</ele>
        <time>2014-08-24T15:44:39.000Z</time>
      </trkpt>
      <trkpt lat="46.03451" lon="6.68477">
        <ele>1985</ele>
        <time>2014-08-24T15:44:42.000Z</time>
      </trkpt>
      <trkpt lat="46.03458" lon="6.68455">
        <ele>1983</ele>
        <time>2014-08-24T15:44:48.000Z</time>
      </trkpt>
      <trkpt lat="46.03464" lon="6.68429">
        <ele>1982</ele>
        <time>2014-08-24T15:44:54.000Z</time>
      </trkpt>
      <trkpt lat="46.03469" lon="6.68406">
        <ele>1981</ele>
        <time>2014-08-24T15:45:00.000Z</time>
      </trkpt>
      <trkpt lat="46.03473" lon="6.68386">
        <ele>1979</ele>
        <time>2014-08-24T15:45:06.000Z</time>
      </trkpt>
      <trkpt lat="46.03477" lon="6.68358">
        <ele>1978</ele>
        <time>2014-08-24T15:45:12.000Z</time>
      </trkpt>
      <trkpt lat="46.03477" lon="6.68334">
        <ele>1975</ele>
        <time>2014-08-24T15:45:18.000Z</time>
      </trkpt>
      <trkpt lat="46.03476" lon="6.68309">
        <ele>1973</ele>
        <time>2014-08-24T15:45:24.000Z</time>
      </trkpt>
      <trkpt lat="46.03474" lon="6.68285">
        <ele>1970</ele>
        <time>2014-08-24T15:45:30.000Z</time>
      </trkpt>
      <trkpt lat="46.03474" lon="6.68259">
        <ele>1965</ele>
        <time>2014-08-24T15:45:39.000Z</time>
      </trkpt>
      <trkpt lat="46.03473" lon="6.68239">
        <ele>1961</ele>
        <time>2014-08-24T15:45:45.000Z</time>
      </trkpt>
      <trkpt lat="46.03472" lon="6.6822">
        <ele>1958</ele>
        <time>2014-08-24T15:45:51.000Z</time>
      </trkpt>
      <trkpt lat="46.03433" lon="6.68199">
        <ele>1955</ele>
        <time>2014-08-24T15:45:57.000Z</time>
      </trkpt>
      <trkpt lat="46.03421" lon="6.68138">
        <ele>1946</ele>
        <time>2014-08-24T15:46:15.000Z</time>
      </trkpt>
      <trkpt lat="46.03418" lon="6.68118">
        <ele>1943</ele>
        <time>2014-08-24T15:46:21.000Z</time>
      </trkpt>
      <trkpt lat="46.03417" lon="6.68093">
        <ele>1940</ele>
        <time>2014-08-24T15:46:27.000Z</time>
      </trkpt>
      <trkpt lat="46.03419" lon="6.6807">
        <ele>1937</ele>
        <time>2014-08-24T15:46:33.000Z</time>
      </trkpt>
      <trkpt lat="46.03423" lon="6.68047">
        <ele>1933</ele>
        <time>2014-08-24T15:46:39.000Z</time>
      </trkpt>
      <trkpt lat="46.03426" lon="6.68023">
        <ele>1931</ele>
        <time>2014-08-24T15:46:45.000Z</time>
      </trkpt>
      <trkpt lat="46.0343" lon="6.68">
        <ele>1929</ele>
        <time>2014-08-24T15:46:51.000Z</time>
      </trkpt>
      <trkpt lat="46.03434" lon="6.67973">
        <ele>1925</ele>
        <time>2014-08-24T15:47:00.000Z</time>
      </trkpt>
      <trkpt lat="46.03437" lon="6.67952">
        <ele>1923</ele>
        <time>2014-08-24T15:47:06.000Z</time>
      </trkpt>
      <trkpt lat="46.0344" lon="6.67932">
        <ele>1921</ele>
        <time>2014-08-24T15:47:12.000Z</time>
      </trkpt>
      <trkpt lat="46.0342" lon="6.67913">
        <ele>1919</ele>
        <time>2014-08-24T15:47:15.000Z</time>
      </trkpt>
      <trkpt lat="46.03417" lon="6.67889">
        <ele>1918</ele>
        <time>2014-08-24T15:47:21.000Z</time>
      </trkpt>
      <trkpt lat="46.03416" lon="6.67878">
        <ele>1916</ele>
        <time>2014-08-24T15:47:27.000Z</time>
      </trkpt>
      <trkpt lat="46.03415" lon="6.67867">
        <ele>1916</ele>
        <time>2014-08-24T15:47:30.000Z</time>
      </trkpt>
      <trkpt lat="46.03413" lon="6.67857">
        <ele>1915</ele>
        <time>2014-08-24T15:47:33.000Z</time>
      </trkpt>
      <trkpt lat="46.03412" lon="6.67847">
        <ele>1914</ele>
        <time>2014-08-24T15:47:36.000Z</time>
      </trkpt>
      <trkpt lat="46.0341" lon="6.67836">
        <ele>1914</ele>
        <time>2014-08-24T15:47:39.000Z</time>
      </trkpt>
      <trkpt lat="46.03407" lon="6.67813">
        <ele>1913</ele>
        <time>2014-08-24T15:47:42.000Z</time>
      </trkpt>
      <trkpt lat="46.03415" lon="6.67789">
        <ele>1912</ele>
        <time>2014-08-24T15:47:48.000Z</time>
      </trkpt>
      <trkpt lat="46.03421" lon="6.67766">
        <ele>1911</ele>
        <time>2014-08-24T15:47:54.000Z</time>
      </trkpt>
      <trkpt lat="46.03428" lon="6.67746">
        <ele>1910</ele>
        <time>2014-08-24T15:48:00.000Z</time>
      </trkpt>
      <trkpt lat="46.03437" lon="6.67727">
        <ele>1909</ele>
        <time>2014-08-24T15:48:06.000Z</time>
      </trkpt>
      <trkpt lat="46.03448" lon="6.67711">
        <ele>1909</ele>
        <time>2014-08-24T15:48:12.000Z</time>
      </trkpt>
      <trkpt lat="46.03458" lon="6.67694">
        <ele>1908</ele>
        <time>2014-08-24T15:48:18.000Z</time>
      </trkpt>
      <trkpt lat="46.03468" lon="6.67677">
        <ele>1908</ele>
        <time>2014-08-24T15:48:24.000Z</time>
      </trkpt>
      <trkpt lat="46.03477" lon="6.67664">
        <ele>1907</ele>
        <time>2014-08-24T15:48:30.000Z</time>
      </trkpt>
      <trkpt lat="46.03474" lon="6.67645">
        <ele>1907</ele>
        <time>2014-08-24T15:48:33.000Z</time>
      </trkpt>
      <trkpt lat="46.03484" lon="6.67626">
        <ele>1906</ele>
        <time>2014-08-24T15:48:39.000Z</time>
      </trkpt>
      <trkpt lat="46.03498" lon="6.6761">
        <ele>1905</ele>
        <time>2014-08-24T15:48:45.000Z</time>
      </trkpt>
      <trkpt lat="46.03513" lon="6.67596">
        <ele>1904</ele>
        <time>2014-08-24T15:48:51.000Z</time>
      </trkpt>
      <trkpt lat="46.03527" lon="6.67588">
        <ele>1903</ele>
        <time>2014-08-24T15:48:57.000Z</time>
      </trkpt>
      <trkpt lat="46.03543" lon="6.67578">
        <ele>1902</ele>
        <time>2014-08-24T15:49:03.000Z</time>
      </trkpt>
      <trkpt lat="46.03559" lon="6.67568">
        <ele>1900</ele>
        <time>2014-08-24T15:49:09.000Z</time>
      </trkpt>
      <trkpt lat="46.03572" lon="6.67561">
        <ele>1897</ele>
        <time>2014-08-24T15:49:15.000Z</time>
      </trkpt>
      <trkpt lat="46.03586" lon="6.67553">
        <ele>1895</ele>
        <time>2014-08-24T15:49:21.000Z</time>
      </trkpt>
      <trkpt lat="46.03598" lon="6.67536">
        <ele>1893</ele>
        <time>2014-08-24T15:49:27.000Z</time>
      </trkpt>
      <trkpt lat="46.03607" lon="6.67524">
        <ele>1891</ele>
        <time>2014-08-24T15:49:33.000Z</time>
      </trkpt>
      <trkpt lat="46.03619" lon="6.6751">
        <ele>1888</ele>
        <time>2014-08-24T15:49:39.000Z</time>
      </trkpt>
      <trkpt lat="46.03631" lon="6.67494">
        <ele>1885</ele>
        <time>2014-08-24T15:49:45.000Z</time>
      </trkpt>
      <trkpt lat="46.03645" lon="6.67481">
        <ele>1882</ele>
        <time>2014-08-24T15:49:51.000Z</time>
      </trkpt>
      <trkpt lat="46.03658" lon="6.67466">
        <ele>1879</ele>
        <time>2014-08-24T15:49:57.000Z</time>
      </trkpt>
      <trkpt lat="46.0367" lon="6.67449">
        <ele>1877</ele>
        <time>2014-08-24T15:50:03.000Z</time>
      </trkpt>
      <trkpt lat="46.0368" lon="6.67433">
        <ele>1874</ele>
        <time>2014-08-24T15:50:09.000Z</time>
      </trkpt>
      <trkpt lat="46.03691" lon="6.67417">
        <ele>1873</ele>
        <time>2014-08-24T15:50:15.000Z</time>
      </trkpt>
      <trkpt lat="46.03701" lon="6.67402">
        <ele>1871</ele>
        <time>2014-08-24T15:50:21.000Z</time>
      </trkpt>
      <trkpt lat="46.03709" lon="6.67382">
        <ele>1869</ele>
        <time>2014-08-24T15:50:27.000Z</time>
      </trkpt>
      <trkpt lat="46.03717" lon="6.67361">
        <ele>1867</ele>
        <time>2014-08-24T15:50:33.000Z</time>
      </trkpt>
      <trkpt lat="46.03724" lon="6.67339">
        <ele>1865</ele>
        <time>2014-08-24T15:50:39.000Z</time>
      </trkpt>
      <trkpt lat="46.03729" lon="6.6733">
        <ele>1863</ele>
        <time>2014-08-24T15:50:45.000Z</time>
      </trkpt>
      <trkpt lat="46.03734" lon="6.67321">
        <ele>1862</ele>
        <time>2014-08-24T15:50:48.000Z</time>
      </trkpt>
      <trkpt lat="46.03739" lon="6.6731">
        <ele>1860</ele>
        <time>2014-08-24T15:50:51.000Z</time>
      </trkpt>
      <trkpt lat="46.03743" lon="6.67301">
        <ele>1859</ele>
        <time>2014-08-24T15:50:54.000Z</time>
      </trkpt>
      <trkpt lat="46.03748" lon="6.67291">
        <ele>1858</ele>
        <time>2014-08-24T15:50:57.000Z</time>
      </trkpt>
      <trkpt lat="46.03757" lon="6.67273">
        <ele>1857</ele>
        <time>2014-08-24T15:51:00.000Z</time>
      </trkpt>
      <trkpt lat="46.03767" lon="6.67253">
        <ele>1855</ele>
        <time>2014-08-24T15:51:06.000Z</time>
      </trkpt>
      <trkpt lat="46.03778" lon="6.67236">
        <ele>1853</ele>
        <time>2014-08-24T15:51:12.000Z</time>
      </trkpt>
      <trkpt lat="46.03791" lon="6.67219">
        <ele>1851</ele>
        <time>2014-08-24T15:51:18.000Z</time>
      </trkpt>
      <trkpt lat="46.03802" lon="6.67204">
        <ele>1849</ele>
        <time>2014-08-24T15:51:24.000Z</time>
      </trkpt>
      <trkpt lat="46.03812" lon="6.6719">
        <ele>1847</ele>
        <time>2014-08-24T15:51:30.000Z</time>
      </trkpt>
      <trkpt lat="46.03824" lon="6.67174">
        <ele>1845</ele>
        <time>2014-08-24T15:51:36.000Z</time>
      </trkpt>
      <trkpt lat="46.03829" lon="6.67148">
        <ele>1843</ele>
        <time>2014-08-24T15:51:42.000Z</time>
      </trkpt>
      <trkpt lat="46.03838" lon="6.6713">
        <ele>1841</ele>
        <time>2014-08-24T15:51:48.000Z</time>
      </trkpt>
      <trkpt lat="46.03844" lon="6.67112">
        <ele>1838</ele>
        <time>2014-08-24T15:51:54.000Z</time>
      </trkpt>
      <trkpt lat="46.03854" lon="6.67092">
        <ele>1835</ele>
        <time>2014-08-24T15:52:00.000Z</time>
      </trkpt>
      <trkpt lat="46.03862" lon="6.67074">
        <ele>1833</ele>
        <time>2014-08-24T15:52:06.000Z</time>
      </trkpt>
      <trkpt lat="46.03868" lon="6.67058">
        <ele>1830</ele>
        <time>2014-08-24T15:52:12.000Z</time>
      </trkpt>
      <trkpt lat="46.0388" lon="6.67044">
        <ele>1827</ele>
        <time>2014-08-24T15:52:18.000Z</time>
      </trkpt>
      <trkpt lat="46.0389" lon="6.67027">
        <ele>1825</ele>
        <time>2014-08-24T15:52:24.000Z</time>
      </trkpt>
      <trkpt lat="46.03906" lon="6.67022">
        <ele>1822</ele>
        <time>2014-08-24T15:52:30.000Z</time>
      </trkpt>
      <trkpt lat="46.03923" lon="6.67022">
        <ele>1820</ele>
        <time>2014-08-24T15:52:36.000Z</time>
      </trkpt>
      <trkpt lat="46.03939" lon="6.67022">
        <ele>1817</ele>
        <time>2014-08-24T15:52:42.000Z</time>
      </trkpt>
      <trkpt lat="46.03946" lon="6.66997">
        <ele>1809</ele>
        <time>2014-08-24T15:52:51.000Z</time>
      </trkpt>
      <trkpt lat="46.03952" lon="6.66977">
        <ele>1807</ele>
        <time>2014-08-24T15:52:57.000Z</time>
      </trkpt>
      <trkpt lat="46.03958" lon="6.66953">
        <ele>1803</ele>
        <time>2014-08-24T15:53:06.000Z</time>
      </trkpt>
      <trkpt lat="46.03965" lon="6.66932">
        <ele>1800</ele>
        <time>2014-08-24T15:53:12.000Z</time>
      </trkpt>
      <trkpt lat="46.03974" lon="6.66913">
        <ele>1796</ele>
        <time>2014-08-24T15:53:18.000Z</time>
      </trkpt>
      <trkpt lat="46.03983" lon="6.66895">
        <ele>1793</ele>
        <time>2014-08-24T15:53:24.000Z</time>
      </trkpt>
      <trkpt lat="46.03998" lon="6.66881">
        <ele>1789</ele>
        <time>2014-08-24T15:53:30.000Z</time>
      </trkpt>
      <trkpt lat="46.04001" lon="6.66862">
        <ele>1786</ele>
        <time>2014-08-24T15:53:36.000Z</time>
      </trkpt>
      <trkpt lat="46.0401" lon="6.66846">
        <ele>1783</ele>
        <time>2014-08-24T15:53:42.000Z</time>
      </trkpt>
      <trkpt lat="46.04018" lon="6.66831">
        <ele>1780</ele>
        <time>2014-08-24T15:53:48.000Z</time>
      </trkpt>
      <trkpt lat="46.04023" lon="6.66823">
        <ele>1776</ele>
        <time>2014-08-24T15:53:54.000Z</time>
      </trkpt>
      <trkpt lat="46.04018" lon="6.66805">
        <ele>1775</ele>
        <time>2014-08-24T15:53:57.000Z</time>
      </trkpt>
      <trkpt lat="46.04016" lon="6.6679">
        <ele>1773</ele>
        <time>2014-08-24T15:54:00.000Z</time>
      </trkpt>
      <trkpt lat="46.04017" lon="6.66777">
        <ele>1771</ele>
        <time>2014-08-24T15:54:03.000Z</time>
      </trkpt>
      <trkpt lat="46.04016" lon="6.66766">
        <ele>1770</ele>
        <time>2014-08-24T15:54:06.000Z</time>
      </trkpt>
      <trkpt lat="46.04028" lon="6.66747">
        <ele>1769</ele>
        <time>2014-08-24T15:54:09.000Z</time>
      </trkpt>
      <trkpt lat="46.0404" lon="6.66729">
        <ele>1767</ele>
        <time>2014-08-24T15:54:15.000Z</time>
      </trkpt>
      <trkpt lat="46.04051" lon="6.66713">
        <ele>1764</ele>
        <time>2014-08-24T15:54:21.000Z</time>
      </trkpt>
      <trkpt lat="46.04062" lon="6.66698">
        <ele>1762</ele>
        <time>2014-08-24T15:54:27.000Z</time>
      </trkpt>
      <trkpt lat="46.04073" lon="6.66682">
        <ele>1760</ele>
        <time>2014-08-24T15:54:33.000Z</time>
      </trkpt>
      <trkpt lat="46.04082" lon="6.66667">
        <ele>1758</ele>
        <time>2014-08-24T15:54:39.000Z</time>
      </trkpt>
      <trkpt lat="46.04095" lon="6.66652">
        <ele>1756</ele>
        <time>2014-08-24T15:54:45.000Z</time>
      </trkpt>
      <trkpt lat="46.04108" lon="6.66611">
        <ele>1751</ele>
        <time>2014-08-24T15:54:57.000Z</time>
      </trkpt>
      <trkpt lat="46.04113" lon="6.66592">
        <ele>1749</ele>
        <time>2014-08-24T15:55:03.000Z</time>
      </trkpt>
      <trkpt lat="46.04118" lon="6.66571">
        <ele>1747</ele>
        <time>2014-08-24T15:55:09.000Z</time>
      </trkpt>
      <trkpt lat="46.04123" lon="6.66546">
        <ele>1745</ele>
        <time>2014-08-24T15:55:15.000Z</time>
      </trkpt>
      <trkpt lat="46.04131" lon="6.66526">
        <ele>1743</ele>
        <time>2014-08-24T15:55:21.000Z</time>
      </trkpt>
      <trkpt lat="46.04138" lon="6.66503">
        <ele>1741</ele>
        <time>2014-08-24T15:55:27.000Z</time>
      </trkpt>
      <trkpt lat="46.04144" lon="6.66482">
        <ele>1739</ele>
        <time>2014-08-24T15:55:33.000Z</time>
      </trkpt>
      <trkpt lat="46.04151" lon="6.6646">
        <ele>1737</ele>
        <time>2014-08-24T15:55:39.000Z</time>
      </trkpt>
      <trkpt lat="46.04156" lon="6.66443">
        <ele>1735</ele>
        <time>2014-08-24T15:55:45.000Z</time>
      </trkpt>
      <trkpt lat="46.04162" lon="6.66422">
        <ele>1733</ele>
        <time>2014-08-24T15:55:51.000Z</time>
      </trkpt>
      <trkpt lat="46.0416" lon="6.66397">
        <ele>1731</ele>
        <time>2014-08-24T15:55:57.000Z</time>
      </trkpt>
      <trkpt lat="46.04158" lon="6.66379">
        <ele>1730</ele>
        <time>2014-08-24T15:56:03.000Z</time>
      </trkpt>
      <trkpt lat="46.04156" lon="6.66359">
        <ele>1727</ele>
        <time>2014-08-24T15:56:12.000Z</time>
      </trkpt>
      <trkpt lat="46.04185" lon="6.66351">
        <ele>1726</ele>
        <time>2014-08-24T15:56:15.000Z</time>
      </trkpt>
      <trkpt lat="46.04197" lon="6.6633">
        <ele>1723</ele>
        <time>2014-08-24T15:56:24.000Z</time>
      </trkpt>
      <trkpt lat="46.04208" lon="6.6632">
        <ele>1722</ele>
        <time>2014-08-24T15:56:30.000Z</time>
      </trkpt>
      <trkpt lat="46.04221" lon="6.66311">
        <ele>1720</ele>
        <time>2014-08-24T15:56:36.000Z</time>
      </trkpt>
      <trkpt lat="46.04233" lon="6.66304">
        <ele>1718</ele>
        <time>2014-08-24T15:56:42.000Z</time>
      </trkpt>
      <trkpt lat="46.04247" lon="6.66299">
        <ele>1717</ele>
        <time>2014-08-24T15:56:48.000Z</time>
      </trkpt>
      <trkpt lat="46.04261" lon="6.66293">
        <ele>1715</ele>
        <time>2014-08-24T15:56:54.000Z</time>
      </trkpt>
      <trkpt lat="46.04271" lon="6.66295">
        <ele>1713</ele>
        <time>2014-08-24T15:57:00.000Z</time>
      </trkpt>
      <trkpt lat="46.04279" lon="6.66295">
        <ele>1712</ele>
        <time>2014-08-24T15:57:03.000Z</time>
      </trkpt>
      <trkpt lat="46.04287" lon="6.66294">
        <ele>1711</ele>
        <time>2014-08-24T15:57:06.000Z</time>
      </trkpt>
      <trkpt lat="46.04296" lon="6.66294">
        <ele>1710</ele>
        <time>2014-08-24T15:57:09.000Z</time>
      </trkpt>
      <trkpt lat="46.04305" lon="6.66293">
        <ele>1708</ele>
        <time>2014-08-24T15:57:12.000Z</time>
      </trkpt>
      <trkpt lat="46.04321" lon="6.66287">
        <ele>1707</ele>
        <time>2014-08-24T15:57:15.000Z</time>
      </trkpt>
      <trkpt lat="46.04335" lon="6.66283">
        <ele>1705</ele>
        <time>2014-08-24T15:57:21.000Z</time>
      </trkpt>
      <trkpt lat="46.04351" lon="6.66273">
        <ele>1703</ele>
        <time>2014-08-24T15:57:27.000Z</time>
      </trkpt>
      <trkpt lat="46.0442" lon="6.66263">
        <ele>1693</ele>
        <time>2014-08-24T15:57:54.000Z</time>
      </trkpt>
      <trkpt lat="46.04451" lon="6.66256">
        <ele>1690</ele>
        <time>2014-08-24T15:58:06.000Z</time>
      </trkpt>
      <trkpt lat="46.0447" lon="6.66262">
        <ele>1688</ele>
        <time>2014-08-24T15:58:12.000Z</time>
      </trkpt>
      <trkpt lat="46.04488" lon="6.66273">
        <ele>1685</ele>
        <time>2014-08-24T15:58:18.000Z</time>
      </trkpt>
      <trkpt lat="46.04504" lon="6.66277">
        <ele>1682</ele>
        <time>2014-08-24T15:58:24.000Z</time>
      </trkpt>
      <trkpt lat="46.04519" lon="6.66281">
        <ele>1679</ele>
        <time>2014-08-24T15:58:30.000Z</time>
      </trkpt>
      <trkpt lat="46.04533" lon="6.66284">
        <ele>1677</ele>
        <time>2014-08-24T15:58:36.000Z</time>
      </trkpt>
      <trkpt lat="46.0455" lon="6.66296">
        <ele>1674</ele>
        <time>2014-08-24T15:58:42.000Z</time>
      </trkpt>
      <trkpt lat="46.04567" lon="6.66301">
        <ele>1671</ele>
        <time>2014-08-24T15:58:48.000Z</time>
      </trkpt>
      <trkpt lat="46.04582" lon="6.66306">
        <ele>1668</ele>
        <time>2014-08-24T15:58:54.000Z</time>
      </trkpt>
      <trkpt lat="46.04602" lon="6.66313">
        <ele>1664</ele>
        <time>2014-08-24T15:59:03.000Z</time>
      </trkpt>
      <trkpt lat="46.04617" lon="6.66318">
        <ele>1662</ele>
        <time>2014-08-24T15:59:09.000Z</time>
      </trkpt>
      <trkpt lat="46.04633" lon="6.66331">
        <ele>1659</ele>
        <time>2014-08-24T15:59:15.000Z</time>
      </trkpt>
      <trkpt lat="46.0465" lon="6.66329">
        <ele>1657</ele>
        <time>2014-08-24T15:59:21.000Z</time>
      </trkpt>
      <trkpt lat="46.04665" lon="6.66328">
        <ele>1656</ele>
        <time>2014-08-24T15:59:27.000Z</time>
      </trkpt>
      <trkpt lat="46.04674" lon="6.66331">
        <ele>1651</ele>
        <time>2014-08-24T15:59:39.000Z</time>
      </trkpt>
      <trkpt lat="46.04686" lon="6.66331">
        <ele>1646</ele>
        <time>2014-08-24T16:00:09.000Z</time>
      </trkpt>
      <trkpt lat="46.04694" lon="6.66331">
        <ele>1645</ele>
        <time>2014-08-24T16:00:12.000Z</time>
      </trkpt>
      <trkpt lat="46.04702" lon="6.66329">
        <ele>1644</ele>
        <time>2014-08-24T16:00:18.000Z</time>
      </trkpt>
      <trkpt lat="46.04711" lon="6.66324">
        <ele>1643</ele>
        <time>2014-08-24T16:00:24.000Z</time>
      </trkpt>
      <trkpt lat="46.04718" lon="6.66319">
        <ele>1642</ele>
        <time>2014-08-24T16:00:27.000Z</time>
      </trkpt>
      <trkpt lat="46.04725" lon="6.66312">
        <ele>1641</ele>
        <time>2014-08-24T16:00:30.000Z</time>
      </trkpt>
      <trkpt lat="46.04731" lon="6.66304">
        <ele>1641</ele>
        <time>2014-08-24T16:00:33.000Z</time>
      </trkpt>
      <trkpt lat="46.04737" lon="6.66297">
        <ele>1641</ele>
        <time>2014-08-24T16:00:36.000Z</time>
      </trkpt>
      <trkpt lat="46.04749" lon="6.66284">
        <ele>1640</ele>
        <time>2014-08-24T16:00:39.000Z</time>
      </trkpt>
      <trkpt lat="46.04757" lon="6.6627">
        <ele>1639</ele>
        <time>2014-08-24T16:00:45.000Z</time>
      </trkpt>
      <trkpt lat="46.04767" lon="6.66251">
        <ele>1637</ele>
        <time>2014-08-24T16:00:51.000Z</time>
      </trkpt>
      <trkpt lat="46.04778" lon="6.66233">
        <ele>1635</ele>
        <time>2014-08-24T16:00:57.000Z</time>
      </trkpt>
      <trkpt lat="46.04787" lon="6.66218">
        <ele>1633</ele>
        <time>2014-08-24T16:01:03.000Z</time>
      </trkpt>
      <trkpt lat="46.04799" lon="6.66202">
        <ele>1631</ele>
        <time>2014-08-24T16:01:09.000Z</time>
      </trkpt>
      <trkpt lat="46.0481" lon="6.66189">
        <ele>1630</ele>
        <time>2014-08-24T16:01:15.000Z</time>
      </trkpt>
      <trkpt lat="46.04822" lon="6.66173">
        <ele>1629</ele>
        <time>2014-08-24T16:01:21.000Z</time>
      </trkpt>
      <trkpt lat="46.04829" lon="6.66151">
        <ele>1627</ele>
        <time>2014-08-24T16:01:27.000Z</time>
      </trkpt>
      <trkpt lat="46.04836" lon="6.66132">
        <ele>1625</ele>
        <time>2014-08-24T16:01:33.000Z</time>
      </trkpt>
      <trkpt lat="46.04843" lon="6.6611">
        <ele>1623</ele>
        <time>2014-08-24T16:01:39.000Z</time>
      </trkpt>
      <trkpt lat="46.04857" lon="6.66093">
        <ele>1621</ele>
        <time>2014-08-24T16:01:45.000Z</time>
      </trkpt>
      <trkpt lat="46.04884" lon="6.66058">
        <ele>1617</ele>
        <time>2014-08-24T16:02:00.000Z</time>
      </trkpt>
      <trkpt lat="46.04897" lon="6.66038">
        <ele>1616</ele>
        <time>2014-08-24T16:02:06.000Z</time>
      </trkpt>
      <trkpt lat="46.04906" lon="6.6602">
        <ele>1615</ele>
        <time>2014-08-24T16:02:12.000Z</time>
      </trkpt>
      <trkpt lat="46.04914" lon="6.66005">
        <ele>1614</ele>
        <time>2014-08-24T16:02:18.000Z</time>
      </trkpt>
      <trkpt lat="46.04936" lon="6.66004">
        <ele>1612</ele>
        <time>2014-08-24T16:02:24.000Z</time>
      </trkpt>
      <trkpt lat="46.0495" lon="6.65995">
        <ele>1610</ele>
        <time>2014-08-24T16:02:30.000Z</time>
      </trkpt>
      <trkpt lat="46.04963" lon="6.65987">
        <ele>1608</ele>
        <time>2014-08-24T16:02:36.000Z</time>
      </trkpt>
      <trkpt lat="46.04982" lon="6.65995">
        <ele>1606</ele>
        <time>2014-08-24T16:02:42.000Z</time>
      </trkpt>
      <trkpt lat="46.05026" lon="6.66007">
        <ele>1598</ele>
        <time>2014-08-24T16:03:00.000Z</time>
      </trkpt>
      <trkpt lat="46.05039" lon="6.66014">
        <ele>1592</ele>
        <time>2014-08-24T16:03:12.000Z</time>
      </trkpt>
      <trkpt lat="46.0505" lon="6.66015">
        <ele>1590</ele>
        <time>2014-08-24T16:03:15.000Z</time>
      </trkpt>
      <trkpt lat="46.05057" lon="6.66013">
        <ele>1589</ele>
        <time>2014-08-24T16:03:18.000Z</time>
      </trkpt>
      <trkpt lat="46.05064" lon="6.6601">
        <ele>1588</ele>
        <time>2014-08-24T16:03:21.000Z</time>
      </trkpt>
      <trkpt lat="46.05072" lon="6.66008">
        <ele>1586</ele>
        <time>2014-08-24T16:03:24.000Z</time>
      </trkpt>
      <trkpt lat="46.05086" lon="6.66003">
        <ele>1585</ele>
        <time>2014-08-24T16:03:27.000Z</time>
      </trkpt>
      <trkpt lat="46.051" lon="6.65998">
        <ele>1582</ele>
        <time>2014-08-24T16:03:33.000Z</time>
      </trkpt>
      <trkpt lat="46.05112" lon="6.65994">
        <ele>1580</ele>
        <time>2014-08-24T16:03:39.000Z</time>
      </trkpt>
      <trkpt lat="46.05135" lon="6.66007">
        <ele>1571</ele>
        <time>2014-08-24T16:03:57.000Z</time>
      </trkpt>
      <trkpt lat="46.05148" lon="6.65999">
        <ele>1568</ele>
        <time>2014-08-24T16:04:03.000Z</time>
      </trkpt>
      <trkpt lat="46.05161" lon="6.65991">
        <ele>1565</ele>
        <time>2014-08-24T16:04:09.000Z</time>
      </trkpt>
      <trkpt lat="46.05173" lon="6.65983">
        <ele>1562</ele>
        <time>2014-08-24T16:04:15.000Z</time>
      </trkpt>
      <trkpt lat="46.05174" lon="6.65948">
        <ele>1559</ele>
        <time>2014-08-24T16:04:21.000Z</time>
      </trkpt>
      <trkpt lat="46.05174" lon="6.65926">
        <ele>1555</ele>
        <time>2014-08-24T16:04:27.000Z</time>
      </trkpt>
      <trkpt lat="46.05175" lon="6.65905">
        <ele>1552</ele>
        <time>2014-08-24T16:04:33.000Z</time>
      </trkpt>
      <trkpt lat="46.05182" lon="6.65886">
        <ele>1549</ele>
        <time>2014-08-24T16:04:39.000Z</time>
      </trkpt>
      <trkpt lat="46.05187" lon="6.65863">
        <ele>1546</ele>
        <time>2014-08-24T16:04:45.000Z</time>
      </trkpt>
      <trkpt lat="46.05193" lon="6.65841">
        <ele>1543</ele>
        <time>2014-08-24T16:04:51.000Z</time>
      </trkpt>
      <trkpt lat="46.05201" lon="6.65819">
        <ele>1541</ele>
        <time>2014-08-24T16:04:57.000Z</time>
      </trkpt>
      <trkpt lat="46.05208" lon="6.65799">
        <ele>1538</ele>
        <time>2014-08-24T16:05:03.000Z</time>
      </trkpt>
      <trkpt lat="46.05214" lon="6.65782">
        <ele>1536</ele>
        <time>2014-08-24T16:05:09.000Z</time>
      </trkpt>
      <trkpt lat="46.0522" lon="6.65763">
        <ele>1533</ele>
        <time>2014-08-24T16:05:15.000Z</time>
      </trkpt>
      <trkpt lat="46.05226" lon="6.65747">
        <ele>1531</ele>
        <time>2014-08-24T16:05:21.000Z</time>
      </trkpt>
      <trkpt lat="46.05225" lon="6.65721">
        <ele>1527</ele>
        <time>2014-08-24T16:05:27.000Z</time>
      </trkpt>
      <trkpt lat="46.05232" lon="6.65698">
        <ele>1524</ele>
        <time>2014-08-24T16:05:33.000Z</time>
      </trkpt>
      <trkpt lat="46.05238" lon="6.65678">
        <ele>1522</ele>
        <time>2014-08-24T16:05:39.000Z</time>
      </trkpt>
      <trkpt lat="46.05244" lon="6.65657">
        <ele>1519</ele>
        <time>2014-08-24T16:05:45.000Z</time>
      </trkpt>
      <trkpt lat="46.0525" lon="6.6564">
        <ele>1517</ele>
        <time>2014-08-24T16:05:51.000Z</time>
      </trkpt>
      <trkpt lat="46.05256" lon="6.65621">
        <ele>1515</ele>
        <time>2014-08-24T16:05:57.000Z</time>
      </trkpt>
      <trkpt lat="46.05266" lon="6.65603">
        <ele>1512</ele>
        <time>2014-08-24T16:06:03.000Z</time>
      </trkpt>
      <trkpt lat="46.05271" lon="6.65594">
        <ele>1508</ele>
        <time>2014-08-24T16:06:12.000Z</time>
      </trkpt>
      <trkpt lat="46.05276" lon="6.65586">
        <ele>1506</ele>
        <time>2014-08-24T16:06:15.000Z</time>
      </trkpt>
      <trkpt lat="46.0528" lon="6.65578">
        <ele>1505</ele>
        <time>2014-08-24T16:06:18.000Z</time>
      </trkpt>
      <trkpt lat="46.05285" lon="6.6557">
        <ele>1504</ele>
        <time>2014-08-24T16:06:21.000Z</time>
      </trkpt>
      <trkpt lat="46.05282" lon="6.65553">
        <ele>1503</ele>
        <time>2014-08-24T16:06:24.000Z</time>
      </trkpt>
      <trkpt lat="46.05284" lon="6.65528">
        <ele>1501</ele>
        <time>2014-08-24T16:06:27.000Z</time>
      </trkpt>
      <trkpt lat="46.05291" lon="6.65513">
        <ele>1499</ele>
        <time>2014-08-24T16:06:33.000Z</time>
      </trkpt>
      <trkpt lat="46.05298" lon="6.65497">
        <ele>1496</ele>
        <time>2014-08-24T16:06:39.000Z</time>
      </trkpt>
      <trkpt lat="46.05305" lon="6.65481">
        <ele>1493</ele>
        <time>2014-08-24T16:06:45.000Z</time>
      </trkpt>
      <trkpt lat="46.05316" lon="6.65468">
        <ele>1490</ele>
        <time>2014-08-24T16:06:51.000Z</time>
      </trkpt>
      <trkpt lat="46.05328" lon="6.65456">
        <ele>1488</ele>
        <time>2014-08-24T16:06:57.000Z</time>
      </trkpt>
      <trkpt lat="46.05341" lon="6.65443">
        <ele>1484</ele>
        <time>2014-08-24T16:07:06.000Z</time>
      </trkpt>
      <trkpt lat="46.05344" lon="6.65405">
        <ele>1479</ele>
        <time>2014-08-24T16:07:15.000Z</time>
      </trkpt>
      <trkpt lat="46.05349" lon="6.65386">
        <ele>1477</ele>
        <time>2014-08-24T16:07:21.000Z</time>
      </trkpt>
      <trkpt lat="46.05357" lon="6.65363">
        <ele>1474</ele>
        <time>2014-08-24T16:07:27.000Z</time>
      </trkpt>
      <trkpt lat="46.05368" lon="6.65343">
        <ele>1471</ele>
        <time>2014-08-24T16:07:33.000Z</time>
      </trkpt>
      <trkpt lat="46.0538" lon="6.65326">
        <ele>1469</ele>
        <time>2014-08-24T16:07:39.000Z</time>
      </trkpt>
      <trkpt lat="46.05391" lon="6.65314">
        <ele>1467</ele>
        <time>2014-08-24T16:07:44.000Z</time>
      </trkpt>
      <trkpt lat="46.05404" lon="6.653">
        <ele>1464</ele>
        <time>2014-08-24T16:07:50.000Z</time>
      </trkpt>
      <trkpt lat="46.05415" lon="6.65286">
        <ele>1462</ele>
        <time>2014-08-24T16:07:56.000Z</time>
      </trkpt>
      <trkpt lat="46.05426" lon="6.65274">
        <ele>1460</ele>
        <time>2014-08-24T16:08:02.000Z</time>
      </trkpt>
      <trkpt lat="46.05444" lon="6.6527">
        <ele>1458</ele>
        <time>2014-08-24T16:08:08.000Z</time>
      </trkpt>
      <trkpt lat="46.05455" lon="6.65253">
        <ele>1456</ele>
        <time>2014-08-24T16:08:14.000Z</time>
      </trkpt>
      <trkpt lat="46.05466" lon="6.65239">
        <ele>1455</ele>
        <time>2014-08-24T16:08:20.000Z</time>
      </trkpt>
      <trkpt lat="46.0548" lon="6.65226">
        <ele>1454</ele>
        <time>2014-08-24T16:08:26.000Z</time>
      </trkpt>
      <trkpt lat="46.05494" lon="6.65212">
        <ele>1452</ele>
        <time>2014-08-24T16:08:32.000Z</time>
      </trkpt>
      <trkpt lat="46.05507" lon="6.652">
        <ele>1451</ele>
        <time>2014-08-24T16:08:38.000Z</time>
      </trkpt>
      <trkpt lat="46.05519" lon="6.65188">
        <ele>1450</ele>
        <time>2014-08-24T16:08:44.000Z</time>
      </trkpt>
      <trkpt lat="46.05531" lon="6.65177">
        <ele>1449</ele>
        <time>2014-08-24T16:08:50.000Z</time>
      </trkpt>
      <trkpt lat="46.05542" lon="6.65166">
        <ele>1448</ele>
        <time>2014-08-24T16:08:56.000Z</time>
      </trkpt>
      <trkpt lat="46.0555" lon="6.65156">
        <ele>1446</ele>
        <time>2014-08-24T16:09:41.000Z</time>
      </trkpt>
      <trkpt lat="46.05556" lon="6.65148">
        <ele>1446</ele>
        <time>2014-08-24T16:09:44.000Z</time>
      </trkpt>
      <trkpt lat="46.05561" lon="6.65142">
        <ele>1446</ele>
        <time>2014-08-24T16:09:47.000Z</time>
      </trkpt>
      <trkpt lat="46.05566" lon="6.65135">
        <ele>1446</ele>
        <time>2014-08-24T16:09:53.000Z</time>
      </trkpt>
      <trkpt lat="46.05571" lon="6.65129">
        <ele>1446</ele>
        <time>2014-08-24T16:09:56.000Z</time>
      </trkpt>
      <trkpt lat="46.05576" lon="6.65123">
        <ele>1445</ele>
        <time>2014-08-24T16:09:59.000Z</time>
      </trkpt>
      <trkpt lat="46.0558" lon="6.65117">
        <ele>1446</ele>
        <time>2014-08-24T16:10:05.000Z</time>
      </trkpt>
      <trkpt lat="46.05589" lon="6.65115">
        <ele>1446</ele>
        <time>2014-08-24T16:10:11.000Z</time>
      </trkpt>
      <trkpt lat="46.05596" lon="6.65114">
        <ele>1446</ele>
        <time>2014-08-24T16:10:14.000Z</time>
      </trkpt>
      <trkpt lat="46.05605" lon="6.65109">
        <ele>1446</ele>
        <time>2014-08-24T16:10:23.000Z</time>
      </trkpt>
      <trkpt lat="46.05612" lon="6.65106">
        <ele>1446</ele>
        <time>2014-08-24T16:10:26.000Z</time>
      </trkpt>
      <trkpt lat="46.05619" lon="6.65104">
        <ele>1446</ele>
        <time>2014-08-24T16:10:32.000Z</time>
      </trkpt>
      <trkpt lat="46.05626" lon="6.651">
        <ele>1446</ele>
        <time>2014-08-24T16:10:38.000Z</time>
      </trkpt>
      <trkpt lat="46.05633" lon="6.65097">
        <ele>1445</ele>
        <time>2014-08-24T16:10:44.000Z</time>
      </trkpt>
      <trkpt lat="46.05643" lon="6.65094">
        <ele>1445</ele>
        <time>2014-08-24T16:10:53.000Z</time>
      </trkpt>
      <trkpt lat="46.05653" lon="6.65092">
        <ele>1445</ele>
        <time>2014-08-24T16:10:59.000Z</time>
      </trkpt>
      <trkpt lat="46.0566" lon="6.6509">
        <ele>1445</ele>
        <time>2014-08-24T16:11:02.000Z</time>
      </trkpt>
      <trkpt lat="46.05666" lon="6.65088">
        <ele>1445</ele>
        <time>2014-08-24T16:11:05.000Z</time>
      </trkpt>
      <trkpt lat="46.05674" lon="6.65086">
        <ele>1444</ele>
        <time>2014-08-24T16:11:11.000Z</time>
      </trkpt>
      <trkpt lat="46.0568" lon="6.65084">
        <ele>1445</ele>
        <time>2014-08-24T16:11:14.000Z</time>
      </trkpt>
      <trkpt lat="46.05688" lon="6.65076">
        <ele>1445</ele>
        <time>2014-08-24T16:11:20.000Z</time>
      </trkpt>
      <trkpt lat="46.05696" lon="6.65069">
        <ele>1445</ele>
        <time>2014-08-24T16:11:23.000Z</time>
      </trkpt>
      <trkpt lat="46.05704" lon="6.65062">
        <ele>1445</ele>
        <time>2014-08-24T16:11:26.000Z</time>
      </trkpt>
      <trkpt lat="46.05713" lon="6.65054">
        <ele>1445</ele>
        <time>2014-08-24T16:11:29.000Z</time>
      </trkpt>
      <trkpt lat="46.05721" lon="6.65047">
        <ele>1445</ele>
        <time>2014-08-24T16:11:32.000Z</time>
      </trkpt>
      <trkpt lat="46.05736" lon="6.65034">
        <ele>1445</ele>
        <time>2014-08-24T16:11:35.000Z</time>
      </trkpt>
      <trkpt lat="46.0575" lon="6.65021">
        <ele>1445</ele>
        <time>2014-08-24T16:11:41.000Z</time>
      </trkpt>
      <trkpt lat="46.05762" lon="6.65001">
        <ele>1446</ele>
        <time>2014-08-24T16:11:47.000Z</time>
      </trkpt>
      <trkpt lat="46.05796" lon="6.64968">
        <ele>1448</ele>
        <time>2014-08-24T16:12:02.000Z</time>
      </trkpt>
      <trkpt lat="46.05809" lon="6.64959">
        <ele>1449</ele>
        <time>2014-08-24T16:12:08.000Z</time>
      </trkpt>
      <trkpt lat="46.05822" lon="6.64951">
        <ele>1449</ele>
        <time>2014-08-24T16:12:14.000Z</time>
      </trkpt>
      <trkpt lat="46.05835" lon="6.64944">
        <ele>1450</ele>
        <time>2014-08-24T16:12:20.000Z</time>
      </trkpt>
      <trkpt lat="46.05851" lon="6.64942">
        <ele>1451</ele>
        <time>2014-08-24T16:12:26.000Z</time>
      </trkpt>
      <trkpt lat="46.0587" lon="6.64935">
        <ele>1451</ele>
        <time>2014-08-24T16:12:32.000Z</time>
      </trkpt>
      <trkpt lat="46.05888" lon="6.64929">
        <ele>1451</ele>
        <time>2014-08-24T16:12:38.000Z</time>
      </trkpt>
      <trkpt lat="46.05904" lon="6.64924">
        <ele>1450</ele>
        <time>2014-08-24T16:12:50.000Z</time>
      </trkpt>
      <trkpt lat="46.0592" lon="6.6492">
        <ele>1451</ele>
        <time>2014-08-24T16:12:59.000Z</time>
      </trkpt>
      <trkpt lat="46.05936" lon="6.64919">
        <ele>1450</ele>
        <time>2014-08-24T16:13:05.000Z</time>
      </trkpt>
      <trkpt lat="46.05954" lon="6.64917">
        <ele>1450</ele>
        <time>2014-08-24T16:13:11.000Z</time>
      </trkpt>
      <trkpt lat="46.0597" lon="6.64915">
        <ele>1450</ele>
        <time>2014-08-24T16:13:17.000Z</time>
      </trkpt>
      <trkpt lat="46.05986" lon="6.64908">
        <ele>1449</ele>
        <time>2014-08-24T16:13:23.000Z</time>
      </trkpt>
      <trkpt lat="46.06001" lon="6.64902">
        <ele>1449</ele>
        <time>2014-08-24T16:13:29.000Z</time>
      </trkpt>
      <trkpt lat="46.06019" lon="6.64899">
        <ele>1448</ele>
        <time>2014-08-24T16:13:35.000Z</time>
      </trkpt>
      <trkpt lat="46.06031" lon="6.64887">
        <ele>1447</ele>
        <time>2014-08-24T16:13:47.000Z</time>
      </trkpt>
      <trkpt lat="46.06041" lon="6.64878">
        <ele>1447</ele>
        <time>2014-08-24T16:13:56.000Z</time>
      </trkpt>
      <trkpt lat="46.0605" lon="6.64869">
        <ele>1448</ele>
        <time>2014-08-24T16:14:11.000Z</time>
      </trkpt>
      <trkpt lat="46.06058" lon="6.64865">
        <ele>1448</ele>
        <time>2014-08-24T16:14:14.000Z</time>
      </trkpt>
      <trkpt lat="46.06064" lon="6.64861">
        <ele>1449</ele>
        <time>2014-08-24T16:14:17.000Z</time>
      </trkpt>
      <trkpt lat="46.06072" lon="6.64859">
        <ele>1450</ele>
        <time>2014-08-24T16:14:23.000Z</time>
      </trkpt>
      <trkpt lat="46.06081" lon="6.64859">
        <ele>1450</ele>
        <time>2014-08-24T16:14:29.000Z</time>
      </trkpt>
      <trkpt lat="46.06089" lon="6.6486">
        <ele>1451</ele>
        <time>2014-08-24T16:14:35.000Z</time>
      </trkpt>
      <trkpt lat="46.06096" lon="6.6486">
        <ele>1453</ele>
        <time>2014-08-24T16:14:41.000Z</time>
      </trkpt>
      <trkpt lat="46.06102" lon="6.6486">
        <ele>1455</ele>
        <time>2014-08-24T16:14:47.000Z</time>
      </trkpt>
      <trkpt lat="46.0611" lon="6.64862">
        <ele>1457</ele>
        <time>2014-08-24T16:14:56.000Z</time>
      </trkpt>
      <trkpt lat="46.06118" lon="6.64864">
        <ele>1458</ele>
        <time>2014-08-24T16:14:59.000Z</time>
      </trkpt>
      <trkpt lat="46.06124" lon="6.64865">
        <ele>1458</ele>
        <time>2014-08-24T16:15:02.000Z</time>
      </trkpt>
      <trkpt lat="46.06133" lon="6.64866">
        <ele>1457</ele>
        <time>2014-08-24T16:15:08.000Z</time>
      </trkpt>
      <trkpt lat="46.06141" lon="6.64865">
        <ele>1457</ele>
        <time>2014-08-24T16:15:11.000Z</time>
      </trkpt>
      <trkpt lat="46.06147" lon="6.64866">
        <ele>1456</ele>
        <time>2014-08-24T16:15:14.000Z</time>
      </trkpt>
      <trkpt lat="46.06155" lon="6.64864">
        <ele>1455</ele>
        <time>2014-08-24T16:15:20.000Z</time>
      </trkpt>
      <trkpt lat="46.06163" lon="6.64862">
        <ele>1454</ele>
        <time>2014-08-24T16:15:23.000Z</time>
      </trkpt>
      <trkpt lat="46.06171" lon="6.64859">
        <ele>1454</ele>
        <time>2014-08-24T16:15:26.000Z</time>
      </trkpt>
      <trkpt lat="46.06178" lon="6.64856">
        <ele>1454</ele>
        <time>2014-08-24T16:15:29.000Z</time>
      </trkpt>
      <trkpt lat="46.06185" lon="6.64852">
        <ele>1454</ele>
        <time>2014-08-24T16:15:32.000Z</time>
      </trkpt>
      <trkpt lat="46.06199" lon="6.64843">
        <ele>1454</ele>
        <time>2014-08-24T16:15:35.000Z</time>
      </trkpt>
      <trkpt lat="46.0621" lon="6.64828">
        <ele>1455</ele>
        <time>2014-08-24T16:15:41.000Z</time>
      </trkpt>
      <trkpt lat="46.06222" lon="6.64817">
        <ele>1456</ele>
        <time>2014-08-24T16:15:47.000Z</time>
      </trkpt>
      <trkpt lat="46.06238" lon="6.64812">
        <ele>1457</ele>
        <time>2014-08-24T16:15:53.000Z</time>
      </trkpt>
      <trkpt lat="46.06255" lon="6.64806">
        <ele>1458</ele>
        <time>2014-08-24T16:15:59.000Z</time>
      </trkpt>
      <trkpt lat="46.06269" lon="6.64801">
        <ele>1458</ele>
        <time>2014-08-24T16:16:05.000Z</time>
      </trkpt>
      <trkpt lat="46.06272" lon="6.64768">
        <ele>1458</ele>
        <time>2014-08-24T16:16:08.000Z</time>
      </trkpt>
      <trkpt lat="46.06285" lon="6.64753">
        <ele>1458</ele>
        <time>2014-08-24T16:16:14.000Z</time>
      </trkpt>
      <trkpt lat="46.06299" lon="6.64741">
        <ele>1457</ele>
        <time>2014-08-24T16:16:20.000Z</time>
      </trkpt>
      <trkpt lat="46.06316" lon="6.6473">
        <ele>1456</ele>
        <time>2014-08-24T16:16:26.000Z</time>
      </trkpt>
      <trkpt lat="46.06336" lon="6.64721">
        <ele>1456</ele>
        <time>2014-08-24T16:16:32.000Z</time>
      </trkpt>
      <trkpt lat="46.06353" lon="6.6471">
        <ele>1455</ele>
        <time>2014-08-24T16:16:38.000Z</time>
      </trkpt>
      <trkpt lat="46.06367" lon="6.64701">
        <ele>1454</ele>
        <time>2014-08-24T16:16:44.000Z</time>
      </trkpt>
      <trkpt lat="46.06382" lon="6.64692">
        <ele>1453</ele>
        <time>2014-08-24T16:16:50.000Z</time>
      </trkpt>
      <trkpt lat="46.06393" lon="6.64685">
        <ele>1451</ele>
        <time>2014-08-24T16:16:59.000Z</time>
      </trkpt>
      <trkpt lat="46.06406" lon="6.64677">
        <ele>1450</ele>
        <time>2014-08-24T16:17:08.000Z</time>
      </trkpt>
      <trkpt lat="46.06419" lon="6.64669">
        <ele>1450</ele>
        <time>2014-08-24T16:17:17.000Z</time>
      </trkpt>
      <trkpt lat="46.06429" lon="6.64655">
        <ele>1449</ele>
        <time>2014-08-24T16:17:23.000Z</time>
      </trkpt>
      <trkpt lat="46.06444" lon="6.64644">
        <ele>1450</ele>
        <time>2014-08-24T16:17:29.000Z</time>
      </trkpt>
      <trkpt lat="46.06461" lon="6.64633">
        <ele>1450</ele>
        <time>2014-08-24T16:17:35.000Z</time>
      </trkpt>
      <trkpt lat="46.06477" lon="6.64626">
        <ele>1450</ele>
        <time>2014-08-24T16:17:41.000Z</time>
      </trkpt>
      <trkpt lat="46.06496" lon="6.64624">
        <ele>1451</ele>
        <time>2014-08-24T16:17:47.000Z</time>
      </trkpt>
      <trkpt lat="46.06513" lon="6.64622">
        <ele>1452</ele>
        <time>2014-08-24T16:17:53.000Z</time>
      </trkpt>
      <trkpt lat="46.06528" lon="6.64621">
        <ele>1452</ele>
        <time>2014-08-24T16:17:59.000Z</time>
      </trkpt>
      <trkpt lat="46.06546" lon="6.64619">
        <ele>1453</ele>
        <time>2014-08-24T16:18:08.000Z</time>
      </trkpt>
      <trkpt lat="46.06563" lon="6.64631">
        <ele>1453</ele>
        <time>2014-08-24T16:18:14.000Z</time>
      </trkpt>
      <trkpt lat="46.06584" lon="6.64632">
        <ele>1453</ele>
        <time>2014-08-24T16:18:20.000Z</time>
      </trkpt>
      <trkpt lat="46.06593" lon="6.64633">
        <ele>1452</ele>
        <time>2014-08-24T16:18:26.000Z</time>
      </trkpt>
      <trkpt lat="46.06603" lon="6.64634">
        <ele>1452</ele>
        <time>2014-08-24T16:18:29.000Z</time>
      </trkpt>
      <trkpt lat="46.06612" lon="6.64634">
        <ele>1451</ele>
        <time>2014-08-24T16:18:32.000Z</time>
      </trkpt>
      <trkpt lat="46.06619" lon="6.64635">
        <ele>1451</ele>
        <time>2014-08-24T16:18:35.000Z</time>
      </trkpt>
      <trkpt lat="46.0663" lon="6.64636">
        <ele>1449</ele>
        <time>2014-08-24T16:18:41.000Z</time>
      </trkpt>
      <trkpt lat="46.0664" lon="6.64622">
        <ele>1448</ele>
        <time>2014-08-24T16:18:44.000Z</time>
      </trkpt>
      <trkpt lat="46.0665" lon="6.64613">
        <ele>1447</ele>
        <time>2014-08-24T16:18:47.000Z</time>
      </trkpt>
      <trkpt lat="46.0666" lon="6.64606">
        <ele>1446</ele>
        <time>2014-08-24T16:18:50.000Z</time>
      </trkpt>
      <trkpt lat="46.06668" lon="6.64599">
        <ele>1445</ele>
        <time>2014-08-24T16:18:53.000Z</time>
      </trkpt>
      <trkpt lat="46.06685" lon="6.64588">
        <ele>1444</ele>
        <time>2014-08-24T16:18:56.000Z</time>
      </trkpt>
      <trkpt lat="46.06703" lon="6.64576">
        <ele>1441</ele>
        <time>2014-08-24T16:19:02.000Z</time>
      </trkpt>
      <trkpt lat="46.06718" lon="6.64566">
        <ele>1439</ele>
        <time>2014-08-24T16:19:08.000Z</time>
      </trkpt>
      <trkpt lat="46.06734" lon="6.64561">
        <ele>1437</ele>
        <time>2014-08-24T16:19:14.000Z</time>
      </trkpt>
      <trkpt lat="46.0675" lon="6.64552">
        <ele>1436</ele>
        <time>2014-08-24T16:19:20.000Z</time>
      </trkpt>
      <trkpt lat="46.06764" lon="6.64546">
        <ele>1434</ele>
        <time>2014-08-24T16:19:26.000Z</time>
      </trkpt>
      <trkpt lat="46.06777" lon="6.6454">
        <ele>1433</ele>
        <time>2014-08-24T16:19:32.000Z</time>
      </trkpt>
      <trkpt lat="46.06789" lon="6.64531">
        <ele>1432</ele>
        <time>2014-08-24T16:19:38.000Z</time>
      </trkpt>
      <trkpt lat="46.06802" lon="6.64528">
        <ele>1431</ele>
        <time>2014-08-24T16:19:44.000Z</time>
      </trkpt>
      <trkpt lat="46.06815" lon="6.64522">
        <ele>1430</ele>
        <time>2014-08-24T16:19:50.000Z</time>
      </trkpt>
      <trkpt lat="46.06828" lon="6.64507">
        <ele>1429</ele>
        <time>2014-08-24T16:19:56.000Z</time>
      </trkpt>
      <trkpt lat="46.06839" lon="6.64495">
        <ele>1428</ele>
        <time>2014-08-24T16:20:02.000Z</time>
      </trkpt>
      <trkpt lat="46.06853" lon="6.64481">
        <ele>1427</ele>
        <time>2014-08-24T16:20:08.000Z</time>
      </trkpt>
      <trkpt lat="46.06866" lon="6.64467">
        <ele>1426</ele>
        <time>2014-08-24T16:20:14.000Z</time>
      </trkpt>
      <trkpt lat="46.06876" lon="6.64453">
        <ele>1426</ele>
        <time>2014-08-24T16:20:20.000Z</time>
      </trkpt>
      <trkpt lat="46.06886" lon="6.64436">
        <ele>1425</ele>
        <time>2014-08-24T16:20:26.000Z</time>
      </trkpt>
      <trkpt lat="46.06896" lon="6.64418">
        <ele>1425</ele>
        <time>2014-08-24T16:20:38.000Z</time>
      </trkpt>
      <trkpt lat="46.06906" lon="6.644">
        <ele>1425</ele>
        <time>2014-08-24T16:20:50.000Z</time>
      </trkpt>
      <trkpt lat="46.06916" lon="6.64384">
        <ele>1425</ele>
        <time>2014-08-24T16:21:02.000Z</time>
      </trkpt>
      <trkpt lat="46.06923" lon="6.6436">
        <ele>1426</ele>
        <time>2014-08-24T16:21:14.000Z</time>
      </trkpt>
      <trkpt lat="46.06929" lon="6.64344">
        <ele>1427</ele>
        <time>2014-08-24T16:21:20.000Z</time>
      </trkpt>
      <trkpt lat="46.06935" lon="6.64323">
        <ele>1428</ele>
        <time>2014-08-24T16:21:26.000Z</time>
      </trkpt>
      <trkpt lat="46.06938" lon="6.64314">
        <ele>1429</ele>
        <time>2014-08-24T16:21:32.000Z</time>
      </trkpt>
      <trkpt lat="46.06942" lon="6.64303">
        <ele>1429</ele>
        <time>2014-08-24T16:21:35.000Z</time>
      </trkpt>
      <trkpt lat="46.06946" lon="6.64292">
        <ele>1429</ele>
        <time>2014-08-24T16:21:38.000Z</time>
      </trkpt>
      <trkpt lat="46.0695" lon="6.64281">
        <ele>1429</ele>
        <time>2014-08-24T16:21:41.000Z</time>
      </trkpt>
      <trkpt lat="46.06955" lon="6.6427">
        <ele>1429</ele>
        <time>2014-08-24T16:21:44.000Z</time>
      </trkpt>
      <trkpt lat="46.06964" lon="6.64249">
        <ele>1429</ele>
        <time>2014-08-24T16:21:47.000Z</time>
      </trkpt>
      <trkpt lat="46.06971" lon="6.64234">
        <ele>1429</ele>
        <time>2014-08-24T16:21:53.000Z</time>
      </trkpt>
      <trkpt lat="46.06984" lon="6.64215">
        <ele>1429</ele>
        <time>2014-08-24T16:21:59.000Z</time>
      </trkpt>
      <trkpt lat="46.06998" lon="6.64195">
        <ele>1428</ele>
        <time>2014-08-24T16:22:05.000Z</time>
      </trkpt>
      <trkpt lat="46.07009" lon="6.64179">
        <ele>1428</ele>
        <time>2014-08-24T16:22:11.000Z</time>
      </trkpt>
      <trkpt lat="46.07017" lon="6.64158">
        <ele>1427</ele>
        <time>2014-08-24T16:22:17.000Z</time>
      </trkpt>
      <trkpt lat="46.07029" lon="6.64134">
        <ele>1426</ele>
        <time>2014-08-24T16:22:23.000Z</time>
      </trkpt>
      <trkpt lat="46.07039" lon="6.64115">
        <ele>1425</ele>
        <time>2014-08-24T16:22:29.000Z</time>
      </trkpt>
      <trkpt lat="46.07052" lon="6.64098">
        <ele>1423</ele>
        <time>2014-08-24T16:22:35.000Z</time>
      </trkpt>
      <trkpt lat="46.07064" lon="6.64078">
        <ele>1421</ele>
        <time>2014-08-24T16:22:41.000Z</time>
      </trkpt>
      <trkpt lat="46.07076" lon="6.64066">
        <ele>1420</ele>
        <time>2014-08-24T16:22:47.000Z</time>
      </trkpt>
      <trkpt lat="46.07089" lon="6.64053">
        <ele>1419</ele>
        <time>2014-08-24T16:22:53.000Z</time>
      </trkpt>
      <trkpt lat="46.071" lon="6.64042">
        <ele>1418</ele>
        <time>2014-08-24T16:22:59.000Z</time>
      </trkpt>
      <trkpt lat="46.07113" lon="6.64031">
        <ele>1417</ele>
        <time>2014-08-24T16:23:05.000Z</time>
      </trkpt>
      <trkpt lat="46.07125" lon="6.64019">
        <ele>1417</ele>
        <time>2014-08-24T16:23:11.000Z</time>
      </trkpt>
      <trkpt lat="46.07138" lon="6.64006">
        <ele>1417</ele>
        <time>2014-08-24T16:23:17.000Z</time>
      </trkpt>
      <trkpt lat="46.0715" lon="6.63994">
        <ele>1416</ele>
        <time>2014-08-24T16:23:23.000Z</time>
      </trkpt>
      <trkpt lat="46.07164" lon="6.63981">
        <ele>1416</ele>
        <time>2014-08-24T16:23:29.000Z</time>
      </trkpt>
      <trkpt lat="46.07161" lon="6.63958">
        <ele>1416</ele>
        <time>2014-08-24T16:23:32.000Z</time>
      </trkpt>
      <trkpt lat="46.07174" lon="6.6394">
        <ele>1415</ele>
        <time>2014-08-24T16:23:47.000Z</time>
      </trkpt>
      <trkpt lat="46.07186" lon="6.63923">
        <ele>1413</ele>
        <time>2014-08-24T16:23:59.000Z</time>
      </trkpt>
      <trkpt lat="46.07196" lon="6.63906">
        <ele>1411</ele>
        <time>2014-08-24T16:24:08.000Z</time>
      </trkpt>
      <trkpt lat="46.07205" lon="6.63893">
        <ele>1410</ele>
        <time>2014-08-24T16:24:17.000Z</time>
      </trkpt>
      <trkpt lat="46.07209" lon="6.63887">
        <ele>1409</ele>
        <time>2014-08-24T16:24:26.000Z</time>
      </trkpt>
      <trkpt lat="46.07214" lon="6.63879">
        <ele>1408</ele>
        <time>2014-08-24T16:24:32.000Z</time>
      </trkpt>
      <trkpt lat="46.0722" lon="6.63871">
        <ele>1408</ele>
        <time>2014-08-24T16:24:38.000Z</time>
      </trkpt>
      <trkpt lat="46.07225" lon="6.63863">
        <ele>1407</ele>
        <time>2014-08-24T16:24:44.000Z</time>
      </trkpt>
      <trkpt lat="46.07227" lon="6.63854">
        <ele>1406</ele>
        <time>2014-08-24T16:24:47.000Z</time>
      </trkpt>
      <trkpt lat="46.07229" lon="6.63844">
        <ele>1406</ele>
        <time>2014-08-24T16:24:53.000Z</time>
      </trkpt>
      <trkpt lat="46.07237" lon="6.63826">
        <ele>1403</ele>
        <time>2014-08-24T16:25:11.000Z</time>
      </trkpt>
      <trkpt lat="46.07243" lon="6.63812">
        <ele>1402</ele>
        <time>2014-08-24T16:25:14.000Z</time>
      </trkpt>
      <trkpt lat="46.07249" lon="6.63802">
        <ele>1402</ele>
        <time>2014-08-24T16:25:17.000Z</time>
      </trkpt>
      <trkpt lat="46.07255" lon="6.63794">
        <ele>1401</ele>
        <time>2014-08-24T16:25:20.000Z</time>
      </trkpt>
      <trkpt lat="46.07261" lon="6.63786">
        <ele>1400</ele>
        <time>2014-08-24T16:25:23.000Z</time>
      </trkpt>
      <trkpt lat="46.07272" lon="6.63772">
        <ele>1400</ele>
        <time>2014-08-24T16:25:26.000Z</time>
      </trkpt>
      <trkpt lat="46.07282" lon="6.63755">
        <ele>1399</ele>
        <time>2014-08-24T16:25:32.000Z</time>
      </trkpt>
      <trkpt lat="46.0729" lon="6.63737">
        <ele>1398</ele>
        <time>2014-08-24T16:25:38.000Z</time>
      </trkpt>
      <trkpt lat="46.07298" lon="6.63719">
        <ele>1397</ele>
        <time>2014-08-24T16:25:44.000Z</time>
      </trkpt>
      <trkpt lat="46.07309" lon="6.63701">
        <ele>1397</ele>
        <time>2014-08-24T16:25:50.000Z</time>
      </trkpt>
      <trkpt lat="46.07318" lon="6.63684">
        <ele>1396</ele>
        <time>2014-08-24T16:25:56.000Z</time>
      </trkpt>
      <trkpt lat="46.0733" lon="6.63664">
        <ele>1395</ele>
        <time>2014-08-24T16:26:02.000Z</time>
      </trkpt>
      <trkpt lat="46.07341" lon="6.63649">
        <ele>1395</ele>
        <time>2014-08-24T16:26:08.000Z</time>
      </trkpt>
      <trkpt lat="46.07353" lon="6.6363">
        <ele>1394</ele>
        <time>2014-08-24T16:26:14.000Z</time>
      </trkpt>
      <trkpt lat="46.07364" lon="6.63614">
        <ele>1393</ele>
        <time>2014-08-24T16:26:20.000Z</time>
      </trkpt>
      <trkpt lat="46.07375" lon="6.63597">
        <ele>1391</ele>
        <time>2014-08-24T16:26:26.000Z</time>
      </trkpt>
      <trkpt lat="46.07384" lon="6.63579">
        <ele>1390</ele>
        <time>2014-08-24T16:26:32.000Z</time>
      </trkpt>
      <trkpt lat="46.07394" lon="6.63561">
        <ele>1389</ele>
        <time>2014-08-24T16:26:38.000Z</time>
      </trkpt>
      <trkpt lat="46.07403" lon="6.63543">
        <ele>1388</ele>
        <time>2014-08-24T16:26:44.000Z</time>
      </trkpt>
      <trkpt lat="46.07415" lon="6.63529">
        <ele>1388</ele>
        <time>2014-08-24T16:26:50.000Z</time>
      </trkpt>
      <trkpt lat="46.07439" lon="6.63505">
        <ele>1388</ele>
        <time>2014-08-24T16:27:02.000Z</time>
      </trkpt>
      <trkpt lat="46.07454" lon="6.63488">
        <ele>1387</ele>
        <time>2014-08-24T16:27:08.000Z</time>
      </trkpt>
      <trkpt lat="46.07463" lon="6.63472">
        <ele>1387</ele>
        <time>2014-08-24T16:27:14.000Z</time>
      </trkpt>
      <trkpt lat="46.07471" lon="6.63453">
        <ele>1386</ele>
        <time>2014-08-24T16:27:20.000Z</time>
      </trkpt>
      <trkpt lat="46.07478" lon="6.63435">
        <ele>1386</ele>
        <time>2014-08-24T16:27:26.000Z</time>
      </trkpt>
      <trkpt lat="46.07485" lon="6.63419">
        <ele>1385</ele>
        <time>2014-08-24T16:27:32.000Z</time>
      </trkpt>
      <trkpt lat="46.07492" lon="6.63401">
        <ele>1385</ele>
        <time>2014-08-24T16:27:44.000Z</time>
      </trkpt>
      <trkpt lat="46.075" lon="6.63382">
        <ele>1384</ele>
        <time>2014-08-24T16:27:56.000Z</time>
      </trkpt>
      <trkpt lat="46.07495" lon="6.63366">
        <ele>1385</ele>
        <time>2014-08-24T16:28:08.000Z</time>
      </trkpt>
      <trkpt lat="46.07494" lon="6.63356">
        <ele>1385</ele>
        <time>2014-08-24T16:28:11.000Z</time>
      </trkpt>
      <trkpt lat="46.07495" lon="6.63345">
        <ele>1385</ele>
        <time>2014-08-24T16:28:17.000Z</time>
      </trkpt>
      <trkpt lat="46.07497" lon="6.63336">
        <ele>1385</ele>
        <time>2014-08-24T16:28:20.000Z</time>
      </trkpt>
      <trkpt lat="46.07498" lon="6.63326">
        <ele>1385</ele>
        <time>2014-08-24T16:28:26.000Z</time>
      </trkpt>
      <trkpt lat="46.07502" lon="6.63315">
        <ele>1385</ele>
        <time>2014-08-24T16:28:32.000Z</time>
      </trkpt>
      <trkpt lat="46.07505" lon="6.63305">
        <ele>1385</ele>
        <time>2014-08-24T16:28:38.000Z</time>
      </trkpt>
      <trkpt lat="46.07512" lon="6.63276">
        <ele>1385</ele>
        <time>2014-08-24T16:29:17.000Z</time>
      </trkpt>
      <trkpt lat="46.07516" lon="6.63256">
        <ele>1385</ele>
        <time>2014-08-24T16:29:20.000Z</time>
      </trkpt>
      <trkpt lat="46.07521" lon="6.63241">
        <ele>1385</ele>
        <time>2014-08-24T16:29:23.000Z</time>
      </trkpt>
      <trkpt lat="46.07525" lon="6.63229">
        <ele>1385</ele>
        <time>2014-08-24T16:29:26.000Z</time>
      </trkpt>
      <trkpt lat="46.07529" lon="6.63218">
        <ele>1385</ele>
        <time>2014-08-24T16:29:29.000Z</time>
      </trkpt>
      <trkpt lat="46.07534" lon="6.63195">
        <ele>1385</ele>
        <time>2014-08-24T16:29:32.000Z</time>
      </trkpt>
      <trkpt lat="46.07541" lon="6.63175">
        <ele>1385</ele>
        <time>2014-08-24T16:29:38.000Z</time>
      </trkpt>
      <trkpt lat="46.07547" lon="6.63154">
        <ele>1385</ele>
        <time>2014-08-24T16:29:44.000Z</time>
      </trkpt>
      <trkpt lat="46.07553" lon="6.63134">
        <ele>1384</ele>
        <time>2014-08-24T16:29:50.000Z</time>
      </trkpt>
      <trkpt lat="46.07557" lon="6.63117">
        <ele>1384</ele>
        <time>2014-08-24T16:29:56.000Z</time>
      </trkpt>
      <trkpt lat="46.07562" lon="6.63095">
        <ele>1384</ele>
        <time>2014-08-24T16:30:02.000Z</time>
      </trkpt>
      <trkpt lat="46.0757" lon="6.63075">
        <ele>1384</ele>
        <time>2014-08-24T16:30:08.000Z</time>
      </trkpt>
      <trkpt lat="46.07577" lon="6.63055">
        <ele>1384</ele>
        <time>2014-08-24T16:30:14.000Z</time>
      </trkpt>
      <trkpt lat="46.07581" lon="6.63033">
        <ele>1384</ele>
        <time>2014-08-24T16:30:20.000Z</time>
      </trkpt>
      <trkpt lat="46.07586" lon="6.63011">
        <ele>1383</ele>
        <time>2014-08-24T16:30:26.000Z</time>
      </trkpt>
      <trkpt lat="46.07594" lon="6.62992">
        <ele>1383</ele>
        <time>2014-08-24T16:30:32.000Z</time>
      </trkpt>
      <trkpt lat="46.07602" lon="6.62975">
        <ele>1383</ele>
        <time>2014-08-24T16:30:38.000Z</time>
      </trkpt>
      <trkpt lat="46.07611" lon="6.62957">
        <ele>1382</ele>
        <time>2014-08-24T16:30:44.000Z</time>
      </trkpt>
      <trkpt lat="46.0762" lon="6.62936">
        <ele>1381</ele>
        <time>2014-08-24T16:30:50.000Z</time>
      </trkpt>
      <trkpt lat="46.07634" lon="6.6292">
        <ele>1381</ele>
        <time>2014-08-24T16:30:56.000Z</time>
      </trkpt>
      <trkpt lat="46.07643" lon="6.62905">
        <ele>1380</ele>
        <time>2014-08-24T16:31:02.000Z</time>
      </trkpt>
      <trkpt lat="46.07653" lon="6.62888">
        <ele>1379</ele>
        <time>2014-08-24T16:31:08.000Z</time>
      </trkpt>
      <trkpt lat="46.07668" lon="6.6289">
        <ele>1379</ele>
        <time>2014-08-24T16:31:11.000Z</time>
      </trkpt>
      <trkpt lat="46.07681" lon="6.62883">
        <ele>1378</ele>
        <time>2014-08-24T16:31:17.000Z</time>
      </trkpt>
      <trkpt lat="46.07695" lon="6.62876">
        <ele>1376</ele>
        <time>2014-08-24T16:31:23.000Z</time>
      </trkpt>
      <trkpt lat="46.07708" lon="6.62869">
        <ele>1375</ele>
        <time>2014-08-24T16:31:29.000Z</time>
      </trkpt>
      <trkpt lat="46.07721" lon="6.62862">
        <ele>1373</ele>
        <time>2014-08-24T16:31:35.000Z</time>
      </trkpt>
      <trkpt lat="46.07726" lon="6.62845">
        <ele>1372</ele>
        <time>2014-08-24T16:31:38.000Z</time>
      </trkpt>
      <trkpt lat="46.07738" lon="6.62831">
        <ele>1370</ele>
        <time>2014-08-24T16:31:44.000Z</time>
      </trkpt>
      <trkpt lat="46.07751" lon="6.62816">
        <ele>1369</ele>
        <time>2014-08-24T16:31:50.000Z</time>
      </trkpt>
      <trkpt lat="46.07761" lon="6.62805">
        <ele>1368</ele>
        <time>2014-08-24T16:31:56.000Z</time>
      </trkpt>
      <trkpt lat="46.07756" lon="6.62781">
        <ele>1367</ele>
        <time>2014-08-24T16:31:59.000Z</time>
      </trkpt>
      <trkpt lat="46.07765" lon="6.62752">
        <ele>1365</ele>
        <time>2014-08-24T16:32:08.000Z</time>
      </trkpt>
      <trkpt lat="46.07775" lon="6.62736">
        <ele>1364</ele>
        <time>2014-08-24T16:32:14.000Z</time>
      </trkpt>
      <trkpt lat="46.07785" lon="6.6272">
        <ele>1362</ele>
        <time>2014-08-24T16:32:20.000Z</time>
      </trkpt>
      <trkpt lat="46.07793" lon="6.62705">
        <ele>1361</ele>
        <time>2014-08-24T16:32:26.000Z</time>
      </trkpt>
      <trkpt lat="46.0779" lon="6.62674">
        <ele>1360</ele>
        <time>2014-08-24T16:32:32.000Z</time>
      </trkpt>
      <trkpt lat="46.07792" lon="6.62663">
        <ele>1358</ele>
        <time>2014-08-24T16:32:38.000Z</time>
      </trkpt>
      <trkpt lat="46.07793" lon="6.62652">
        <ele>1358</ele>
        <time>2014-08-24T16:32:41.000Z</time>
      </trkpt>
      <trkpt lat="46.07794" lon="6.62642">
        <ele>1357</ele>
        <time>2014-08-24T16:32:44.000Z</time>
      </trkpt>
      <trkpt lat="46.07796" lon="6.62631">
        <ele>1357</ele>
        <time>2014-08-24T16:32:47.000Z</time>
      </trkpt>
      <trkpt lat="46.07797" lon="6.6262">
        <ele>1356</ele>
        <time>2014-08-24T16:32:50.000Z</time>
      </trkpt>
      <trkpt lat="46.078" lon="6.62599">
        <ele>1355</ele>
        <time>2014-08-24T16:32:53.000Z</time>
      </trkpt>
      <trkpt lat="46.07804" lon="6.62577">
        <ele>1354</ele>
        <time>2014-08-24T16:32:59.000Z</time>
      </trkpt>
      <trkpt lat="46.07809" lon="6.62555">
        <ele>1353</ele>
        <time>2014-08-24T16:33:05.000Z</time>
      </trkpt>
      <trkpt lat="46.07818" lon="6.62537">
        <ele>1352</ele>
        <time>2014-08-24T16:33:11.000Z</time>
      </trkpt>
      <trkpt lat="46.07826" lon="6.62515">
        <ele>1351</ele>
        <time>2014-08-24T16:33:17.000Z</time>
      </trkpt>
      <trkpt lat="46.07831" lon="6.62493">
        <ele>1350</ele>
        <time>2014-08-24T16:33:23.000Z</time>
      </trkpt>
      <trkpt lat="46.07836" lon="6.62469">
        <ele>1348</ele>
        <time>2014-08-24T16:33:29.000Z</time>
      </trkpt>
      <trkpt lat="46.07839" lon="6.62448">
        <ele>1347</ele>
        <time>2014-08-24T16:33:35.000Z</time>
      </trkpt>
      <trkpt lat="46.07843" lon="6.62427">
        <ele>1346</ele>
        <time>2014-08-24T16:33:41.000Z</time>
      </trkpt>
      <trkpt lat="46.07846" lon="6.62404">
        <ele>1345</ele>
        <time>2014-08-24T16:33:47.000Z</time>
      </trkpt>
      <trkpt lat="46.07849" lon="6.62379">
        <ele>1344</ele>
        <time>2014-08-24T16:33:53.000Z</time>
      </trkpt>
      <trkpt lat="46.07851" lon="6.62356">
        <ele>1343</ele>
        <time>2014-08-24T16:33:59.000Z</time>
      </trkpt>
      <trkpt lat="46.0786" lon="6.62336">
        <ele>1342</ele>
        <time>2014-08-24T16:34:05.000Z</time>
      </trkpt>
      <trkpt lat="46.0786" lon="6.62313">
        <ele>1341</ele>
        <time>2014-08-24T16:34:11.000Z</time>
      </trkpt>
      <trkpt lat="46.07861" lon="6.62292">
        <ele>1339</ele>
        <time>2014-08-24T16:34:17.000Z</time>
      </trkpt>
      <trkpt lat="46.07861" lon="6.6227">
        <ele>1338</ele>
        <time>2014-08-24T16:34:23.000Z</time>
      </trkpt>
      <trkpt lat="46.0787" lon="6.6225">
        <ele>1337</ele>
        <time>2014-08-24T16:34:29.000Z</time>
      </trkpt>
      <trkpt lat="46.07869" lon="6.62225">
        <ele>1335</ele>
        <time>2014-08-24T16:34:38.000Z</time>
      </trkpt>
    </trkseg>
  </trk>
</gpx>